[[{"header":{"parameterUnit":"m.s-1","parameterCategory":1,"la1":30.6,"la2":29.2853,"lo1":-89.7004,"lo2":-87.6739,"dx":0.0162,"dy":0.0183,"nx":112,"ny":82,"refTime":"2022-11-09T06:00:00:Z","depth":0,"parameterNumber":2,"parameterNumberName":"U-component_of_WINDS"},"data":[0.0,0.0,0.0,0.0,0.0,0.0,0.0,0.0,0.0,0.0,0.0,0.0,0.0,0.0,0.0,0.0,0.0,0.0,0.0,0.0,0.0,0.0,0.0,0.0,0.0,0.0,0.0,0.0,0.0,0.0,0.0,0.0,0.0,0.0,0.0,0.0,0.0,0.0,0.0,0.0,0.0,0.0,0.0,0.0,0.0,0.0,0.0,0.0,0.0,0.0,0.0,0.0,0.0,0.0,0.0,0.0,0.0,0.0,0.0,0.0,0.0,0.0,0.0,0.0,0.0,0.0,0.0,0.0,0.0,0.0,0.0,0.0,0.0,0.0,0.0,0.0,0.0,0.0,0.0,0.0,0.0,0.0,0.0,0.0,0.0,0.0,0.0,0.0,0.0,0.0,6.2435,6.5202,6.9284,7.1583,7.1037,7.0063,6.6061,5.8032,0.0,0.0,0.0,0.0,0.0,0.0,0.0,0.0,0.0,0.0,0.0,0.0,0.0,0.0,0.0,0.0,0.0,0.0,0.0,0.0,0.0,0.0,0.0,0.0,0.0,0.0,0.0,0.0,0.0,0.0,0.0,0.0,0.0,0.0,0.0,0.0,0.0,0.0,0.0,0.0,0.0,0.0,0.0,0.0,0.0,0.0,0.0,0.0,0.0,0.0,0.0,0.0,0.0,0.0,0.0,0.0,0.0,0.0,0.0,0.0,0.0,0.0,0.0,0.0,0.0,0.0,0.0,0.0,0.0,0.0,0.0,0.0,0.0,0.0,0.0,0.0,0.0,0.0,0.0,0.0,0.0,0.0,0.0,0.0,0.0,0.0,0.0,0.0,0.0,0.0,0.0,0.0,0.0,0.0,0.0,0.0,0.0,0.0,0.0,0.0,0.0,0.0,0.0,0.0,6.3397,7.099,7.1788,7.205,7.2674,7.131,6.7031,5.9076,0.0,0.0,0.0,0.0,0.0,0.0,0.0,0.0,0.0,0.0,0.0,0.0,0.0,0.0,0.0,0.0,0.0,0.0,0.0,0.0,0.0,0.0,0.0,0.0,0.0,0.0,0.0,0.0,0.0,0.0,0.0,0.0,0.0,0.0,0.0,0.0,0.0,0.0,0.0,0.0,0.0,0.0,0.0,0.0,0.0,0.0,0.0,0.0,0.0,0.0,0.0,0.0,0.0,0.0,0.0,0.0,0.0,0.0,0.0,0.0,0.0,0.0,0.0,0.0,0.0,0.0,0.0,0.0,0.0,0.0,0.0,0.0,0.0,0.0,0.0,0.0,0.0,0.0,0.0,0.0,0.0,0.0,0.0,0.0,0.0,0.0,0.0,0.0,0.0,0.0,0.0,0.0,0.0,0.0,0.0,0.0,0.0,0.0,0.0,0.0,0.0,0.0,0.0,6.1136,6.6186,7.2521,7.3202,7.3375,7.3765,7.2245,6.7887,5.9996,5.7751,0.0,0.0,0.0,0.0,0.0,0.0,0.0,0.0,0.0,0.0,0.0,0.0,0.0,0.0,0.0,0.0,0.0,0.0,0.0,0.0,0.0,0.0,0.0,0.0,0.0,0.0,0.0,0.0,0.0,0.0,0.0,0.0,0.0,0.0,0.0,0.0,0.0,0.0,0.0,0.0,0.0,0.0,0.0,0.0,0.0,0.0,0.0,0.0,0.0,0.0,0.0,0.0,0.0,0.0,0.0,0.0,0.0,0.0,0.0,0.0,0.0,0.0,0.0,0.0,0.0,0.0,0.0,0.0,0.0,0.0,0.0,0.0,0.0,0.0,0.0,0.0,0.0,0.0,0.0,0.0,0.0,0.0,0.0,0.0,0.0,0.0,0.0,0.0,0.0,0.0,0.0,0.0,0.0,0.0,0.0,0.0,0.0,0.0,0.0,0.0,0.0,0.0,6.5113,6.9577,7.3115,7.406,7.4466,7.47,7.2362,6.7821,6.0616,5.7818,0.0,0.0,0.0,0.0,0.0,0.0,0.0,0.0,0.0,0.0,0.0,0.0,0.0,0.0,0.0,0.0,0.0,0.0,0.0,0.0,0.0,0.0,0.0,0.0,0.0,0.0,0.0,0.0,0.0,0.0,0.0,0.0,0.0,0.0,0.0,0.0,0.0,0.0,0.0,0.0,0.0,0.0,0.0,0.0,0.0,0.0,0.0,0.0,0.0,0.0,0.0,0.0,0.0,0.0,0.0,0.0,0.0,0.0,0.0,0.0,0.0,0.0,0.0,0.0,0.0,0.0,0.0,0.0,0.0,0.0,0.0,0.0,0.0,0.0,0.0,0.0,0.0,0.0,0.0,0.0,0.0,0.0,0.0,0.0,0.0,0.0,0.0,0.0,0.0,0.0,0.0,0.0,0.0,0.0,0.0,0.0,0.0,0.0,0.0,0.0,0.0,0.0,6.8141,7.3154,7.4303,7.4382,7.4739,7.5558,7.1115,6.5972,6.0624,5.6297,0.0,0.0,0.0,0.0,0.0,0.0,0.0,0.0,0.0,0.0,0.0,0.0,0.0,0.0,0.0,0.0,0.0,0.0,0.0,0.0,0.0,0.0,0.0,0.0,0.0,0.0,0.0,0.0,0.0,0.0,0.0,0.0,0.0,0.0,0.0,0.0,0.0,0.0,0.0,0.0,0.0,0.0,0.0,0.0,0.0,0.0,0.0,0.0,0.0,0.0,0.0,0.0,0.0,0.0,0.0,0.0,0.0,0.0,0.0,0.0,0.0,0.0,0.0,0.0,0.0,0.0,0.0,0.0,0.0,0.0,0.0,0.0,0.0,0.0,0.0,0.0,0.0,0.0,0.0,0.0,0.0,0.0,0.0,0.0,0.0,0.0,0.0,0.0,0.0,0.0,0.0,0.0,0.0,0.0,0.0,0.0,0.0,0.0,0.0,0.0,0.0,0.0,6.7329,7.1945,0.0,7.6214,7.6727,7.6532,7.4233,6.9673,6.2387,0.0,0.0,0.0,0.0,0.0,0.0,0.0,0.0,0.0,0.0,0.0,0.0,0.0,0.0,0.0,0.0,0.0,0.0,0.0,0.0,0.0,0.0,0.0,0.0,0.0,0.0,0.0,0.0,0.0,0.0,0.0,0.0,0.0,0.0,0.0,0.0,0.0,0.0,0.0,0.0,0.0,0.0,0.0,0.0,0.0,0.0,0.0,0.0,0.0,0.0,0.0,0.0,0.0,0.0,0.0,0.0,0.0,0.0,0.0,0.0,0.0,0.0,0.0,0.0,0.0,0.0,0.0,0.0,0.0,0.0,0.0,0.0,0.0,0.0,0.0,0.0,0.0,0.0,0.0,0.0,0.0,0.0,0.0,0.0,0.0,0.0,0.0,0.0,0.0,0.0,0.0,0.0,0.0,0.0,0.0,0.0,0.0,0.0,0.0,0.0,0.0,0.0,6.2384,6.7656,7.2197,0.0,7.7043,7.7634,7.7038,7.4934,7.0609,6.3361,0.0,0.0,0.0,0.0,0.0,0.0,0.0,0.0,0.0,0.0,0.0,0.0,0.0,0.0,0.0,0.0,0.0,0.0,0.0,0.0,0.0,0.0,0.0,0.0,0.0,0.0,0.0,0.0,0.0,0.0,0.0,0.0,0.0,0.0,0.0,0.0,0.0,0.0,0.0,0.0,0.0,0.0,0.0,0.0,0.0,0.0,0.0,0.0,0.0,0.0,0.0,0.0,0.0,0.0,0.0,0.0,0.0,0.0,0.0,0.0,0.0,0.0,0.0,0.0,0.0,0.0,0.0,0.0,0.0,0.0,0.0,0.0,0.0,0.0,0.0,0.0,0.0,0.0,0.0,0.0,0.0,0.0,0.0,0.0,0.0,0.0,0.0,0.0,0.0,0.0,0.0,0.0,0.0,0.0,0.0,0.0,0.0,0.0,0.0,0.0,0.0,0.0,6.2774,6.9745,7.4843,7.5716,7.6517,7.6994,7.6999,7.2323,6.753,0.0,0.0,0.0,0.0,0.0,0.0,0.0,0.0,0.0,0.0,0.0,0.0,0.0,0.0,0.0,0.0,0.0,0.0,0.0,0.0,0.0,0.0,0.0,0.0,0.0,0.0,0.0,0.0,0.0,0.0,0.0,0.0,0.0,0.0,0.0,0.0,0.0,0.0,0.0,0.0,0.0,0.0,0.0,0.0,0.0,0.0,0.0,0.0,0.0,0.0,0.0,0.0,0.0,0.0,0.0,0.0,0.0,0.0,0.0,0.0,0.0,0.0,0.0,0.0,0.0,0.0,0.0,0.0,0.0,0.0,0.0,0.0,0.0,0.0,0.0,0.0,0.0,0.0,0.0,0.0,0.0,0.0,0.0,0.0,0.0,0.0,0.0,0.0,0.0,0.0,0.0,0.0,0.0,0.0,0.0,0.0,0.0,0.0,0.0,0.0,0.0,0.0,0.0,6.3672,7.0648,7.5748,7.6638,7.7433,7.7687,7.7033,7.559,7.1838,6.5075,0.0,0.0,0.0,0.0,0.0,0.0,0.0,0.0,0.0,0.0,0.0,0.0,0.0,0.0,0.0,0.0,0.0,0.0,0.0,0.0,0.0,0.0,0.0,0.0,0.0,0.0,0.0,0.0,0.0,0.0,0.0,0.0,0.0,0.0,0.0,0.0,0.0,0.0,0.0,0.0,0.0,0.0,0.0,0.0,0.0,0.0,0.0,0.0,0.0,0.0,0.0,0.0,0.0,0.0,0.0,0.0,0.0,0.0,0.0,0.0,0.0,0.0,0.0,0.0,0.0,0.0,0.0,0.0,0.0,0.0,0.0,0.0,0.0,0.0,0.0,0.0,0.0,0.0,0.0,0.0,0.0,0.0,0.0,0.0,0.0,0.0,0.0,0.0,0.0,0.0,0.0,0.0,0.0,0.0,0.0,0.0,0.0,0.0,0.0,0.0,0.0,0.0,6.457,7.124,7.6145,7.6997,7.7528,7.7589,7.7043,7.6692,7.3758,6.7374,0.0,0.0,0.0,0.0,0.0,0.0,0.0,0.0,0.0,0.0,0.0,0.0,0.0,0.0,0.0,0.0,0.0,0.0,0.0,0.0,0.0,0.0,0.0,0.0,0.0,0.0,0.0,0.0,0.0,0.0,0.0,0.0,0.0,0.0,0.0,0.0,0.0,0.0,0.0,0.0,0.0,0.0,0.0,0.0,0.0,0.0,0.0,0.0,0.0,0.0,0.0,0.0,0.0,0.0,0.0,0.0,0.0,0.0,0.0,0.0,0.0,0.0,0.0,0.0,0.0,0.0,0.0,0.0,0.0,0.0,0.0,0.0,0.0,0.0,0.0,0.0,0.0,0.0,0.0,0.0,0.0,0.0,0.0,0.0,0.0,0.0,0.0,0.0,0.0,0.0,0.0,0.0,0.0,0.0,0.0,0.0,0.0,0.0,0.0,0.0,0.0,0.0,6.539,7.1636,7.6236,7.7036,7.7114,7.7059,7.7014,7.6274,7.4041,6.9801,0.0,0.0,0.0,0.0,0.0,0.0,0.0,0.0,0.0,0.0,0.0,0.0,0.0,0.0,0.0,0.0,0.0,0.0,0.0,0.0,0.0,0.0,0.0,0.0,0.0,0.0,0.0,0.0,0.0,0.0,0.0,0.0,0.0,0.0,0.0,0.0,0.0,0.0,0.0,0.0,0.0,0.0,0.0,0.0,0.0,0.0,0.0,0.0,0.0,0.0,0.0,0.0,0.0,0.0,0.0,0.0,0.0,0.0,0.0,0.0,5.766,0.0,0.0,0.0,0.0,0.0,0.0,0.0,0.0,0.0,0.0,0.0,0.0,0.0,0.0,0.0,0.0,0.0,0.0,0.0,0.0,0.0,0.0,0.0,0.0,0.0,0.0,0.0,0.0,0.0,0.0,0.0,0.0,0.0,0.0,0.0,0.0,0.0,0.0,0.0,0.0,0.0,6.5468,7.2182,7.6906,7.7095,7.7095,7.7089,7.7059,7.6847,7.5191,7.1575,6.984,0.0,0.0,0.0,0.0,0.0,0.0,0.0,0.0,0.0,0.0,0.0,0.0,0.0,0.0,0.0,0.0,0.0,0.0,0.0,0.0,0.0,0.0,0.0,0.0,0.0,0.0,0.0,0.0,0.0,0.0,0.0,0.0,0.0,0.0,0.0,0.0,0.0,0.0,0.0,0.0,0.0,0.0,0.0,0.0,0.0,0.0,0.0,0.0,0.0,0.0,0.0,0.0,0.0,0.0,0.0,0.0,0.0,0.0,0.0,0.0,5.7153,0.0,0.0,0.0,0.0,0.0,0.0,0.0,0.0,0.0,0.0,0.0,0.0,0.0,0.0,0.0,0.0,0.0,0.0,0.0,0.0,0.0,0.0,0.0,0.0,0.0,0.0,0.0,0.0,0.0,0.0,0.0,0.0,0.0,0.0,0.0,0.0,0.0,0.0,0.0,0.0,6.8357,7.3627,7.7101,7.7101,7.7101,7.7089,7.7059,7.7012,7.6049,7.3865,7.2139,0.0,0.0,0.0,0.0,0.0,0.0,0.0,0.0,0.0,0.0,0.0,0.0,0.0,0.0,0.0,0.0,0.0,0.0,0.0,0.0,0.0,0.0,0.0,0.0,0.0,0.0,0.0,0.0,0.0,0.0,0.0,0.0,0.0,0.0,0.0,0.0,0.0,0.0,0.0,0.0,0.0,0.0,0.0,0.0,0.0,0.0,0.0,0.0,0.0,0.0,0.0,0.0,0.0,6.2852,6.3243,6.3945,6.3945,6.4336,6.4843,6.2071,6.2423,6.4531,0.0,0.0,0.0,0.0,0.0,0.0,0.0,0.0,0.0,0.0,0.0,0.0,0.0,0.0,0.0,0.0,0.0,0.0,0.0,0.0,0.0,0.0,0.0,0.0,0.0,6.7146,6.6985,0.0,0.0,0.0,0.0,0.0,0.0,0.0,0.0,0.0,0.0,0.0,0.0,7.1519,7.4993,7.7101,7.7101,7.7257,7.7245,7.7059,7.7012,7.6634,7.5775,7.3542,7.1544,0.0,0.0,0.0,0.0,0.0,0.0,0.0,0.0,0.0,0.0,0.0,0.0,0.0,0.0,0.0,0.0,0.0,0.0,0.0,0.0,0.0,0.0,0.0,0.0,0.0,0.0,0.0,0.0,0.0,0.0,0.0,0.0,5.1414,5.5903,0.0,0.0,0.0,0.0,0.0,0.0,0.0,0.0,0.0,0.0,0.0,0.0,0.0,6.2032,6.7224,6.7029,6.8825,7.2651,7.2651,7.269,7.2807,7.2807,7.2885,7.2807,6.9489,0.0,6.7576,6.742,0.0,0.0,0.0,0.0,0.0,0.0,0.0,0.0,0.0,0.0,0.0,0.0,0.0,0.0,0.0,0.0,0.0,0.0,0.0,0.0,0.0,0.0,7.187,7.2924,7.3315,7.3315,0.0,6.7219,6.2579,6.2891,6.293,0.0,0.0,0.0,0.0,0.0,0.0,0.0,7.1831,7.4993,7.7101,7.7101,7.7765,7.7921,7.7134,7.7106,7.6691,7.5824,7.4694,7.3609,7.2635,7.0258,0.0,0.0,0.0,0.0,0.0,0.0,0.0,0.0,0.0,0.0,0.0,0.0,0.0,0.0,0.0,0.0,0.0,0.0,0.0,0.0,0.0,0.0,0.0,0.0,0.0,0.0,0.0,0.0,0.0,5.0906,5.5005,6.0315,5.8363,5.6528,0.0,0.0,0.0,0.0,0.0,0.0,0.0,0.0,0.0,6.5312,6.5468,6.7459,7.1675,7.1714,7.2651,7.4486,7.4486,7.4486,7.4486,7.4486,7.4759,7.5149,7.3666,7.3041,7.2963,7.0426,6.9176,6.8552,0.0,0.0,0.0,0.0,6.1798,6.1603,6.2774,6.5155,0.0,6.5507,0.0,0.0,0.0,0.0,0.0,0.0,0.0,0.0,0.0,0.0,0.0,7.3978,7.4486,7.4642,7.511,7.2573,6.9606,0.0,6.7185,6.6483,6.4375,0.0,0.0,0.0,0.0,7.226,7.4564,7.6594,7.7843,7.7843,7.8624,7.8774,7.7908,7.7801,7.7199,7.5815,7.5346,7.4505,7.3142,7.2011,6.9985,0.0,0.0,0.0,0.0,0.0,0.0,0.0,0.0,0.0,0.0,0.0,0.0,0.0,0.0,0.0,0.0,0.0,0.0,0.0,0.0,0.0,0.0,0.0,0.0,0.0,0.0,0.0,0.0,5.4303,5.8011,6.3633,6.1486,5.9846,0.0,0.0,0.0,0.0,0.0,0.0,6.4531,6.4648,6.6483,7.0582,7.0699,7.2026,7.4798,7.4837,7.4954,7.5188,7.5188,7.5188,7.5188,7.5188,7.5501,7.6125,7.6125,7.6516,7.6789,7.2963,7.1363,7.1285,7.0426,6.8513,6.6288,6.6288,6.6131,6.6053,6.6951,6.8747,7.0699,7.0699,0.0,7.0543,6.9684,0.0,0.0,0.0,0.0,6.6873,6.9411,7.0699,7.2026,7.4564,7.5188,7.5345,7.6008,7.6125,7.5188,0.0,7.1363,7.0738,6.8786,0.0,0.0,0.0,0.0,7.429,7.7062,7.7999,7.839,7.839,7.917,7.9242,7.8175,7.8035,7.7346,7.5806,7.5502,7.4778,7.3492,7.3219,7.1895,6.9362,0.0,0.0,0.0,0.0,0.0,0.0,0.0,0.0,0.0,0.0,0.0,0.0,0.0,0.0,0.0,0.0,0.0,0.0,0.0,0.0,0.0,0.0,0.0,0.0,0.0,0.0,0.0,0.0,0.0,6.375,6.6209,0.0,0.0,0.0,0.0,6.2774,6.3555,6.5546,6.8903,6.9098,7.066,7.4134,7.4251,7.472,7.5735,7.5735,7.6164,7.6984,7.6984,7.6984,7.6984,7.6984,7.6984,7.7023,7.7023,7.7062,7.7062,7.6828,7.6711,7.6399,7.3158,7.1753,7.1597,7.1597,7.1089,7.0855,7.4095,7.4798,7.4251,7.4251,7.4251,7.3627,7.0387,6.9879,0.0,0.0,6.8435,7.1636,7.1831,7.429,7.675,7.6945,7.6984,7.6984,7.7023,7.7023,7.6984,0.0,7.6711,7.593,7.3393,0.0,7.5774,7.3627,7.5305,7.7218,7.8194,7.835,7.839,7.839,7.917,7.9014,7.7296,7.7145,7.6769,7.5833,7.4967,7.4427,7.435,7.3531,7.3025,7.283,6.9557,0.0,0.0,0.0,0.0,0.0,0.0,0.0,0.0,0.0,0.0,0.0,0.0,0.0,0.0,0.0,0.0,0.0,0.0,0.0,0.0,0.0,0.0,0.0,0.0,0.0,0.0,0.0,0.0,6.457,6.5897,0.0,6.7146,6.7459,6.7498,6.7146,6.945,7.1636,7.3432,7.351,7.433,7.6125,7.6164,7.632,7.6633,7.6633,7.6789,7.7101,7.7101,7.7101,7.7101,7.7101,7.6789,7.6242,7.6242,7.593,7.5423,7.5423,7.6086,7.6984,7.5774,7.5266,7.5266,7.5266,7.5071,7.4993,7.6203,7.6438,7.6164,7.6164,7.6164,7.5852,7.4056,7.4134,7.4447,7.2651,7.3666,7.5266,7.5266,7.6203,7.7101,7.7101,7.7101,7.7101,7.7101,7.7101,7.7101,7.7101,7.7101,7.6828,7.5891,7.6945,7.7648,7.6711,7.7375,7.8233,7.9131,7.9248,7.9444,7.999,8.0849,8.0654,7.8936,7.8745,7.7862,7.5911,7.5435,7.4739,7.3609,7.3258,7.2596,7.1505,7.0804,6.8504,0.0,0.0,0.0,0.0,0.0,0.0,0.0,0.0,0.0,0.0,0.0,0.0,0.0,0.0,0.0,0.0,0.0,0.0,0.0,0.0,0.0,0.0,0.0,0.0,0.0,0.0,6.211,6.5546,6.7029,6.8318,6.9723,7.0387,7.0933,7.1519,7.3939,7.5618,7.6203,7.6242,7.6516,7.7062,7.7101,7.7101,7.7101,7.7101,7.7101,7.7101,7.7414,7.7375,7.7101,7.7414,7.7062,7.6242,7.6242,7.5891,7.5384,7.5384,7.6047,7.7023,7.6438,7.6203,7.6242,7.6555,7.6672,7.6711,7.6984,7.7101,7.7101,7.7101,7.7101,7.6984,7.6399,7.6633,7.6984,7.6399,7.6633,7.7101,7.7101,7.7101,7.7101,7.7101,7.7101,7.7101,7.7101,7.7335,7.7531,7.7531,7.7296,7.7023,7.6711,7.714,7.7414,7.714,7.7062,7.7414,7.8272,7.8897,7.9483,8.0068,8.0888,8.0849,7.9366,7.8667,7.7706,7.6301,7.559,7.4895,7.3999,7.3142,7.2128,7.1037,7.0414,6.8699,6.5855,0.0,0.0,0.0,0.0,0.0,0.0,0.0,0.0,0.0,0.0,0.0,0.0,0.0,0.0,0.0,0.0,0.0,0.0,0.0,0.0,0.0,0.0,0.0,6.1369,6.3321,6.5038,6.6756,6.9996,7.2417,7.3275,7.4837,7.5813,7.5852,7.6633,7.7101,7.7101,7.7101,7.7101,7.7101,7.714,7.714,7.714,7.7179,7.7179,7.7179,7.7999,7.796,7.7179,7.7999,7.7921,7.7101,7.714,7.714,7.7101,7.7101,7.7101,7.6945,7.5227,7.4564,7.4681,7.554,7.5852,7.5969,7.6828,7.7101,7.7101,7.7101,7.7101,7.7101,7.7101,7.7101,7.7101,7.7101,7.7101,7.7101,7.7101,7.7101,7.7101,7.714,7.714,7.714,7.7179,7.7843,7.8429,7.8429,7.7765,7.6906,7.6086,7.593,7.5696,7.4837,7.4681,0.0,7.5891,7.7453,7.8468,7.8429,7.9287,7.9444,7.8468,7.6911,7.6301,7.7004,7.5474,7.4895,7.5674,7.3219,7.1817,7.1778,6.8465,6.7569,6.9245,0.0,0.0,0.0,0.0,0.0,0.0,0.0,0.0,0.0,0.0,0.0,0.0,0.0,0.0,0.0,0.0,0.0,0.0,0.0,0.0,0.0,0.0,6.4101,6.4492,6.5975,6.7927,7.0309,7.2495,7.4173,7.5032,7.554,7.6047,7.6711,7.6945,7.7101,7.7101,7.7101,7.7101,7.7101,7.7726,7.8038,7.8038,7.8663,7.8975,7.8975,7.8585,7.8272,7.8038,7.8272,7.7921,7.714,7.7765,7.7687,7.7101,7.7101,7.7101,7.7062,7.6555,7.6399,7.6399,7.6633,7.675,7.6789,7.7023,7.7101,7.7101,7.7101,7.7101,7.7101,7.7101,7.7101,7.7101,7.7101,7.7101,7.7101,7.7101,7.7101,7.7257,7.7882,7.8038,7.8233,7.8858,7.917,7.9326,7.9326,7.9131,7.8897,7.8663,7.9131,7.9483,7.9248,7.9209,0.0,8.0381,8.0381,8.0029,7.9405,8.12,8.1356,7.8624,7.9643,7.9734,7.8057,7.7501,7.6765,7.5752,7.3804,7.2167,7.0959,6.8777,6.7809,0.0,0.0,0.0,0.0,0.0,0.0,0.0,0.0,0.0,0.0,0.0,0.0,0.0,0.0,0.0,0.0,0.0,0.0,0.0,0.0,0.0,0.0,6.5155,6.7146,6.8122,6.9137,7.0309,7.1831,7.3197,7.433,7.5188,7.5579,7.6164,7.7023,7.7101,7.7101,7.7101,7.7453,7.7648,7.7648,7.8155,7.8585,7.8936,7.9092,7.9326,7.9717,7.9561,7.9287,7.8975,7.9326,7.9014,0.0,7.8702,7.8663,7.8194,7.8194,7.8194,0.0,0.0,0.0,0.0,0.0,7.7101,7.7101,7.7101,7.7101,7.7101,7.7101,7.7101,7.7101,7.7101,7.7335,7.7648,7.7648,7.7921,7.8194,7.8194,7.8194,7.8311,7.8819,7.8936,7.9092,7.96,7.999,8.0224,8.0224,8.0537,0.0,8.081,8.0302,7.9795,7.9405,7.9366,7.9561,8.0068,8.0302,8.0263,7.9756,8.1356,8.163,7.9678,8.0197,0.0,0.0,0.0,7.6972,7.5246,7.3843,0.0,0.0,0.0,0.0,0.0,0.0,0.0,0.0,6.5596,6.3975,0.0,0.0,0.0,0.0,0.0,0.0,0.0,0.0,0.0,0.0,0.0,0.0,0.0,0.0,0.0,0.0,6.5858,6.8591,7.1597,7.2065,7.2143,7.2143,7.2924,7.3705,7.4447,7.5305,7.6125,7.6906,7.7023,7.7101,7.7101,0.0,0.0,0.0,0.0,7.9053,7.9834,7.917,7.9248,7.999,8.0693,8.0576,7.9873,8.0654,8.0576,7.9834,7.9951,7.999,7.999,7.999,7.999,7.9834,7.8077,7.7375,7.7375,7.7375,7.7375,7.7375,7.7375,0.0,0.0,7.7375,7.7375,7.7375,7.7375,7.7921,7.8546,7.8546,7.9092,7.9717,7.9717,7.9717,7.9717,7.9834,7.9834,7.9873,7.9951,8.0615,8.1161,8.1161,8.1786,8.2332,8.2411,8.0459,7.8624,7.7921,7.7804,7.7843,7.796,7.9326,8.0185,7.9873,0.0,0.0,8.0888,7.9704,7.9213,7.9695,7.8116,7.6409,7.4739,7.3765,7.2089,6.9634,6.8816,6.9167,7.0609,7.0804,7.1661,7.2986,6.7476,6.61,0.0,0.0,0.0,0.0,0.0,0.0,0.0,0.0,0.0,0.0,0.0,0.0,0.0,0.0,0.0,6.7927,7.0348,7.2026,7.1987,7.2612,7.3041,7.3041,7.3783,7.433,7.4486,7.5305,7.5852,7.6047,7.6711,7.7101,7.7101,7.7921,7.839,7.839,7.9756,8.0576,8.0732,8.1278,8.163,8.1786,0.0,0.0,8.0732,8.0927,8.0927,8.0771,8.1474,8.1786,8.1786,8.1786,8.1786,8.163,7.9873,7.9209,7.9209,7.9209,7.9209,7.9209,7.9209,7.9209,7.9209,7.9209,7.9209,7.9209,7.9209,7.9326,0.0,7.9444,7.9561,7.9717,7.9717,7.9717,7.9873,8.0576,8.0732,8.0927,8.1669,8.1942,8.2059,8.2059,8.2176,8.2528,8.3152,8.2293,8.1708,8.2176,8.2254,8.2528,8.323,8.3621,8.3035,8.0966,8.2723,8.2957,8.0185,8.1538,8.1992,8.0735,7.9023,7.7579,7.6532,7.4973,7.3258,7.1349,7.1154,7.092,7.0609,7.1973,7.2791,7.3064,7.1872,7.121,0.0,0.0,0.0,0.0,0.0,0.0,0.0,0.0,0.0,0.0,0.0,6.496,0.0,0.0,6.8747,6.8747,7.0933,7.2495,7.2065,7.2768,7.3158,7.269,7.3393,7.4056,7.4447,7.5305,7.6164,7.7023,7.7492,7.7921,7.839,7.9248,7.9717,7.9717,8.0537,8.12,8.1669,8.1669,8.1864,8.2293,8.1864,8.1669,8.1669,8.1669,8.1669,8.1669,8.1669,8.1669,8.163,8.1161,8.1278,8.1552,8.0693,8.0341,8.0341,8.0341,8.0068,7.9717,7.9717,7.9717,7.9717,7.9717,7.9717,7.9717,7.9717,7.999,8.0341,8.0341,8.0654,8.1005,8.1005,8.1005,8.1122,8.1552,8.1669,8.1786,8.2215,8.2293,8.2411,8.2801,8.2918,8.3152,8.4011,8.3816,8.3699,8.4089,8.4167,8.4323,8.4753,8.4792,8.4167,8.2411,8.3386,8.3308,8.1161,8.2124,8.2304,8.0961,8.0066,7.9216,7.8285,7.7038,7.5519,7.3804,7.3336,7.2674,7.1856,7.2674,7.3336,7.3765,7.3765,7.3297,0.0,0.0,0.0,0.0,0.0,0.0,0.0,6.4307,6.495,6.6282,6.7224,6.7576,6.6678,6.863,7.0152,6.945,7.0972,7.23,7.2456,7.308,7.3354,7.2807,7.3197,7.3861,7.4681,7.554,7.6711,7.8272,7.8546,7.8975,7.9678,8.0537,8.1005,8.1005,8.1161,8.1591,8.2293,8.1591,8.1591,8.2293,8.2293,8.2293,8.2293,8.245,8.245,8.2254,8.1552,8.1239,8.12,8.0498,8.0615,8.1239,8.1239,8.1239,8.1239,8.1239,8.0693,7.9951,7.9951,7.9834,7.9717,7.9912,7.9951,7.999,8.0146,8.0693,8.1239,8.1239,8.1747,8.2293,8.2293,8.2293,8.2293,8.2293,8.2293,8.2332,8.2489,8.2528,8.2762,8.3582,8.3738,8.4011,8.4909,8.5065,8.5065,8.5065,8.5065,8.5104,8.5299,8.5299,8.4909,8.3855,8.3738,8.3347,8.2371,8.2234,8.1906,8.1177,8.1002,8.0541,7.9766,7.8831,7.7545,7.5986,7.509,7.4233,7.3336,7.3531,7.396,7.4661,7.4661,7.4194,5.4771,5.5708,5.7777,5.8128,6.0934,6.4253,0.0,6.9327,7.163,7.4017,7.5227,7.554,7.4681,7.4173,7.39,7.3783,7.3432,7.3393,7.4134,7.429,7.4603,7.5305,7.4798,7.472,7.5579,7.6438,7.7375,7.8311,7.9131,7.96,7.9678,8.0537,8.1005,8.1005,8.1747,8.2215,8.2293,8.2215,8.2215,8.2293,8.2293,8.2293,8.2332,8.3035,8.2996,8.2293,8.2215,8.2137,8.2137,8.2059,8.2059,8.2137,8.2137,8.2137,8.2137,8.2137,8.1591,8.0849,8.0849,8.0341,7.9834,8.0615,8.0849,8.1005,8.1786,8.2098,8.2137,8.2137,8.2215,8.2293,8.2293,8.2293,8.2293,8.2293,8.2293,8.2489,8.3191,8.3386,8.3621,8.448,8.4636,8.4948,8.5807,8.5963,8.5963,8.5963,8.5963,8.6236,8.7017,8.7095,8.6471,8.4831,8.4636,8.4011,8.245,8.2234,8.2179,8.2075,8.1314,8.0814,8.0662,7.9142,7.7857,7.6882,7.5986,7.5129,7.4272,7.5012,7.548,7.5558,7.5558,7.509,5.9222,5.9261,6.0393,6.4921,6.6678,6.8083,7.1128,7.2651,7.39,7.5462,7.6477,7.6672,7.5305,7.5149,7.5071,0.0,7.4212,7.4134,7.4447,7.5384,7.6164,7.6516,7.714,7.7453,7.7335,7.8116,7.8975,7.9834,8.0263,8.0693,8.12,8.1552,8.1747,8.1747,8.2098,8.2293,8.2293,8.2762,8.2996,8.2996,8.3504,8.3738,8.3777,8.4089,8.3816,8.2996,8.2996,8.2723,8.2293,8.2293,8.2567,8.2996,8.2996,8.3308,8.366,8.2645,8.2059,8.1747,8.1747,8.1513,8.1278,8.163,8.1747,8.1825,8.2176,8.2293,8.2293,8.2293,8.2293,8.2293,8.2293,8.2645,8.2996,8.2996,8.3386,8.3855,8.4167,8.4245,8.4519,8.5377,8.5573,8.5846,8.6705,8.6861,8.6861,8.6861,8.6861,8.6978,8.7368,8.7407,8.6744,8.4987,8.4362,8.3582,8.2411,8.2287,8.2226,8.2192,8.187,8.1616,8.1558,8.0389,7.9104,7.7779,7.7389,7.6532,7.5168,7.6025,7.6454,7.6454,7.6454,7.6259,6.1822,6.2374,6.3672,7.0035,7.1402,7.1753,7.3978,7.4876,7.5345,7.5735,7.6477,7.6633,7.5149,7.5384,7.5579,7.4954,7.4876,7.5032,7.5501,7.6672,7.7648,7.8116,7.9287,7.9912,7.9522,7.9834,8.042,8.1278,8.1122,8.1278,8.1903,8.1708,8.1708,8.1942,8.1942,8.2176,8.2645,8.3191,8.3621,8.3855,8.4519,8.4792,8.4792,8.4792,8.4597,8.4206,8.3699,8.3308,8.2957,8.2723,8.3113,8.3855,8.3855,8.4245,8.4636,8.3426,8.284,8.2645,8.2645,8.2489,8.2332,8.2567,8.2645,8.2684,8.2918,8.2996,8.2996,8.2996,8.2996,8.2996,8.2996,8.3426,8.3855,8.3855,8.4323,8.487,8.5104,8.5143,8.5416,8.6275,8.6471,8.6666,8.729,8.7407,8.7407,8.7407,8.7407,8.7407,8.7407,8.7173,8.6549,8.5299,8.4362,8.3621,8.3035,8.2755,8.2624,8.2543,8.2299,8.2162,8.2104,8.1481,8.0467,7.9026,7.8753,7.8012,7.6765,7.7155,7.735,7.735,7.735,7.7233,6.0668,6.4021,6.7264,7.0035,7.3197,7.5423,7.4681,7.5813,7.6789,7.5969,7.6477,7.6828,7.593,7.5774,7.5774,7.5774,7.5774,7.636,7.8038,7.8311,7.8975,8.0693,8.0927,8.1278,0.0,8.1435,8.1317,8.2176,8.1474,8.1005,8.1044,8.0224,8.0185,8.1005,8.1044,8.1825,8.3465,8.3504,8.3933,8.4753,8.4792,8.4792,8.4792,8.4792,8.526,8.5924,8.4245,8.3972,8.4675,8.3816,8.3972,8.4753,8.4753,8.4792,8.4792,8.4753,8.4206,8.3465,8.3465,8.2957,8.245,8.3191,8.3465,8.3621,8.448,8.4714,8.4714,8.4714,8.4714,8.4714,8.4714,8.4753,8.4753,8.4753,8.4792,8.5026,8.5885,8.6041,8.6314,8.7173,8.7368,8.7368,8.7407,8.7407,8.7407,8.7407,8.7407,8.7407,8.7407,8.6666,8.6119,8.608,8.5299,8.4753,8.4714,8.3958,8.3467,8.344,8.2601,8.2101,8.2104,8.2065,8.1636,8.074,7.9883,7.9454,7.9376,7.8636,7.8246,7.8246,7.8246,7.7818,6.612,6.8892,7.0738,7.2729,7.4525,7.5735,7.5423,7.5813,7.6164,7.5852,7.6477,7.7023,7.6711,7.6672,7.6867,7.7414,7.7531,7.7726,7.8311,7.9405,8.0341,8.0927,8.1513,0.0,0.0,0.0,0.0,8.2293,8.1474,8.1239,8.1825,8.1044,8.12,8.2606,8.2645,8.3191,8.4362,8.4948,8.5377,8.5651,8.6236,8.6549,8.6549,8.6549,8.6353,8.608,8.5495,8.5065,8.4792,8.448,8.4558,8.4792,8.4792,8.5143,8.5651,8.5651,8.5846,8.5924,8.4753,8.4206,8.4011,8.4284,8.4362,8.4401,8.4714,8.4792,8.4792,8.4792,8.4792,8.4792,8.4792,8.5221,8.5651,8.5651,8.6119,8.6627,8.69,8.6978,8.7056,8.7329,8.7407,8.7407,8.7407,8.7407,8.7603,8.8188,8.8266,8.8266,8.8266,8.7993,8.7603,8.7017,8.6197,8.5416,8.487,8.4512,8.4107,8.3557,8.3196,8.2747,8.2143,8.2104,8.1675,8.0818,8.0506,8.0078,7.9493,7.922,7.9104,7.9104,7.9104,7.8948,6.9475,7.178,7.2924,7.4915,7.5852,7.6242,7.6242,7.6242,7.6242,7.6242,7.6711,7.7218,7.7492,7.7296,7.7492,7.8663,7.8585,7.8624,7.9248,8.0302,8.1122,8.1435,8.1942,8.2293,0.0,0.0,0.0,8.2723,8.1669,8.1513,8.2684,8.163,8.1786,8.3465,8.3504,8.4089,8.526,8.5807,8.6275,8.6588,8.7134,8.7251,8.6939,8.6939,8.6627,8.608,8.5768,8.569,8.569,8.5377,8.5456,8.5729,8.5729,8.608,8.6549,8.6549,8.6939,8.7251,8.6119,8.5729,8.5729,8.5729,8.5729,8.5729,8.5729,8.5729,8.5729,8.5729,8.5729,8.5729,8.5729,8.6158,8.6549,8.6549,8.6978,8.7407,8.7407,8.7407,8.7407,8.7407,8.7407,8.7407,8.7407,8.7642,8.8032,8.8618,8.9242,8.9516,8.9203,8.9164,8.8813,8.7954,8.7368,8.6666,8.5807,8.5456,8.5012,8.4415,8.383,8.3225,8.2572,8.226,8.1831,8.1286,8.0974,8.0506,7.9961,7.9649,7.9337,7.9065,7.9376,7.9337,7.0784,7.2846,7.4134,7.6633,7.7218,7.7218,7.7179,7.7062,7.6945,7.6906,7.6789,7.6984,7.7882,7.7453,7.7531,7.9209,7.8975,7.9092,8.0693,8.1005,8.1356,0.0,8.2332,8.2371,0.0,0.0,0.0,8.3621,0.0,8.1825,8.3465,8.202,8.1903,8.3582,8.3621,8.4441,8.6158,8.6158,8.6588,8.7407,8.7407,8.6978,8.6158,8.6158,8.6158,8.6041,8.5221,8.5768,8.7212,8.6353,8.651,8.729,8.729,8.729,8.7329,8.7329,8.7368,8.7407,8.7407,8.7407,8.7407,8.7407,8.7407,8.7407,8.7407,8.7407,8.7407,8.7407,8.7407,8.7407,8.7407,8.7407,8.7407,8.7407,8.7407,8.7407,8.7407,8.7407,8.7407,8.7407,8.7407,8.7407,8.7446,8.8149,8.8735,8.8813,9.0257,9.0999,9.0179,9.0062,8.975,8.893,8.8735,8.8383,8.7525,8.6666,8.6105,8.6024,8.4454,8.3537,8.348,8.2572,8.2104,8.2182,8.1286,8.0818,8.0818,7.9922,7.9104,7.8363,7.9181,7.9142,7.5475,7.69,7.7414,7.8702,7.9053,7.8858,7.8233,7.6555,7.4993,7.4408,7.2729,7.1831,7.3354,7.4486,7.5501,7.6633,7.878,8.0263,8.0068,8.1161,8.2059,8.2254,8.284,8.3191,8.3191,8.3972,0.0,0.0,8.3855,8.3347,8.4401,8.3465,8.366,8.5377,8.5456,8.5963,8.7056,8.7056,8.7173,8.7407,8.7407,8.729,8.7056,8.7056,8.6705,8.608,8.5885,8.5651,8.5456,8.5221,8.526,8.5456,8.5456,8.5846,8.6431,8.6431,8.6822,8.7407,8.7407,8.7407,8.7407,8.7407,8.7407,8.7407,8.7407,8.7407,8.7407,8.7407,8.7407,8.7407,8.7407,8.7407,8.7407,8.7407,8.7407,8.7407,8.7407,8.7407,8.7407,8.7407,8.7407,8.7603,8.8266,8.854,8.9125,9.0452,9.1038,9.1233,9.0999,9.096,9.0882,9.0648,8.9477,8.8618,8.8383,8.7564,8.6776,8.612,8.5049,8.4444,8.4362,8.2896,8.2416,8.3039,8.1558,8.0818,8.0818,7.9922,7.9376,7.922,8.0078,8.0,7.7876,7.8975,7.9092,7.96,7.9717,7.917,7.714,7.554,7.3939,7.1987,7.0426,7.0152,7.2651,7.3861,7.5305,7.7687,7.9717,8.0966,8.0849,8.1669,8.2293,8.2293,8.2996,8.3504,8.3504,8.4636,8.5573,0.0,8.4831,8.4636,8.5885,8.5104,8.526,8.6627,8.6666,8.69,8.7407,8.7798,8.7954,8.7993,8.8344,8.8344,8.7954,8.7954,8.772,8.7251,0.0,8.7173,8.7095,8.7095,8.6861,8.651,8.651,8.6822,8.7173,8.6822,8.7212,8.7915,8.7525,8.7407,8.7407,8.7407,8.7407,8.7407,8.7407,8.7407,8.7407,8.7407,8.7407,8.7407,8.7407,8.7407,8.7407,8.7407,8.7407,8.7407,8.7407,8.7407,8.7407,8.7407,8.7407,8.7681,8.854,8.9008,8.9711,9.1116,9.1585,9.1819,9.1819,9.1819,9.1702,9.135,9.0062,8.9125,8.8735,8.7915,8.7205,8.6714,8.5838,8.5302,8.527,8.3609,8.2883,8.339,8.2065,8.0974,8.0234,7.9727,7.9104,7.8441,7.9649,7.9961,7.8975,7.9873,7.9912,8.0029,8.0068,7.9092,7.5501,7.4408,7.3158,6.9606,6.863,6.9411,7.2846,7.3588,7.4993,7.9131,7.999,8.0498,8.1474,8.1708,8.1942,8.2411,8.3191,8.3738,8.3816,8.5338,8.6275,8.6275,8.5573,8.5807,8.7329,8.6666,8.6666,8.7525,8.7564,8.7642,8.7759,8.8501,8.8852,8.8891,8.9633,8.9594,8.8852,8.8852,8.8852,8.8852,0.0,0.0,8.9984,8.9984,8.9555,8.8852,8.8852,8.8852,8.8774,8.8032,8.8227,8.8774,8.7993,8.7759,8.772,8.7486,8.7486,8.7564,8.7564,8.7564,8.7603,8.772,8.7642,8.7603,8.772,8.7759,8.7759,8.7759,8.7759,8.772,8.7603,8.7486,8.7407,8.7407,8.7486,8.7837,8.8735,8.9594,9.0452,9.1311,9.2053,9.2482,9.2482,9.2482,9.2248,9.1546,9.0687,8.9828,8.8969,8.8071,8.7518,8.7425,8.6541,8.6044,8.6178,8.4506,8.3558,8.3585,8.2727,8.1364,7.9493,7.9493,7.8714,7.7194,7.8753,7.9493,8.0224,8.0771,8.0966,8.1669,8.1864,8.0732,7.6516,7.3939,7.1245,6.7107,6.4531,6.4062,6.7498,6.8708,7.0152,7.308,7.472,7.6164,7.7765,7.8624,8.0146,8.2957,8.405,8.487,8.5573,8.6588,0.0,0.0,0.0,8.7095,8.7368,8.7251,8.7564,8.8461,8.8461,8.8813,8.9555,8.9711,8.975,8.9789,8.9945,8.9906,8.975,8.975,8.975,8.975,8.975,0.0,8.9984,8.9984,8.9906,8.975,8.975,8.975,8.975,8.9594,8.9633,8.975,8.9594,8.9555,8.932,8.7876,8.7876,8.8461,8.8461,8.8461,8.8618,8.9359,8.9047,8.8657,8.9359,8.9555,8.9555,8.9555,8.9555,8.9359,8.8618,8.7915,8.7407,8.7407,8.7993,8.8735,8.9633,9.0492,9.135,9.217,9.2404,9.2482,9.2482,9.2482,9.2443,9.2326,9.1546,9.0726,8.9867,8.8969,8.8188,8.744,8.6566,8.6385,8.7058,8.5398,8.4467,8.4481,8.3624,8.1948,7.9493,7.9493,7.9026,7.809,7.9065,7.9493,7.9131,8.0302,8.1786,8.2215,8.1942,8.0263,7.4993,7.2534,6.984,6.4648,6.2579,6.2618,6.5624,6.7224,6.8942,7.1558,7.4564,7.6828,7.7648,7.9326,8.12,8.3269,8.4284,8.5143,8.6002,8.69,8.7407,8.7407,0.0,8.7407,8.7407,8.7837,8.8266,8.8696,8.9125,8.9594,8.9984,9.0452,9.0687,9.0687,9.1116,9.1311,9.1311,9.1311,9.1311,9.1311,9.1311,0.0,9.1311,9.1311,9.1038,9.0687,9.0687,9.0687,9.0609,9.0179,9.0296,9.0609,9.014,8.9984,8.9867,8.9008,8.9047,8.9398,8.9398,8.9398,8.9477,8.9867,8.9711,8.9477,8.9906,8.9984,8.9984,8.9984,8.9633,8.932,8.9359,8.8344,8.7525,8.7993,8.8422,8.8969,8.9867,9.0726,9.1585,9.2365,9.2482,9.2482,9.2482,9.2482,9.2482,9.2482,9.178,9.096,9.0062,8.9203,8.8344,8.7446,8.7003,8.694,8.7302,8.6061,8.5181,8.4715,8.3819,8.2338,8.0195,7.9727,7.9298,7.8948,7.9337,7.9727,7.85,8.0218,8.2254,8.2059,8.1513,7.9366,7.3158,7.1206,6.8981,6.293,6.172,6.2501,6.5121,6.6522,6.8122,7.0738,7.3822,7.6287,7.7414,7.9366,8.1435,8.3543,8.4362,8.5221,8.6275,8.7017,0.0,8.7407,0.0,0.0,8.7681,8.8344,8.8852,8.9242,8.9906,9.0374,9.0531,9.1194,9.1546,9.1546,9.2209,9.2482,9.2482,9.2482,9.2482,9.2482,9.2482,0.0,0.0,9.2482,9.2131,9.1546,9.1546,9.1546,9.1467,9.0804,9.096,9.1467,9.0765,9.0531,9.0531,9.0531,9.0413,9.0296,9.0296,9.0296,9.0296,9.0492,9.0413,9.0335,9.0492,9.0531,9.0531,9.0531,8.9867,8.9437,9.014,8.9047,8.811,8.8618,8.9008,8.9437,8.9906,9.0882,9.178,9.2404,9.2482,9.2482,9.2482,9.2482,9.2482,9.2482,9.1936,9.1116,9.0101,8.9359,8.854,8.7486,8.7393,8.7377,8.7312,8.6657,8.5855,8.5,8.413,8.2805,8.1091,8.0039,7.961,7.9766,7.961,8.0078,8.081,8.2059,8.2098,8.1317,8.1044,7.9203,7.2366,7.0771,6.8981,6.293,6.172,6.2501,6.5121,6.5077,6.5507,6.8039,6.8122,6.9489,7.4212,7.511,7.7648,8.3933,8.4753,8.5456,8.7134,8.7368,8.7407,0.0,0.0,0.0,8.8579,8.8657,8.9437,9.0999,9.1155,9.1546,9.2248,9.2365,9.2404,9.2404,9.2443,9.2482,9.2482,9.2482,9.2482,9.2482,9.2482,0.0,0.0,9.2482,9.2443,9.2404,9.2404,9.2404,9.2365,9.2287,9.2326,9.2365,9.2287,9.2287,9.2287,9.2287,9.178,9.1194,9.1194,9.1194,9.1311,9.2053,9.1741,9.135,9.2092,9.2287,9.2287,9.2287,9.1663,9.1077,9.1155,9.0413,8.9555,8.8852,8.9984,9.0843,9.0101,9.1311,9.2404,9.2482,9.2482,9.2482,9.2482,9.2482,9.2482,9.2482,9.2443,9.1741,9.014,8.9945,8.9164,8.7525,8.7407,8.7393,8.7377,8.7273,8.6774,8.5894,8.5,8.3702,8.1987,8.0312,7.9922,8.0662,7.9883,8.0389,7.6197,7.9125,8.2098,8.1239,8.1005,7.9209,7.2288,7.0693,6.8981,6.293,6.172,6.2032,6.3047,6.3399,6.4023,6.5546,6.7264,6.9962,7.4647,7.6672,7.9639,8.4948,8.5573,8.5651,8.58,0.0,8.8383,0.0,0.0,0.0,9.0257,9.0257,9.057,9.1272,9.178,9.217,9.2482,9.2482,9.2482,9.2482,9.2482,9.2482,9.2482,9.2482,9.2482,9.2482,9.2482,0.0,0.0,9.2482,9.2482,9.2482,9.2482,9.2482,9.2482,9.2482,9.2482,9.2482,9.2482,9.2482,9.2482,9.2482,9.2287,9.2014,9.2014,9.2014,9.2092,9.2404,9.2287,9.2092,9.2404,9.2482,9.2482,9.2482,9.1897,9.1428,9.1936,9.096,9.0062,9.0218,9.0843,9.1194,9.0843,9.1741,9.2482,9.2482,9.2482,9.2482,9.2482,9.2482,9.2482,9.2482,9.2482,9.1819,9.014,8.9984,8.9242,8.7525,8.7407,8.7401,8.7417,8.7369,8.6922,8.6011,8.5648,8.4623,8.2883,8.113,8.074,8.1558,8.0156,8.0428,7.3615,7.7056,8.081,8.0966,8.0224,7.7921,7.2054,6.9913,6.7771,6.2735,6.172,6.172,6.172,6.2423,6.3282,6.4179,6.6522,7.004,7.5082,7.7375,8.0218,8.4792,8.5338,8.5176,8.4824,8.7173,0.0,0.0,0.0,0.0,0.0,9.1663,9.1663,9.1663,9.2209,9.2482,9.2482,9.2482,9.2482,9.2482,9.2482,9.2482,9.2482,9.2482,9.2482,9.2482,0.0,0.0,0.0,9.2482,9.2482,9.2482,9.2482,9.2482,9.2482,9.2482,9.2482,9.2482,9.2482,9.2482,9.2482,9.2482,9.2482,9.2482,9.2482,9.2482,9.2482,9.2482,9.2482,9.2482,9.2482,9.2482,9.2482,9.2482,9.2053,9.1819,9.2365,9.1585,9.0843,9.1233,9.1507,9.1585,9.135,9.1975,9.2482,9.2482,9.2482,9.2482,9.2482,9.2482,9.2482,9.2482,9.2287,9.1546,9.0101,8.975,8.8969,8.7486,8.7407,8.7401,8.7386,8.7377,8.7078,8.6412,8.6128,8.5286,8.378,8.2026,8.1481,8.2065,8.0584,8.0662,7.5182,7.7095,7.7759,8.0374,7.8429,7.4948,7.1507,6.8078,6.4882,6.2267,6.172,6.172,6.172,6.2423,6.3282,6.414,6.5038,6.801,7.4848,7.5807,7.7752,8.2912,8.3536,8.3848,8.4707,8.7166,0.0,0.0,0.0,0.0,0.0,9.2482,9.2482,9.2482,9.2482,9.2482,9.2482,9.2482,9.2482,9.2482,9.2482,9.2482,9.2482,9.2482,9.2482,0.0,0.0,0.0,0.0,9.2482,9.2482,9.2482,9.2482,9.2482,9.2482,9.2482,9.2482,9.2482,9.2482,9.2482,9.2482,9.2482,9.2482,9.2482,9.2482,9.2482,9.2482,9.2482,9.2482,9.2482,9.2482,9.2482,9.2482,9.2482,9.2482,9.2482,9.2482,9.2482,9.2248,9.1467,9.1936,9.2248,9.1428,9.1975,9.2482,9.2482,9.2482,9.2482,9.2482,9.2482,9.2482,9.2482,9.178,9.096,9.0062,8.9203,8.8344,8.7446,8.7407,8.7407,8.7407,8.733,8.7302,8.7302,8.6428,8.5572,8.4676,8.2922,8.2104,8.2065,8.1208,8.1247,6.945,7.1786,7.3654,7.3888,7.3576,7.2132,6.8117,6.6795,6.5512,6.2345,6.172,6.172,6.172,6.1915,6.2579,6.4062,6.4531,6.7537,7.5551,7.6705,7.9275,8.6236,8.651,8.6984,0.0,0.0,0.0,0.0,0.0,0.0,0.0,9.2482,9.2482,9.2482,9.2482,9.2482,9.2482,9.2482,9.2482,9.2482,9.2482,9.2482,9.2482,9.2482,0.0,0.0,0.0,0.0,0.0,9.2482,9.2482,9.2482,9.2482,9.2482,9.2482,9.2482,9.2482,9.2482,9.2482,9.2482,9.2482,9.2482,9.2482,9.2482,9.2482,9.2482,9.2482,9.2482,9.2482,9.2482,9.2482,9.2482,9.2482,9.2482,9.2482,9.2482,9.2482,9.2482,9.2404,9.217,9.2326,9.2404,9.217,9.2326,9.2482,9.2482,9.2482,9.2482,9.2482,9.2482,9.2482,9.2482,9.1233,9.0296,9.0023,8.9203,8.8344,8.7446,8.7407,8.7407,8.7407,8.7393,8.7377,8.7369,8.7117,8.6512,8.557,8.3855,8.2401,8.1208,8.1558,8.1831,6.6371,6.8396,7.0225,7.1006,7.0615,6.9327,6.6639,6.5434,6.4258,6.2149,6.172,6.172,6.172,6.1954,6.3086,6.5785,6.5663,6.801,7.598,7.651,7.865,8.5488,8.6939,8.8156,0.0,0.0,0.0,0.0,0.0,0.0,0.0,9.2482,9.2482,9.2482,9.2482,9.2482,9.2482,9.2482,9.2482,9.2482,9.2482,9.2482,9.2482,9.2482,0.0,0.0,0.0,0.0,0.0,9.2482,9.2482,9.2482,9.2482,9.2482,9.2482,9.2482,9.2482,9.2482,9.2482,9.2482,9.2482,9.2482,9.2482,9.2482,9.2482,9.2482,9.2482,9.2482,9.2482,9.2482,9.2482,9.2482,9.2482,9.2482,9.2482,9.2482,9.2482,9.2482,9.2482,9.2482,9.2482,9.2482,9.2482,9.2482,9.2482,9.2482,9.2482,9.2482,9.2482,9.2482,9.2365,9.2092,9.0804,8.9867,8.9555,8.8696,8.7993,8.7446,8.7407,8.7407,8.7407,8.7401,8.7393,8.7417,8.7369,8.6922,8.5994,8.4267,8.2686,8.1298,8.1844,8.2104,0.0,6.641,6.719,7.0475,6.883,6.6449,6.6449,6.3984,0.0,6.172,6.172,6.172,6.172,6.2618,6.4609,6.8401,6.801,6.9416,7.5824,7.5885,7.7089,8.2085,8.5683,0.0,0.0,0.0,0.0,0.0,0.0,0.0,0.0,9.2482,9.2482,9.2482,9.2482,9.2482,9.2482,9.2482,9.2482,9.2482,9.2482,9.2482,9.2482,9.2482,0.0,0.0,0.0,0.0,0.0,9.2482,9.2482,9.2482,9.2482,9.2482,9.2482,9.2482,9.2482,9.2482,9.2482,9.2482,9.2482,9.2482,9.2482,9.2482,9.2482,9.2482,9.2482,9.2482,9.2482,9.2482,9.2482,9.2482,9.2482,9.2482,9.2482,9.2482,9.2482,9.2482,9.2482,9.2482,9.2482,9.2482,9.2482,9.2482,9.2482,9.2482,9.2482,9.2482,9.2482,9.2443,9.2131,9.1389,9.0452,8.9594,8.8774,8.7915,8.7407,8.7407,8.7407,8.7407,8.7407,8.7393,8.7377,8.7377,8.736,8.6834,8.5898,8.4278,8.3009,8.2112,8.2089,8.2104,6.1252,0.0,6.3086,6.3906,6.3516,6.2891,0.0,6.2267,6.172,6.172,6.172,6.172,6.172,6.4531,6.6605,6.5663,6.8463,7.1351,7.2963,7.8512,8.3315,8.5917,8.9242,9.1389,0.0,0.0,0.0,0.0,0.0,0.0,0.0,9.2482,9.2482,9.2482,9.2482,9.2482,9.2482,9.2482,9.2482,9.2482,9.2482,9.2482,9.2482,9.2482,0.0,0.0,0.0,0.0,9.2482,9.2482,9.2482,9.2482,9.2482,9.2482,9.2482,9.2482,9.2482,9.2482,9.2482,9.2482,9.2482,9.2482,9.2482,9.2482,9.2482,9.2482,9.2482,9.2482,9.2482,9.2482,9.2482,9.2482,9.2482,9.2482,9.2482,9.2482,9.2482,9.2482,9.2482,9.2482,9.2482,9.2482,9.2482,9.2482,9.2482,9.2482,9.2482,9.2482,9.2482,9.1975,9.1507,9.1311,8.9906,8.893,8.8735,8.7915,8.7407,8.7407,8.7407,8.7407,8.7407,8.7401,8.7401,8.7401,8.7377,8.6628,8.5067,8.4659,8.3654,8.2112,8.2101,8.2089,5.8948,6.0159,6.1213,6.1603,6.172,6.172,6.172,6.172,6.172,6.172,6.172,6.1837,6.2228,6.4531,6.7068,6.9249,7.1279,7.3426,7.578,8.1134,8.5462,8.7205,9.0413,9.2482,0.0,0.0,0.0,0.0,0.0,0.0,0.0,9.2482,9.2482,9.2482,9.2482,9.2482,9.2482,9.2482,9.2482,9.2482,9.2482,9.2482,9.2482,9.2482,9.2482,0.0,0.0,0.0,9.2522,9.2912,9.3107,9.3146,9.3537,9.3458,9.3146,9.3537,9.3185,9.2561,9.2951,9.2834,9.2482,9.2482,9.2482,9.2482,9.2482,9.2482,9.2482,9.2482,9.2482,9.2482,9.2482,9.2482,9.2482,9.2482,9.2482,9.2482,9.2482,9.2482,9.2482,9.2482,9.2482,9.2482,9.2482,9.2482,9.2482,9.2482,9.2482,9.2482,9.2482,9.1819,9.1155,9.0765,8.9516,8.854,8.8149,8.7681,8.7407,8.7407,8.7407,8.7407,8.7407,8.7407,8.7407,8.7407,8.7393,8.6535,8.4817,8.4794,8.3878,8.2153,8.2133,8.2162,5.7777,5.8987,6.0549,6.1954,6.1993,6.1837,6.2345,6.2071,6.172,6.172,6.2228,6.2891,6.3633,6.5473,6.8825,7.4825,7.4837,7.574,8.0548,8.3398,8.5657,8.7401,9.0492,0.0,0.0,0.0,0.0,0.0,0.0,0.0,0.0,9.2482,9.2482,9.2482,9.2639,9.2717,9.2717,9.2561,9.2561,9.2717,9.2717,9.2756,9.2912,9.2912,9.2912,0.0,0.0,0.0,9.2951,9.3693,9.4005,9.4083,9.4825,9.463,9.4083,9.4832,9.4161,9.299,9.3576,9.3224,9.2482,9.2482,9.2482,9.2482,9.2482,9.2482,9.2482,9.2482,9.2482,9.2482,9.2482,9.2482,9.2482,9.2482,9.2482,9.2482,9.2482,9.2482,9.2482,9.2482,9.2482,9.2482,9.2482,9.2482,9.2482,9.2482,9.2482,9.2443,9.2326,9.1624,9.0765,8.9906,8.9008,8.8188,8.7446,8.7407,8.7407,8.7407,8.7407,8.7407,8.7407,8.7407,8.7407,8.7407,8.7407,8.6549,8.4792,8.4817,8.3904,8.2187,8.221,8.2192,5.7621,5.8519,6.0237,6.4062,6.3321,6.2462,6.5355,6.3789,6.172,6.172,6.457,6.7151,6.7308,7.3403,7.7854,7.6092,7.6828,7.8657,8.1662,8.4278,8.6542,8.8298,0.0,0.0,0.0,0.0,0.0,0.0,0.0,0.0,0.0,9.2482,9.2482,9.2482,9.3224,9.3615,9.3615,9.2873,9.2873,9.3615,9.3615,9.4005,9.4715,9.4715,9.4715,0.0,0.0,9.4715,9.4715,9.4871,9.4903,9.4903,9.5059,9.502,9.4903,9.5059,9.4942,9.463,9.4005,9.3224,9.2482,9.2482,9.2482,9.2482,9.2482,9.2482,9.2482,9.2482,9.2482,9.2482,9.2482,9.2482,9.2482,9.2482,9.2482,9.2482,9.2482,9.2482,9.2482,9.2482,9.2482,9.2482,9.2482,9.2482,9.2482,9.2482,9.2482,9.2248,9.1585,9.0726,8.9867,8.9008,8.811,8.7564,8.7407,8.7407,8.7407,8.7407,8.7407,8.7407,8.7407,8.7407,8.7407,8.7407,8.7407,8.6549,8.4792,8.4785,8.388,8.2187,8.2187,8.221,5.7582,5.8441,6.0592,6.68,6.6399,6.4872,6.6444,6.7034,6.6331,6.3086,6.5434,6.8401,6.9327,7.2762,7.6438,7.9483,8.2215,8.4707,8.6854,8.8181,8.9359,0.0,0.0,0.0,0.0,0.0,0.0,0.0,0.0,0.0,0.0,0.0,9.3185,9.3185,9.4044,9.4512,9.4512,9.4122,9.4122,9.4512,9.4512,9.4708,9.5098,9.5098,9.5098,9.5098,0.0,9.5098,9.5137,9.5606,9.5801,9.584,9.6308,9.623,9.5762,9.5254,9.5098,9.4981,9.4083,9.3224,9.2482,9.2482,9.2482,9.2482,9.2482,9.2482,9.2482,9.2482,9.2482,9.2482,9.2482,9.2482,9.2482,9.2482,9.2482,9.2482,9.2482,9.2482,9.2482,9.2482,9.2482,9.2482,9.2482,9.2482,9.2482,9.2482,9.2131,9.1702,9.135,9.014,8.9125,8.8735,8.7915,8.7407,8.7407,8.7407,8.7407,8.7407,8.7407,8.7407,8.7407,8.7407,8.7407,8.7407,8.7407,8.6549,8.4792,8.4792,8.3926,8.2241,8.2241,8.2234,5.7855,5.9183,6.2037,6.801,6.8156,6.7208,6.8825,7.0821,7.0982,6.6366,6.8479,7.1524,7.2873,7.3296,7.5716,8.2677,8.6034,8.8618,9.096,9.1467,0.0,0.0,0.0,0.0,0.0,0.0,0.0,0.0,0.0,0.0,0.0,0.0,9.381,9.381,9.4825,9.541,9.5371,9.5567,9.5606,9.541,9.5371,9.5488,9.5684,9.5645,9.5645,9.5684,9.5684,9.5684,9.5762,9.6425,9.6699,9.6777,9.744,9.7284,9.6621,9.5957,9.5567,9.5293,9.4395,9.3537,9.2756,9.2561,9.2639,9.2756,9.2561,9.2639,9.2763,9.2556,9.2507,9.2482,9.2482,9.2482,9.2482,9.2482,9.2482,9.2482,9.2482,9.2482,9.2482,9.2482,9.2482,9.2482,9.2482,9.2482,9.2443,9.2248,9.1702,9.1155,9.0726,8.9516,8.8618,8.8422,8.7798,8.7407,8.7407,8.7407,8.7407,8.7407,8.7407,8.7407,8.7407,8.7407,8.7407,8.7407,8.7407,8.6549,8.4792,8.4792,8.3933,8.2293,8.2293,8.2293,5.8675,6.1369,6.5277,6.5824,6.6394,6.8496,7.4909,7.4725,7.3086,7.2645,7.656,8.0124,8.0241,8.0927,8.217,8.4356,8.4902,8.6542,9.0726,0.0,0.0,0.0,0.0,0.0,0.0,0.0,0.0,0.0,0.0,0.0,0.0,0.0,0.0,9.3802,9.5449,9.6269,9.623,9.7011,9.705,9.6308,9.623,9.666,9.7401,9.7284,9.7284,9.7401,9.7401,9.744,9.7518,9.7597,9.7597,9.7597,9.7675,9.7675,9.7597,9.7558,9.7011,9.6191,9.5293,9.4434,9.3576,9.2756,9.3029,9.3576,9.2756,9.3068,9.3522,9.2642,9.2461,9.2482,9.2482,9.2482,9.2482,9.2482,9.2482,9.2482,9.2482,9.2482,9.2482,9.2482,9.2482,9.2482,9.2482,9.2482,9.2248,9.1507,9.135,9.0726,8.9086,8.8774,8.8383,8.7564,8.7446,8.7407,8.7407,8.7407,8.7407,8.7407,8.7407,8.7407,8.7407,8.7407,8.7407,8.7407,8.7407,8.6549,8.4792,8.4792,8.3933,8.2293,8.2293,8.2293,5.8816,6.2022,6.6371,6.9577,7.0626,7.1519,7.4122,7.7296,7.8741,7.5527,7.8149,8.1317,8.2371,8.3276,8.4954,8.8279,8.7492,8.7713,0.0,0.0,0.0,0.0,0.0,0.0,0.0,0.0,0.0,0.0,0.0,0.0,0.0,0.0,0.0,9.5332,9.6503,9.7089,9.6972,9.732,9.7327,9.7015,9.699,9.7147,9.7483,9.7405,9.7444,9.7466,9.7496,9.7479,9.7518,9.7597,9.7636,9.7636,9.7675,9.7714,9.7714,9.7714,9.7167,9.6347,9.6035,9.5332,9.4552,9.42,9.4317,9.4552,9.4161,9.4278,9.4348,9.3415,9.3153,9.3084,9.2578,9.2473,9.2482,9.2482,9.2482,9.2482,9.2482,9.2482,9.2482,9.2482,9.2482,9.2482,9.2482,9.2092,9.1663,9.135,9.0374,8.9437,8.8774,8.8227,8.7759,8.7446,8.7407,8.7407,8.7407,8.7407,8.7407,8.7407,8.7407,8.7407,8.7407,8.7407,8.7407,8.7407,8.6861,8.6002,8.4792,8.4245,8.3426,8.2293,8.2293,8.2293,5.924,6.3467,6.8596,7.1056,7.3515,7.5389,7.5657,7.8696,8.0726,7.7987,8.0641,8.3536,8.3848,8.4401,8.5975,0.0,8.8351,0.0,0.0,0.0,0.0,0.0,0.0,0.0,0.0,0.0,0.0,0.0,0.0,0.0,0.0,0.0,0.0,0.0,9.7107,9.7496,9.7379,9.7364,9.7354,9.7337,9.7347,9.7329,9.7354,9.7354,9.7354,9.7359,9.7355,9.7379,9.7418,9.7496,9.7535,9.7558,9.7597,9.7597,9.7597,9.7597,9.7245,9.6699,9.6425,9.5957,9.541,9.5137,9.5215,9.5371,9.5059,9.5148,9.5142,9.3915,9.3578,9.3473,9.2905,9.2577,9.2453,9.2453,9.2447,9.2473,9.2473,9.2502,9.2482,9.2482,9.2287,9.2131,9.2131,9.1428,9.0804,9.0531,8.9477,8.8618,8.8305,8.7759,8.7407,8.7407,8.7407,8.7407,8.7407,8.7407,8.7525,8.7798,8.7564,8.7407,8.7407,8.7407,8.7407,8.7407,8.6549,8.5651,8.4792,8.3933,8.3074,8.2293,8.2293,8.245,6.0159,6.6136,7.25,6.9087,7.3999,7.9945,8.0821,7.9014,7.7869,8.0446,8.5097,8.7915,8.5293,8.4824,0.0,8.7141,0.0,0.0,0.0,0.0,0.0,0.0,0.0,0.0,0.0,0.0,0.0,0.0,0.0,0.0,0.0,0.0,0.0,0.0,9.7031,9.7354,9.7315,9.7315,9.7276,9.7199,9.7199,9.7238,9.7315,9.7238,9.7238,9.7315,9.7315,9.7354,9.7393,9.7393,9.7416,9.7409,9.7409,9.7409,9.7409,9.7409,9.7409,9.7291,9.6503,9.6191,9.6074,9.5215,9.5488,9.6035,9.5176,9.5535,9.5839,9.4052,9.3586,9.3609,9.3516,9.2919,9.2326,9.2326,9.2369,9.2383,9.2383,9.2447,9.2482,9.2482,9.1858,9.1311,9.1272,9.057,8.9672,8.8813,8.8696,8.8383,8.7525,8.7407,8.7407,8.7407,8.7407,8.7407,8.7407,8.7407,8.7759,8.8657,8.7876,8.7407,8.7407,8.7407,8.7407,8.7407,8.6549,8.5651,8.4792,8.3933,8.3074,8.2332,8.2332,8.2723,6.6722,7.1529,7.6019,7.6197,7.7987,8.0101,8.1591,8.1323,8.0621,8.0179,8.4668,8.811,8.6073,8.623,0.0,0.0,0.0,0.0,0.0,0.0,0.0,0.0,0.0,0.0,0.0,0.0,0.0,0.0,0.0,0.0,0.0,0.0,0.0,0.0,9.7305,9.7354,9.7238,9.7238,9.7199,9.7199,9.7199,9.7199,9.7238,9.7199,9.7199,9.7238,9.7238,9.7238,9.7276,9.7315,9.7362,9.7383,9.7383,9.7383,9.7383,9.7383,9.7383,9.7383,9.7149,9.7032,9.6993,9.6759,9.6837,9.6993,9.6681,9.6776,9.6733,9.5528,9.5179,9.4928,9.3746,9.3258,9.3087,9.3192,9.2769,9.2326,9.2382,9.2421,9.2294,9.1748,9.1467,9.1116,9.0492,8.9672,8.9008,8.8735,8.8188,8.7681,8.7446,8.7407,8.7407,8.7407,8.7407,8.7407,8.7407,8.7407,8.7759,8.8657,8.8461,8.8305,8.8305,8.772,8.7095,8.651,8.5612,8.5065,8.4792,8.3347,8.3152,8.405,8.3426,8.3582,6.8357,7.332,7.8395,7.9437,8.1506,8.3263,8.3302,8.2768,8.2188,8.1819,8.5729,8.9015,8.8305,8.8852,0.0,0.0,0.0,0.0,0.0,0.0,0.0,0.0,0.0,0.0,0.0,0.0,0.0,0.0,0.0,0.0,0.0,0.0,0.0,0.0,9.7458,9.7354,9.7121,9.716,9.716,9.7121,9.7121,9.7121,9.7121,9.716,9.7199,9.7199,9.7199,9.7199,9.7199,9.7238,9.7276,9.7315,9.7315,9.7315,9.7315,9.7315,9.7315,9.7315,9.7315,9.7315,9.7315,9.7315,9.7315,9.7315,9.7231,9.7207,9.7013,9.6058,9.5825,9.5592,9.4606,9.4063,9.3685,9.3117,9.2624,9.2264,9.2365,9.2107,9.1756,9.1363,9.0726,9.0101,8.9555,8.8774,8.8188,8.8188,8.7759,8.7407,8.7407,8.7407,8.7407,8.7407,8.772,8.7915,8.7915,8.8227,8.8813,8.9672,8.9398,8.9203,8.9203,8.8383,8.7681,8.7134,8.5924,8.5338,8.5299,8.3933,8.3816,8.4792,8.4245,8.448,6.728,7.299,7.9672,8.0179,8.4519,8.8071,8.5683,8.3978,8.3158,8.4245,8.7453,9.027,9.0843,9.1819,0.0,0.0,0.0,0.0,0.0,0.0,0.0,0.0,0.0,0.0,0.0,0.0,0.0,0.0,0.0,0.0,0.0,0.0,0.0,9.7415,9.7448,9.7337,9.7012,9.7143,9.7137,0.0,9.7021,9.7021,9.7021,9.7121,9.7199,9.7199,9.716,9.7199,9.7199,9.7199,9.7199,9.7199,9.7199,9.7199,9.7199,9.7199,9.7199,9.7199,9.7199,9.7199,9.7199,9.7199,9.7176,9.7153,9.7109,9.7083,9.6928,9.6062,9.5829,9.579,9.57,9.499,9.3929,9.2532,9.2208,9.2171,9.2178,9.1545,9.0975,9.1051,8.9789,8.8657,8.8618,8.7915,8.7407,8.7407,8.7407,8.7407,8.7407,8.7486,8.7525,8.7525,8.8305,8.8813,8.8813,8.9555,9.0374,9.1233,9.0492,9.0023,9.0101,8.9203,8.8618,8.8461,8.69,8.608,8.608,8.5221,8.487,8.5026,8.4948,8.5377,7.299,7.6627,7.9633,8.3692,8.6744,8.854,8.7993,8.7564,8.6275,8.2599,8.6744,9.0452,8.8579,0.0,0.0,0.0,0.0,0.0,0.0,0.0,0.0,0.0,0.0,0.0,0.0,0.0,0.0,0.0,0.0,0.0,0.0,0.0,0.0,9.742,9.7282,9.7129,9.7003,9.7012,9.7053,0.0,9.7014,9.7014,9.7014,9.7028,9.7082,9.7121,9.7082,9.7082,9.7199,9.7121,9.716,9.7199,9.7199,9.7199,9.7199,9.7199,9.7199,9.7199,9.7199,9.7199,9.7176,9.712,9.7134,9.7109,9.7057,9.703,9.6992,9.6786,9.6708,9.6579,9.5881,9.4563,9.3361,9.3037,9.2425,9.182,9.13,9.0559,8.9865,8.9344,8.8969,8.8461,8.7798,8.7525,8.7407,8.7407,8.7407,8.7407,8.7407,8.7993,8.8422,8.8422,8.9203,8.9711,8.9711,8.9906,9.0374,9.1233,9.0492,9.0296,9.0999,8.9516,8.8071,8.6705,8.6275,8.608,8.608,8.5221,8.5495,8.6822,8.6158,8.6275,7.3315,7.6789,8.0452,8.6471,8.8344,8.893,8.975,8.9945,8.932,8.701,8.9086,9.1116,0.0,0.0,0.0,0.0,0.0,0.0,0.0,0.0,0.0,0.0,0.0,0.0,0.0,0.0,0.0,0.0,0.0,0.0,0.0,9.75,9.7403,9.7213,9.7222,9.712,9.6926,9.6965,9.6976,9.6899,9.6899,9.6899,9.6899,9.6992,9.7006,9.707,9.7037,9.7052,9.7109,9.7076,9.7082,9.7082,9.7082,9.7091,9.7083,9.7083,9.7095,9.7106,9.7082,9.712,9.712,9.707,9.7044,9.7044,9.6964,9.6964,9.6887,9.6395,9.6278,9.6085,9.5194,9.4342,9.3567,9.3219,9.1838,9.0702,9.0852,8.9937,8.8994,8.8763,8.8344,8.7915,8.7486,8.7407,8.7681,8.854,8.8305,8.8188,8.8579,8.9047,8.932,8.932,9.0101,9.0609,9.0609,9.096,9.1233,9.1311,9.0882,9.0452,9.0062,8.9164,8.8266,8.7368,8.6939,8.6705,8.6705,8.6275,8.651,8.7407,8.6939,8.6978,7.067,7.5423,8.1506,8.8149,8.9242,8.9164,9.0882,9.1311,9.1585,9.26,9.2248,0.0,0.0,0.0,0.0,0.0,0.0,0.0,0.0,0.0,0.0,0.0,0.0,0.0,0.0,0.0,0.0,0.0,0.0,0.0,9.7304,9.7371,9.7292,9.7006,9.7131,9.7092,9.6783,9.6899,9.6899,9.6783,9.6783,9.6783,9.6783,9.6899,9.6976,9.7006,9.6954,9.6967,9.7006,9.7018,9.6975,9.7013,9.7013,9.7006,9.6976,9.6976,9.6986,9.6979,9.6992,9.7003,9.6992,9.6979,9.6979,9.6941,9.6704,9.6638,9.6483,9.5536,9.5274,9.512,9.4385,9.3998,9.365,9.3108,9.1101,8.9554,9.0475,8.9348,8.8277,8.8619,8.8234,8.7798,8.7642,8.7759,8.8344,8.9789,8.9398,8.9164,8.9906,9.014,9.0218,9.0218,9.0999,9.1467,9.1311,9.1897,9.1936,9.1116,9.0921,9.0218,8.8774,8.8579,8.8461,8.8461,8.7759,8.7407,8.7407,8.7407,8.7407,8.7407,8.7407,8.7407,6.6253,7.4017,8.2131,8.7525,8.8774,8.9164,9.0882,9.1311,9.1741,0.0,0.0,0.0,0.0,0.0,0.0,0.0,0.0,0.0,0.0,0.0,0.0,0.0,0.0,0.0,0.0,0.0,0.0,0.0,0.0,0.0,9.7304,9.7138,9.703,9.6976,9.6899,9.686,9.6783,9.6822,9.6822,9.6783,9.6783,9.6783,9.6783,9.6822,9.686,9.6899,9.688,9.689,9.6976,9.6958,9.6958,9.6996,9.6996,9.7006,9.6976,9.6976,9.6996,9.703,9.7003,9.6992,9.6979,9.6926,9.6898,9.6782,9.5922,9.569,9.5497,9.4617,9.4346,9.4346,9.423,9.3108,9.2218,9.2837,9.1086,8.9333,8.9695,8.8419,8.7493,8.8514,8.9222,8.9398,8.8657,8.9164,8.975,8.9945,8.9906,8.9867,8.9984,9.0648,9.1116,9.1116,9.1858,9.2053,9.135,9.1389,9.1077,9.0218,8.9477,8.893,8.8696,8.7954,8.7564,8.7564,8.7446,8.7407,8.7407,8.7407,8.7407,8.7407,8.7407,8.7407,6.6005,7.378,8.1276,8.5537,8.7997,9.0028,9.2255,9.2762,9.3114,9.4364,0.0,0.0,0.0,0.0,0.0,0.0,0.0,0.0,0.0,0.0,0.0,0.0,0.0,0.0,0.0,0.0,0.0,0.0,0.0,9.7277,9.7027,9.7018,9.6976,9.6899,9.6822,9.6783,9.6783,9.6783,9.6783,9.6783,9.6783,9.6783,9.6783,9.6783,9.6822,9.6822,9.6822,9.6822,9.6899,9.686,9.686,9.6899,9.6899,9.6899,9.6899,9.6899,9.689,9.688,9.688,9.6909,9.687,9.6841,9.6532,9.6067,9.5623,9.5158,9.4578,9.3766,9.3534,9.3418,9.2915,9.2257,9.1793,9.218,9.1058,8.9936,9.013,8.9274,8.8646,8.9296,8.9721,9.0025,9.013,9.0075,9.0335,9.1311,9.1038,9.0882,9.135,9.1741,9.1975,9.1975,9.1897,9.1663,9.1311,9.0843,9.0218,8.932,8.8891,8.8461,8.7993,8.7603,8.7407,8.7407,8.7407,8.7407,8.7407,8.7407,8.7407,8.7407,8.7407,8.7407,6.6288,7.2187,7.7969,8.3008,8.6172,8.8945,9.2422,9.3398,9.3867,0.0,0.0,0.0,0.0,0.0,0.0,0.0,0.0,0.0,0.0,0.0,0.0,0.0,0.0,0.0,0.0,0.0,0.0,0.0,0.0,9.7092,9.6822,9.6899,9.6899,9.6783,9.6783,9.6783,9.6783,9.6783,9.6783,9.6783,9.6783,9.6783,9.6783,9.6783,9.6783,9.6783,9.6783,9.6783,9.6783,9.6783,9.6783,9.6783,9.6783,9.6783,9.6783,9.6783,9.6783,9.6783,9.6783,9.6667,9.6474,9.6474,9.5893,9.512,9.4926,9.4423,9.3727,9.2915,9.2683,9.2528,9.187,9.1716,9.1716,9.1716,9.1213,9.071,9.04,9.0149,8.9962,8.9998,9.0351,9.0781,9.1244,9.0959,9.1096,9.2411,9.2053,9.1858,9.2404,9.2482,9.2404,9.2209,9.1663,9.1116,9.0687,9.0023,8.9281,8.8422,8.8383,8.8071,8.7446,8.7407,8.7407,8.7407,8.7407,8.7407,8.7407,8.7407,8.7407,8.7407,8.7407,8.7407,6.5742,6.7851,7.0976,8.0156,8.2578,8.4219,9.0117,9.207,9.3164,0.0,0.0,0.0,0.0,0.0,0.0,0.0,0.0,0.0,0.0,0.0,0.0,0.0,0.0,0.0,0.0,0.0,0.0,0.0,0.0,9.6938,9.6822,9.6822,9.6822,9.6783,9.6783,9.6783,9.6783,9.6783,9.6783,9.6783,9.6783,9.6783,9.6783,9.6783,9.6783,9.6783,9.6783,9.6783,9.6783,9.6783,9.6783,9.6783,9.6783,9.6783,9.6783,9.6783,9.6783,9.6783,9.6783,9.6241,9.5584,9.5584,9.4965,9.4114,9.3379,9.3108,9.2876,9.2025,9.1754,9.1754,9.1716,9.1716,9.1716,9.1716,9.1754,9.1406,8.9991,9.0353,9.082,9.0117,9.1328,9.2226,9.1445,9.1953,9.2496,9.2574,9.2561,9.2522,9.2482,9.2482,9.2209,9.1428,9.1311,9.0648,8.8969,8.8774,8.8383,8.7525,8.7486,8.7446,8.7407,8.7407,8.7407,8.7407,8.7407,8.7407,8.7407,8.7407,8.7407,8.7407,8.7407,8.7407,6.2148,6.539,6.9414,7.4414,7.7383,8.0156,8.4531,8.789,9.0429,0.0,0.0,0.0,0.0,0.0,0.0,0.0,0.0,0.0,0.0,0.0,0.0,0.0,0.0,0.0,0.0,0.0,0.0,0.0,0.0,0.0,9.6783,9.6783,9.6783,9.6783,9.6783,9.6783,9.6783,9.6783,9.6783,9.6783,9.6783,9.6783,9.6783,9.6783,9.6783,9.6783,9.6783,9.6783,9.6783,9.6783,9.6783,9.6783,9.6783,9.6783,9.6783,9.6783,9.6783,9.6706,9.6164,9.5739,9.539,9.4849,9.4114,9.3379,9.3108,9.2605,9.2102,9.1793,9.1716,9.1716,9.1716,9.1716,9.1716,9.1793,9.187,9.1793,9.1473,9.1229,9.1236,9.1596,9.2187,9.25,9.2187,9.2383,9.2617,9.2611,9.259,9.26,9.2561,9.2092,9.1624,9.1311,9.0296,8.9398,8.8735,8.8188,8.772,8.7407,8.7407,8.7407,8.7407,8.7407,8.7407,8.7407,8.7407,8.7407,8.7407,8.7407,8.7407,8.7407,8.7407,8.7095,5.9922,6.293,6.6797,6.9922,7.289,7.6015,7.9726,8.4375,8.8086,0.0,0.0,0.0,0.0,0.0,0.0,0.0,0.0,0.0,0.0,0.0,0.0,0.0,0.0,0.0,0.0,0.0,0.0,0.0,0.0,0.0,9.6783,9.6783,9.6783,9.6783,9.6783,9.6783,9.6783,9.6783,9.6783,9.6783,9.6783,9.6783,9.6783,9.6783,9.6783,9.6783,9.6783,9.6783,9.6783,9.6783,9.6783,9.6783,9.6783,9.6783,9.6744,9.6474,9.6358,9.6241,9.5352,9.4888,9.4578,9.3998,9.3224,9.2567,9.2567,9.218,9.1716,9.1716,9.1716,9.1716,9.1716,9.1716,9.1793,9.1948,9.2025,9.2141,9.2412,9.1976,9.1756,9.2447,9.2617,9.2617,9.2617,9.2617,9.2617,9.2617,9.2333,9.2144,9.217,9.1389,9.0765,9.0452,8.9398,8.8579,8.8305,8.772,8.7407,8.7407,8.7407,8.7407,8.7407,8.7407,8.7407,8.7407,8.7407,8.7407,8.7407,8.7407,8.7407,8.7407,8.7095,8.6353,0.0,0.0,0.0,6.6992,6.9258,7.164,7.6055,8.1601,8.6094,0.0,0.0,0.0,0.0,0.0,0.0,0.0,0.0,0.0,0.0,0.0,0.0,0.0,0.0,0.0,0.0,0.0,0.0,0.0,0.0,9.6783,9.6783,9.6783,9.6783,9.6783,9.6783,9.6783,9.6783,9.6783,9.6783,9.6783,9.6783,9.6783,9.6783,9.6783,9.6783,9.6783,9.6783,9.6783,9.6783,9.6783,9.6783,9.6783,9.6783,9.6783,9.6667,9.5816,9.5468,9.5352,9.4462,9.365,9.2992,9.2992,9.2412,9.1716,9.1716,9.1716,9.1716,9.1716,9.1716,9.1716,9.1716,9.1793,9.1948,9.2064,9.2257,9.244,9.2584,9.2506,9.2416,9.2564,9.2617,9.2617,9.2617,9.2617,9.2578,9.2578,9.1832,9.131,9.1279,9.0492,8.9633,8.8774,8.8696,8.8305,8.7486,8.7407,8.7407,8.7407,8.7407,8.7407,8.7407,8.7407,8.7407,8.7407,8.7407,8.7407,8.7368,8.7368,8.7368,8.7329,8.6431,8.5104,5.9414,0.0,0.0,0.0,0.0,0.0,0.0,0.0,7.8828,0.0,0.0,0.0,0.0,0.0,0.0,0.0,0.0,0.0,0.0,0.0,0.0,0.0,0.0,0.0,0.0,0.0,0.0,0.0,9.6783,9.6783,9.6783,9.6783,9.6783,9.6783,9.6783,9.6783,9.6783,9.6783,9.6783,9.6783,9.6783,9.6783,9.6783,9.6783,9.6783,9.6783,9.6783,9.6783,9.6783,9.6783,9.6783,9.6783,9.6783,9.6396,9.5816,9.5584,9.5081,9.4423,9.3611,9.3186,9.2915,9.2257,9.1909,9.1716,9.1716,9.1716,9.1716,9.1716,9.1716,9.1716,9.1832,9.187,9.1948,9.2257,9.2335,9.2455,9.2568,9.2585,9.2574,9.2577,9.2617,9.2617,9.2617,9.2617,9.2383,9.1758,9.1445,9.1088,9.042,8.9594,8.8969,8.8735,8.8149,8.7642,8.7407,8.7407,8.7407,8.7407,8.7407,8.7407,8.7407,8.7407,8.7407,8.7407,8.7407,8.7095,8.6471,8.6471,8.6471,8.6431,8.4909,8.3865,5.9922,6.0664,6.1836,6.2344,0.0,0.0,6.7422,7.0547,0.0,0.0,0.0,0.0,0.0,0.0,0.0,0.0,0.0,0.0,0.0,0.0,0.0,0.0,0.0,0.0,0.0,0.0,0.0,9.6822,9.6783,9.6783,9.6783,9.6783,9.6783,9.6783,9.6783,9.6783,9.6783,9.6783,9.6783,9.6783,9.6783,9.6783,9.6783,9.6783,9.6783,9.6783,9.6783,9.6783,9.6783,9.6396,9.6474,9.6744,9.6396,9.5932,9.5429,9.4694,9.4153,9.3572,9.276,9.2451,9.2373,9.187,9.1716,9.1716,9.1716,9.1716,9.1716,9.1716,9.1716,9.1716,9.187,9.1941,9.2037,9.2313,9.2455,9.2497,9.2572,9.2617,9.2617,9.2617,9.2617,9.2461,9.2109,9.207,9.1758,9.0898,9.0469,9.0038,8.9517,8.8714,8.8149,8.8149,8.772,8.7407,8.7407,8.7407,8.7407,8.7407,8.7407,8.7407,8.7407,8.7407,8.7212,8.6861,8.6861,8.6236,8.5026,8.5768,8.5729,8.4987,8.3904,8.3147,6.0625,6.1015,6.1719,6.1719,6.2265,0.0,6.3398,6.7342,7.2181,0.0,0.0,0.0,0.0,0.0,0.0,0.0,0.0,0.0,0.0,0.0,0.0,0.0,0.0,0.0,0.0,9.6512,9.6551,9.6667,9.6744,9.6783,9.6783,9.6783,9.6783,9.6783,9.6783,9.6783,9.6783,9.6783,9.6783,9.6783,9.6783,9.6783,9.6783,9.6783,9.6783,9.6783,9.6783,9.6744,9.659,9.5932,9.6048,9.6551,9.57,9.5313,9.5042,9.3534,9.2953,9.276,9.1986,9.1716,9.1716,9.1716,9.1716,9.1716,9.1716,9.1716,9.1716,9.1716,9.1716,9.1754,9.1909,9.2028,9.2165,9.2387,9.2522,9.2578,9.2461,9.2461,9.2422,9.2344,9.2383,9.2187,9.1328,9.1172,9.0859,9.0,8.9219,8.8672,8.8554,8.7873,8.7407,8.7407,8.7407,8.7407,8.7407,8.7407,8.7407,8.7407,8.7407,8.7407,8.7407,8.7329,8.69,8.6119,8.5924,8.5065,8.3504,8.5065,8.4941,8.3334,8.3137,8.2676,6.0547,6.1015,6.1719,6.1719,6.1836,0.0,6.6367,6.5917,6.6897,0.0,0.0,0.0,0.0,0.0,0.0,0.0,0.0,0.0,0.0,0.0,0.0,0.0,0.0,0.0,0.0,0.0,9.5013,9.5709,9.6396,9.6783,9.6783,9.6783,9.6783,9.6783,9.6783,9.6783,9.6783,9.6783,9.6783,9.6783,9.6783,9.6783,9.6783,9.6783,9.6783,9.6783,9.6783,9.6396,9.5777,9.6319,9.6241,9.5661,9.4772,9.4075,9.3456,9.3108,9.2567,9.1948,9.1754,9.1716,9.1716,9.1716,9.1716,9.1716,9.1716,9.1716,9.1716,9.1832,9.187,9.1909,9.2218,9.2301,9.2377,9.2529,9.257,9.2422,9.1719,9.1562,9.1367,9.0625,9.1054,9.1289,9.039,9.0234,8.9961,8.9062,8.8828,8.8437,8.7734,8.7492,8.7397,8.7407,8.7407,8.7407,8.7407,8.7407,8.7407,8.7407,8.7407,8.7407,8.7407,8.6744,8.6275,8.608,8.4714,8.3855,8.3504,8.3855,8.3436,8.2296,8.2233,8.1975,6.0971,6.125,6.164,6.164,6.168,0.0,0.0,6.3906,6.4734,7.1097,0.0,0.0,0.0,0.0,0.0,0.0,0.0,0.0,0.0,0.0,0.0,0.0,0.0,0.0,0.0,0.0,9.5042,9.5477,9.5477,9.567,9.6125,9.6164,9.6358,9.6783,9.6783,9.6783,9.6783,9.6783,9.6783,9.6783,9.6783,9.6783,9.6783,9.6783,9.6783,9.6783,9.6783,9.6551,9.6164,9.6164,9.5623,9.481,9.4346,9.3727,9.2953,9.2528,9.2064,9.1716,9.1716,9.1716,9.1716,9.1716,9.1716,9.1716,9.1793,9.1832,9.1909,9.1986,9.2004,9.2066,9.234,9.2373,9.2309,9.2009,9.1953,9.1719,9.0859,9.0664,9.039,8.9531,8.9687,8.9844,8.9414,8.9336,8.9062,8.8242,8.8086,8.7929,8.75,8.7421,8.7411,8.7414,8.7407,8.7407,8.7407,8.7407,8.7407,8.7407,8.6978,8.6744,8.6744,8.5924,8.526,8.4792,8.3543,8.2918,8.2918,8.2803,8.2474,8.1987,8.1787,8.1579,6.1609,6.1619,6.1548,6.1562,6.1601,6.164,0.0,0.0,0.0,0.0,0.0,0.0,0.0,0.0,0.0,0.0,0.0,0.0,0.0,0.0,0.0,0.0,0.0,0.0,0.0,0.0,9.5187,9.5042,9.4665,9.4665,9.5236,9.54,9.5825,9.6551,9.6706,9.6783,9.6783,9.6783,9.6783,9.6783,9.6783,9.6783,9.6783,9.6783,9.6783,9.6783,9.6783,9.6706,9.6512,9.5971,9.5042,9.3959,9.3959,9.3456,9.2683,9.1948,9.1716,9.1716,9.1716,9.1754,9.1754,9.1754,9.1793,9.1821,9.1928,9.1993,9.2083,9.213,9.2044,9.1953,9.2127,9.206,9.1782,9.1197,9.1054,9.082,8.9922,8.9765,8.9492,8.8633,8.8476,8.8476,8.8476,8.8476,8.8242,8.7617,8.75,8.75,8.75,8.7422,8.7418,8.7381,8.7407,8.7329,8.7173,8.7134,8.7095,8.69,8.6236,8.5846,8.5846,8.5026,8.4167,8.3308,8.2645,8.2287,8.2234,8.205,8.1948,8.1948,8.1558,8.1362,6.2444,6.1956,6.1419,6.1431,6.1445,6.1445,0.0,0.0,6.1914,6.2422,0.0,0.0,0.0,0.0,0.0,0.0,0.0,0.0,0.0,0.0,0.0,0.0,0.0,0.0,0.0,0.0,0.0,9.3369,9.4568,9.5061,9.4375,9.5081,9.5554,9.5632,9.6396,9.6783,9.6783,9.6783,9.6783,9.6783,9.6783,9.6783,9.6783,9.6783,9.6783,9.6783,9.6783,9.6358,9.57,9.6358,9.5274,9.3147,9.3147,9.2605,9.1832,9.1754,9.1716,9.1716,9.1832,9.187,9.1909,9.2025,9.2064,9.2057,9.2091,9.2113,9.2165,9.2341,9.181,9.1222,9.1382,9.0849,9.0265,9.0156,9.0156,8.9922,8.9023,8.8867,8.8594,8.7773,8.7656,8.7656,8.7656,8.7656,8.7617,8.75,8.75,8.75,8.75,8.7422,8.7382,8.7408,8.7387,8.7095,8.6314,8.6236,8.5924,8.5143,8.4987,8.4948,8.4948,8.4128,8.3269,8.245,8.2332,8.2218,8.2011,8.182,8.1735,8.1717,8.1491,8.1296,6.5644,6.5973,6.564,6.5154,6.5083,0.0,6.2024,0.0,6.1523,0.0,0.0,0.0,0.0,0.0,0.0,0.0,0.0,0.0,0.0,0.0,0.0,0.0,0.0,0.0,0.0,0.0,0.0,0.0,0.0,9.0605,9.1251,9.3495,9.4965,9.5477,9.6358,9.6783,9.6783,9.6783,9.6783,9.6783,9.628,9.6319,9.6783,9.628,9.6319,9.6783,9.6783,9.6628,9.6396,9.6783,9.5777,9.3969,9.3998,9.3108,9.1832,9.1909,9.1909,9.1948,9.1986,9.2004,9.2054,9.2093,9.182,9.1511,9.1533,9.1208,9.0889,9.0958,9.0741,9.0472,9.0541,9.0273,8.9883,8.9375,8.9258,8.9023,8.8164,8.8008,8.789,8.7578,8.75,8.75,8.75,8.75,8.75,8.75,8.75,8.75,8.75,8.7461,8.7265,8.6708,8.6645,8.6275,8.5416,8.5338,8.5182,8.4831,8.4323,8.3855,8.3386,8.2996,8.2645,8.2293,8.2293,8.2218,8.1987,8.1787,8.164,8.1514,8.1323,8.1176,7.0254,7.0059,6.9224,0.0,0.0,0.0,0.0,0.0,0.0,0.0,0.0,0.0,0.0,0.0,6.2539,6.2226,0.0,6.3224,0.0,0.0,0.0,0.0,0.0,0.0,0.0,0.0,0.0,0.0,0.0,0.0,8.8411,9.1251,9.3456,9.4781,9.5632,9.6087,9.6087,9.6319,9.6435,9.6435,9.6048,9.6203,9.6783,9.6203,9.628,9.686,9.6899,9.6976,9.7083,9.7069,9.6114,9.4693,9.4751,9.365,9.2053,9.2096,9.2106,9.212,9.2158,9.2034,9.1837,9.1603,9.1194,9.0809,9.0809,9.0412,9.0,9.0,8.9844,8.9648,8.9648,8.9492,8.914,8.8515,8.8359,8.8203,8.7617,8.75,8.75,8.75,8.7695,8.7773,8.7539,8.75,8.75,8.75,8.75,8.75,8.75,8.75,8.7226,8.6518,8.622,8.5768,8.487,8.4597,8.4362,8.4128,8.3504,8.2918,8.2332,8.2293,8.2293,8.2293,8.2234,8.2133,8.1934,8.1717,8.1491,8.1323,8.1176,8.1093,0.0,0.0,0.0,7.3073,0.0,0.0,0.0,0.0,6.131,0.0,0.0,0.0,0.0,6.164,6.1367,6.0508,6.1015,0.0,0.0,0.0,0.0,0.0,0.0,0.0,0.0,0.0,0.0,0.0,0.0,0.0,8.6605,8.8411,9.0499,9.2982,9.3862,9.4287,9.4287,9.5129,9.5516,9.5554,9.6396,9.6783,9.6783,9.6899,9.6976,9.6976,9.7209,9.7286,9.7306,9.7285,9.6273,9.4707,9.4848,9.3853,9.2379,9.2187,9.2104,9.2137,9.2289,9.1942,9.1171,9.0351,9.0038,9.0038,9.0038,9.0039,9.0,9.0,8.9375,8.875,8.875,8.8164,8.7578,8.7539,8.7539,8.7539,8.75,8.75,8.75,8.75,8.8125,8.8398,8.7617,8.75,8.75,8.75,8.75,8.75,8.75,8.75,8.7461,8.7383,8.6585,8.5729,8.487,8.4011,8.3191,8.245,8.2332,8.2332,8.2293,8.2293,8.2293,8.2293,8.2094,8.192,8.1698,8.153,8.1296,8.1124,8.1093,8.1093,0.0,0.0,7.8554,7.8867,0.0,0.0,0.0,0.0,0.0,0.0,0.0,0.0,0.0,6.3008,6.2097,6.4099,6.2717,6.1278,0.0,0.0,0.0,0.0,0.0,0.0,0.0,0.0,0.0,0.0,0.0,0.0,0.0,8.6776,8.9764,9.2915,9.3766,9.4191,9.4191,9.5187,9.569,9.5709,9.6087,9.659,9.7092,9.659,9.6657,9.7188,9.7266,9.7324,9.7432,9.7432,9.6836,9.5891,9.5959,9.4888,9.3323,9.2685,9.2083,9.1492,9.0976,9.0633,9.039,9.0117,8.9609,8.9258,8.9844,8.9609,8.9258,8.9844,8.9375,8.8711,8.8711,8.8515,8.8281,8.8281,8.8711,8.8984,8.8437,8.875,8.8828,8.7734,8.8164,8.8437,8.7656,8.75,8.75,8.75,8.75,8.75,8.75,8.75,8.7265,8.6674,8.6315,8.5752,8.4876,8.4011,8.3386,8.3113,8.2606,8.2293,8.2293,8.2162,8.2084,8.2084,8.192,8.1698,8.1491,8.1437,8.1026,8.0246,8.0246,8.0246,8.6384,8.5523,0.0,8.4204,8.0111,0.0,7.3741,0.0,6.6922,0.0,0.0,0.0,0.0,6.4076,6.2102,6.4286,6.2819,6.135,0.0,6.1195,0.0,0.0,0.0,0.0,0.0,0.0,0.0,0.0,0.0,0.0,0.0,0.0,8.7919,9.1948,9.2904,9.3291,9.3291,9.4674,9.5325,9.534,9.6079,9.676,9.7266,9.676,9.6857,9.7363,9.7409,9.7513,9.7577,9.7577,9.6974,9.6061,9.6031,9.497,9.3367,9.2829,9.2031,9.1172,9.0312,9.0195,9.039,9.0117,8.9609,8.9258,8.9844,8.9609,8.9297,8.9844,8.9609,8.914,8.914,8.914,8.914,8.914,8.9336,8.9375,8.8828,8.8906,8.8789,8.7695,8.8164,8.8437,8.7656,8.7734,8.7812,8.7539,8.75,8.75,8.75,8.75,8.7265,8.6708,8.6315,8.5761,8.4876,8.4284,8.3972,8.3972,8.3465,8.3022,8.2639,8.2502,8.2273,8.1905,8.1698,8.1398,8.0923,8.086,8.0337,7.9361,7.9669,7.9631]},{"header":{"parameterUnit":"m.s-1","parameterCategory":1,"la1":30.6,"la2":29.2853,"lo1":-89.7004,"lo2":-87.6739,"dx":0.0162,"dy":0.0183,"nx":112,"ny":82,"refTime":"2022-11-09T06:00:00:Z","depth":0,"parameterNumber":3,"parameterNumberName":"V-component_of_WINDS"},"data":[0.0,0.0,0.0,0.0,0.0,0.0,0.0,0.0,0.0,0.0,0.0,0.0,0.0,0.0,0.0,0.0,0.0,0.0,0.0,0.0,0.0,0.0,0.0,0.0,0.0,0.0,0.0,0.0,0.0,0.0,0.0,0.0,0.0,0.0,0.0,0.0,0.0,0.0,0.0,0.0,0.0,0.0,0.0,0.0,0.0,0.0,0.0,0.0,0.0,0.0,0.0,0.0,0.0,0.0,0.0,0.0,0.0,0.0,0.0,0.0,0.0,0.0,0.0,0.0,0.0,0.0,0.0,0.0,0.0,0.0,0.0,0.0,0.0,0.0,0.0,0.0,0.0,0.0,0.0,0.0,0.0,0.0,0.0,0.0,0.0,0.0,0.0,0.0,0.0,0.0,-0.4229,-0.4416,-0.4845,-0.5006,-0.4967,-0.4899,-0.5489,-0.6869,0.0,0.0,0.0,0.0,0.0,0.0,0.0,0.0,0.0,0.0,0.0,0.0,0.0,0.0,0.0,0.0,0.0,0.0,0.0,0.0,0.0,0.0,0.0,0.0,0.0,0.0,0.0,0.0,0.0,0.0,0.0,0.0,0.0,0.0,0.0,0.0,0.0,0.0,0.0,0.0,0.0,0.0,0.0,0.0,0.0,0.0,0.0,0.0,0.0,0.0,0.0,0.0,0.0,0.0,0.0,0.0,0.0,0.0,0.0,0.0,0.0,0.0,0.0,0.0,0.0,0.0,0.0,0.0,0.0,0.0,0.0,0.0,0.0,0.0,0.0,0.0,0.0,0.0,0.0,0.0,0.0,0.0,0.0,0.0,0.0,0.0,0.0,0.0,0.0,0.0,0.0,0.0,0.0,0.0,0.0,0.0,0.0,0.0,0.0,0.0,0.0,0.0,0.0,0.0,-0.3878,-0.4497,-0.4863,-0.5038,-0.5082,-0.4986,-0.5128,-0.5949,0.0,0.0,0.0,0.0,0.0,0.0,0.0,0.0,0.0,0.0,0.0,0.0,0.0,0.0,0.0,0.0,0.0,0.0,0.0,0.0,0.0,0.0,0.0,0.0,0.0,0.0,0.0,0.0,0.0,0.0,0.0,0.0,0.0,0.0,0.0,0.0,0.0,0.0,0.0,0.0,0.0,0.0,0.0,0.0,0.0,0.0,0.0,0.0,0.0,0.0,0.0,0.0,0.0,0.0,0.0,0.0,0.0,0.0,0.0,0.0,0.0,0.0,0.0,0.0,0.0,0.0,0.0,0.0,0.0,0.0,0.0,0.0,0.0,0.0,0.0,0.0,0.0,0.0,0.0,0.0,0.0,0.0,0.0,0.0,0.0,0.0,0.0,0.0,0.0,0.0,0.0,0.0,0.0,0.0,0.0,0.0,0.0,0.0,0.0,0.0,0.0,0.0,0.0,-0.3739,-0.4338,-0.4436,-0.4798,-0.5131,-0.5158,-0.5052,-0.5194,-0.5777,-0.658,0.0,0.0,0.0,0.0,0.0,0.0,0.0,0.0,0.0,0.0,0.0,0.0,0.0,0.0,0.0,0.0,0.0,0.0,0.0,0.0,0.0,0.0,0.0,0.0,0.0,0.0,0.0,0.0,0.0,0.0,0.0,0.0,0.0,0.0,0.0,0.0,0.0,0.0,0.0,0.0,0.0,0.0,0.0,0.0,0.0,0.0,0.0,0.0,0.0,0.0,0.0,0.0,0.0,0.0,0.0,0.0,0.0,0.0,0.0,0.0,0.0,0.0,0.0,0.0,0.0,0.0,0.0,0.0,0.0,0.0,0.0,0.0,0.0,0.0,0.0,0.0,0.0,0.0,0.0,0.0,0.0,0.0,0.0,0.0,0.0,0.0,0.0,0.0,0.0,0.0,0.0,0.0,0.0,0.0,0.0,0.0,0.0,0.0,0.0,0.0,0.0,0.0,-0.3982,-0.456,-0.4312,-0.4854,-0.5207,-0.5224,-0.506,-0.504,-0.5436,-0.6332,0.0,0.0,0.0,0.0,0.0,0.0,0.0,0.0,0.0,0.0,0.0,0.0,0.0,0.0,0.0,0.0,0.0,0.0,0.0,0.0,0.0,0.0,0.0,0.0,0.0,0.0,0.0,0.0,0.0,0.0,0.0,0.0,0.0,0.0,0.0,0.0,0.0,0.0,0.0,0.0,0.0,0.0,0.0,0.0,0.0,0.0,0.0,0.0,0.0,0.0,0.0,0.0,0.0,0.0,0.0,0.0,0.0,0.0,0.0,0.0,0.0,0.0,0.0,0.0,0.0,0.0,0.0,0.0,0.0,0.0,0.0,0.0,0.0,0.0,0.0,0.0,0.0,0.0,0.0,0.0,0.0,0.0,0.0,0.0,0.0,0.0,0.0,0.0,0.0,0.0,0.0,0.0,0.0,0.0,0.0,0.0,0.0,0.0,0.0,0.0,0.0,0.0,-0.372,-0.4314,-0.4057,-0.4712,-0.5226,-0.5283,-0.4973,-0.4613,-0.4372,-0.5049,0.0,0.0,0.0,0.0,0.0,0.0,0.0,0.0,0.0,0.0,0.0,0.0,0.0,0.0,0.0,0.0,0.0,0.0,0.0,0.0,0.0,0.0,0.0,0.0,0.0,0.0,0.0,0.0,0.0,0.0,0.0,0.0,0.0,0.0,0.0,0.0,0.0,0.0,0.0,0.0,0.0,0.0,0.0,0.0,0.0,0.0,0.0,0.0,0.0,0.0,0.0,0.0,0.0,0.0,0.0,0.0,0.0,0.0,0.0,0.0,0.0,0.0,0.0,0.0,0.0,0.0,0.0,0.0,0.0,0.0,0.0,0.0,0.0,0.0,0.0,0.0,0.0,0.0,0.0,0.0,0.0,0.0,0.0,0.0,0.0,0.0,0.0,0.0,0.0,0.0,0.0,0.0,0.0,0.0,0.0,0.0,0.0,0.0,0.0,0.0,0.0,0.0,-0.3529,-0.4243,0.0,-0.4828,-0.5365,-0.5352,-0.5191,-0.4872,-0.4362,0.0,0.0,0.0,0.0,0.0,0.0,0.0,0.0,0.0,0.0,0.0,0.0,0.0,0.0,0.0,0.0,0.0,0.0,0.0,0.0,0.0,0.0,0.0,0.0,0.0,0.0,0.0,0.0,0.0,0.0,0.0,0.0,0.0,0.0,0.0,0.0,0.0,0.0,0.0,0.0,0.0,0.0,0.0,0.0,0.0,0.0,0.0,0.0,0.0,0.0,0.0,0.0,0.0,0.0,0.0,0.0,0.0,0.0,0.0,0.0,0.0,0.0,0.0,0.0,0.0,0.0,0.0,0.0,0.0,0.0,0.0,0.0,0.0,0.0,0.0,0.0,0.0,0.0,0.0,0.0,0.0,0.0,0.0,0.0,0.0,0.0,0.0,0.0,0.0,0.0,0.0,0.0,0.0,0.0,0.0,0.0,0.0,0.0,0.0,0.0,0.0,0.0,-0.2178,-0.325,-0.3942,0.0,-0.4712,-0.5259,-0.5387,-0.524,-0.4937,-0.4431,0.0,0.0,0.0,0.0,0.0,0.0,0.0,0.0,0.0,0.0,0.0,0.0,0.0,0.0,0.0,0.0,0.0,0.0,0.0,0.0,0.0,0.0,0.0,0.0,0.0,0.0,0.0,0.0,0.0,0.0,0.0,0.0,0.0,0.0,0.0,0.0,0.0,0.0,0.0,0.0,0.0,0.0,0.0,0.0,0.0,0.0,0.0,0.0,0.0,0.0,0.0,0.0,0.0,0.0,0.0,0.0,0.0,0.0,0.0,0.0,0.0,0.0,0.0,0.0,0.0,0.0,0.0,0.0,0.0,0.0,0.0,0.0,0.0,0.0,0.0,0.0,0.0,0.0,0.0,0.0,0.0,0.0,0.0,0.0,0.0,0.0,0.0,0.0,0.0,0.0,0.0,0.0,0.0,0.0,0.0,0.0,0.0,0.0,0.0,0.0,0.0,0.0,-0.2192,-0.2893,-0.3431,-0.3968,-0.4345,-0.4878,-0.5384,-0.5057,-0.4722,0.0,0.0,0.0,0.0,0.0,0.0,0.0,0.0,0.0,0.0,0.0,0.0,0.0,0.0,0.0,0.0,0.0,0.0,0.0,0.0,0.0,0.0,0.0,0.0,0.0,0.0,0.0,0.0,0.0,0.0,0.0,0.0,0.0,0.0,0.0,0.0,0.0,0.0,0.0,0.0,0.0,0.0,0.0,0.0,0.0,0.0,0.0,0.0,0.0,0.0,0.0,0.0,0.0,0.0,0.0,0.0,0.0,0.0,0.0,0.0,0.0,0.0,0.0,0.0,0.0,0.0,0.0,0.0,0.0,0.0,0.0,0.0,0.0,0.0,0.0,0.0,0.0,0.0,0.0,0.0,0.0,0.0,0.0,0.0,0.0,0.0,0.0,0.0,0.0,0.0,0.0,0.0,0.0,0.0,0.0,0.0,0.0,0.0,0.0,0.0,0.0,0.0,0.0,-0.2223,-0.2776,-0.3307,-0.3514,-0.4058,-0.4411,-0.488,-0.4789,-0.4709,-0.4551,0.0,0.0,0.0,0.0,0.0,0.0,0.0,0.0,0.0,0.0,0.0,0.0,0.0,0.0,0.0,0.0,0.0,0.0,0.0,0.0,0.0,0.0,0.0,0.0,0.0,0.0,0.0,0.0,0.0,0.0,0.0,0.0,0.0,0.0,0.0,0.0,0.0,0.0,0.0,0.0,0.0,0.0,0.0,0.0,0.0,0.0,0.0,0.0,0.0,0.0,0.0,0.0,0.0,0.0,0.0,0.0,0.0,0.0,0.0,0.0,0.0,0.0,0.0,0.0,0.0,0.0,0.0,0.0,0.0,0.0,0.0,0.0,0.0,0.0,0.0,0.0,0.0,0.0,0.0,0.0,0.0,0.0,0.0,0.0,0.0,0.0,0.0,0.0,0.0,0.0,0.0,0.0,0.0,0.0,0.0,0.0,0.0,0.0,0.0,0.0,0.0,0.0,-0.2255,-0.2643,-0.3158,-0.3362,-0.3724,-0.4066,-0.4712,-0.4691,-0.4673,-0.4711,0.0,0.0,0.0,0.0,0.0,0.0,0.0,0.0,0.0,0.0,0.0,0.0,0.0,0.0,0.0,0.0,0.0,0.0,0.0,0.0,0.0,0.0,0.0,0.0,0.0,0.0,0.0,0.0,0.0,0.0,0.0,0.0,0.0,0.0,0.0,0.0,0.0,0.0,0.0,0.0,0.0,0.0,0.0,0.0,0.0,0.0,0.0,0.0,0.0,0.0,0.0,0.0,0.0,0.0,0.0,0.0,0.0,0.0,0.0,0.0,0.0,0.0,0.0,0.0,0.0,0.0,0.0,0.0,0.0,0.0,0.0,0.0,0.0,0.0,0.0,0.0,0.0,0.0,0.0,0.0,0.0,0.0,0.0,0.0,0.0,0.0,0.0,0.0,0.0,0.0,0.0,0.0,0.0,0.0,0.0,0.0,0.0,0.0,0.0,0.0,0.0,0.0,-0.2283,-0.2502,-0.2829,-0.3363,-0.3367,-0.3701,-0.4542,-0.4498,-0.4529,-0.4728,0.0,0.0,0.0,0.0,0.0,0.0,0.0,0.0,0.0,0.0,0.0,0.0,0.0,0.0,0.0,0.0,0.0,0.0,0.0,0.0,0.0,0.0,0.0,0.0,0.0,0.0,0.0,0.0,0.0,0.0,0.0,0.0,0.0,0.0,0.0,0.0,0.0,0.0,0.0,0.0,0.0,0.0,0.0,0.0,0.0,0.0,0.0,0.0,0.0,0.0,0.0,0.0,0.0,0.0,0.0,0.0,0.0,0.0,0.0,0.0,-0.2014,0.0,0.0,0.0,0.0,0.0,0.0,0.0,0.0,0.0,0.0,0.0,0.0,0.0,0.0,0.0,0.0,0.0,0.0,0.0,0.0,0.0,0.0,0.0,0.0,0.0,0.0,0.0,0.0,0.0,0.0,0.0,0.0,0.0,0.0,0.0,0.0,0.0,0.0,0.0,0.0,0.0,-0.2286,-0.2521,-0.2686,-0.2861,-0.2861,-0.3029,-0.3701,-0.4027,-0.427,-0.4534,-0.4731,0.0,0.0,0.0,0.0,0.0,0.0,0.0,0.0,0.0,0.0,0.0,0.0,0.0,0.0,0.0,0.0,0.0,0.0,0.0,0.0,0.0,0.0,0.0,0.0,0.0,0.0,0.0,0.0,0.0,0.0,0.0,0.0,0.0,0.0,0.0,0.0,0.0,0.0,0.0,0.0,0.0,0.0,0.0,0.0,0.0,0.0,0.0,0.0,0.0,0.0,0.0,0.0,0.0,0.0,0.0,0.0,0.0,0.0,0.0,0.0,-0.1996,0.0,0.0,0.0,0.0,0.0,0.0,0.0,0.0,0.0,0.0,0.0,0.0,0.0,0.0,0.0,0.0,0.0,0.0,0.0,0.0,0.0,0.0,0.0,0.0,0.0,0.0,0.0,0.0,0.0,0.0,0.0,0.0,0.0,0.0,0.0,0.0,0.0,0.0,0.0,0.0,-0.2387,-0.2571,-0.2692,-0.2692,-0.2692,-0.3029,-0.3701,-0.3868,-0.4318,-0.4841,-0.4886,0.0,0.0,0.0,0.0,0.0,0.0,0.0,0.0,0.0,0.0,0.0,0.0,0.0,0.0,0.0,0.0,0.0,0.0,0.0,0.0,0.0,0.0,0.0,0.0,0.0,0.0,0.0,0.0,0.0,0.0,0.0,0.0,0.0,0.0,0.0,0.0,0.0,0.0,0.0,0.0,0.0,0.0,0.0,0.0,0.0,0.0,0.0,0.0,0.0,0.0,0.0,0.0,0.0,-0.2195,-0.2208,-0.2233,-0.2233,-0.2247,-0.2264,-0.2168,-0.218,-0.2253,0.0,0.0,0.0,0.0,0.0,0.0,0.0,0.0,0.0,0.0,0.0,0.0,0.0,0.0,0.0,0.0,0.0,0.0,0.0,0.0,0.0,0.0,0.0,0.0,0.0,-0.2345,-0.2485,0.0,0.0,0.0,0.0,0.0,0.0,0.0,0.0,0.0,0.0,0.0,0.0,-0.2497,-0.2619,-0.2692,-0.2692,-0.2698,-0.3035,-0.3701,-0.3868,-0.4352,-0.4967,-0.4981,-0.5003,0.0,0.0,0.0,0.0,0.0,0.0,0.0,0.0,0.0,0.0,0.0,0.0,0.0,0.0,0.0,0.0,0.0,0.0,0.0,0.0,0.0,0.0,0.0,0.0,0.0,0.0,0.0,0.0,0.0,0.0,0.0,0.0,-0.1795,-0.1952,0.0,0.0,0.0,0.0,0.0,0.0,0.0,0.0,0.0,0.0,0.0,0.0,0.0,-0.2166,-0.2348,-0.2341,-0.2403,-0.2537,-0.2537,-0.2538,-0.2542,-0.2542,-0.2545,-0.2542,-0.2427,0.0,-0.236,-0.2354,0.0,0.0,0.0,0.0,0.0,0.0,0.0,0.0,0.0,0.0,0.0,0.0,0.0,0.0,0.0,0.0,0.0,0.0,0.0,0.0,0.0,0.0,-0.251,-0.2547,-0.256,-0.256,0.0,-0.2494,-0.2185,-0.2196,-0.2198,0.0,0.0,0.0,0.0,0.0,0.0,0.0,-0.2508,-0.2619,-0.2692,-0.2692,-0.2716,-0.2721,-0.2862,-0.3535,-0.4019,-0.414,-0.4732,-0.5147,-0.5079,-0.4913,0.0,0.0,0.0,0.0,0.0,0.0,0.0,0.0,0.0,0.0,0.0,0.0,0.0,0.0,0.0,0.0,0.0,0.0,0.0,0.0,0.0,0.0,0.0,0.0,0.0,0.0,0.0,0.0,0.0,-0.1778,-0.1921,-0.2106,-0.2038,-0.1974,0.0,0.0,0.0,0.0,0.0,0.0,0.0,0.0,0.0,-0.2281,-0.2286,-0.2356,-0.2503,-0.2504,-0.2537,-0.2601,-0.2601,-0.2601,-0.2601,-0.2601,-0.2611,-0.2624,-0.2572,-0.2551,-0.2548,-0.2459,-0.2416,-0.2394,0.0,0.0,0.0,0.0,-0.2158,-0.2151,-0.2192,-0.2275,0.0,-0.2288,0.0,0.0,0.0,0.0,0.0,0.0,0.0,0.0,0.0,0.0,0.0,-0.2583,-0.2601,-0.2607,-0.2623,-0.2534,-0.2431,0.0,-0.2346,-0.2322,-0.2248,0.0,0.0,0.0,0.0,-0.2523,-0.2604,-0.2675,-0.2718,-0.2718,-0.2746,-0.2923,-0.3061,-0.3737,-0.4046,-0.4305,-0.4938,-0.521,-0.5115,-0.5036,-0.4894,0.0,0.0,0.0,0.0,0.0,0.0,0.0,0.0,0.0,0.0,0.0,0.0,0.0,0.0,0.0,0.0,0.0,0.0,0.0,0.0,0.0,0.0,0.0,0.0,0.0,0.0,0.0,0.0,-0.1896,-0.2026,-0.2222,-0.2147,-0.209,0.0,0.0,0.0,0.0,0.0,0.0,-0.2253,-0.2258,-0.2322,-0.2465,-0.2469,-0.2515,-0.2612,-0.2613,-0.2617,-0.2626,-0.2626,-0.2626,-0.2626,-0.2626,-0.2637,-0.2658,-0.2658,-0.2672,-0.2682,-0.2548,-0.2492,-0.2489,-0.2459,-0.2393,-0.2315,-0.2315,-0.2309,-0.2307,-0.2338,-0.2401,-0.2469,-0.2469,0.0,-0.2463,-0.2433,0.0,0.0,0.0,0.0,-0.2335,-0.2424,-0.2469,-0.2515,-0.2604,-0.2626,-0.2631,-0.2654,-0.2658,-0.2626,0.0,-0.2492,-0.247,-0.2402,0.0,0.0,0.0,0.0,-0.2594,-0.2691,-0.2724,-0.2737,-0.2737,-0.2765,-0.294,-0.3242,-0.3748,-0.4223,-0.447,-0.4949,-0.5229,-0.5139,-0.512,-0.5027,-0.485,0.0,0.0,0.0,0.0,0.0,0.0,0.0,0.0,0.0,0.0,0.0,0.0,0.0,0.0,0.0,0.0,0.0,0.0,0.0,0.0,0.0,0.0,0.0,0.0,0.0,0.0,0.0,0.0,0.0,-0.2226,-0.2312,0.0,0.0,0.0,0.0,-0.2192,-0.2219,-0.2289,-0.2406,-0.2413,-0.2467,-0.2589,-0.2593,-0.2609,-0.2645,-0.2645,-0.266,-0.2688,-0.2688,-0.2688,-0.2688,-0.2688,-0.2688,-0.269,-0.269,-0.2691,-0.2691,-0.2683,-0.2679,-0.2668,-0.2555,-0.2506,-0.25,-0.25,-0.2482,-0.2474,-0.2587,-0.2612,-0.2593,-0.2593,-0.2593,-0.2571,-0.2458,-0.244,0.0,0.0,-0.239,-0.2502,-0.2508,-0.2594,-0.268,-0.2687,-0.2688,-0.2688,-0.269,-0.269,-0.2688,0.0,-0.2679,-0.2652,-0.2563,0.0,-0.2646,-0.2571,-0.263,-0.2697,-0.2731,-0.2736,-0.2737,-0.2737,-0.2765,-0.2759,-0.2699,-0.3537,-0.4023,-0.3974,-0.4749,-0.5204,-0.5199,-0.5142,-0.5106,-0.5093,-0.4864,0.0,0.0,0.0,0.0,0.0,0.0,0.0,0.0,0.0,0.0,0.0,0.0,0.0,0.0,0.0,0.0,0.0,0.0,0.0,0.0,0.0,0.0,0.0,0.0,0.0,0.0,0.0,0.0,-0.2255,-0.2301,0.0,-0.2345,-0.2356,-0.2357,-0.2345,-0.2425,-0.2502,-0.2564,-0.2567,-0.2596,-0.2658,-0.266,-0.2665,-0.2676,-0.2676,-0.2682,-0.2692,-0.2692,-0.2692,-0.2692,-0.2692,-0.2682,-0.2662,-0.2662,-0.2652,-0.2634,-0.2634,-0.2657,-0.2688,-0.2646,-0.2628,-0.2628,-0.2628,-0.2622,-0.2619,-0.2661,-0.2669,-0.266,-0.266,-0.266,-0.2649,-0.2586,-0.2589,-0.26,-0.2537,-0.2572,-0.2628,-0.2628,-0.2661,-0.2692,-0.2692,-0.2692,-0.2692,-0.2692,-0.2692,-0.2692,-0.2692,-0.2692,-0.2683,-0.265,-0.2687,-0.2712,-0.2679,-0.2702,-0.2732,-0.2763,-0.2767,-0.2774,-0.2793,-0.2823,-0.2816,-0.2757,-0.361,-0.4081,-0.3978,-0.4779,-0.5226,-0.5147,-0.5123,-0.5076,-0.5,-0.4951,-0.479,0.0,0.0,0.0,0.0,0.0,0.0,0.0,0.0,0.0,0.0,0.0,0.0,0.0,0.0,0.0,0.0,0.0,0.0,0.0,0.0,0.0,0.0,0.0,0.0,0.0,0.0,-0.2169,-0.2289,-0.2341,-0.2386,-0.2435,-0.2458,-0.2477,-0.2497,-0.2582,-0.2641,-0.2661,-0.2662,-0.2672,-0.2691,-0.2692,-0.2692,-0.2692,-0.2692,-0.2692,-0.2692,-0.2703,-0.2702,-0.2692,-0.2703,-0.2691,-0.2662,-0.2662,-0.265,-0.2632,-0.2632,-0.2656,-0.269,-0.2669,-0.2661,-0.2662,-0.2673,-0.2677,-0.2679,-0.2688,-0.2692,-0.2692,-0.2692,-0.2692,-0.2688,-0.2668,-0.2676,-0.2688,-0.2668,-0.2676,-0.2692,-0.2692,-0.2692,-0.2692,-0.2692,-0.2692,-0.2692,-0.2692,-0.2701,-0.2707,-0.2707,-0.2699,-0.269,-0.2679,-0.2694,-0.2703,-0.2694,-0.2691,-0.2703,-0.2733,-0.2755,-0.2776,-0.2796,-0.2825,-0.2823,-0.2772,-0.3607,-0.4072,-0.3999,-0.4789,-0.5237,-0.5175,-0.5115,-0.5044,-0.4967,-0.4924,-0.4804,-0.4605,0.0,0.0,0.0,0.0,0.0,0.0,0.0,0.0,0.0,0.0,0.0,0.0,0.0,0.0,0.0,0.0,0.0,0.0,0.0,0.0,0.0,0.0,0.0,-0.2143,-0.2211,-0.2271,-0.2331,-0.2444,-0.2529,-0.2559,-0.2613,-0.2647,-0.2649,-0.2676,-0.2692,-0.2692,-0.2692,-0.2692,-0.2692,-0.2694,-0.2694,-0.2694,-0.2695,-0.2695,-0.2695,-0.2724,-0.2722,-0.2695,-0.2724,-0.2721,-0.2692,-0.2694,-0.2694,-0.2692,-0.2692,-0.2692,-0.2687,-0.2627,-0.2604,-0.2608,-0.2638,-0.2649,-0.2653,-0.2683,-0.2692,-0.2692,-0.2692,-0.2692,-0.2692,-0.2692,-0.2692,-0.2692,-0.2692,-0.2692,-0.2692,-0.2692,-0.2692,-0.2692,-0.2694,-0.2694,-0.2694,-0.2695,-0.2718,-0.2739,-0.2739,-0.2716,-0.2686,-0.2657,-0.2652,-0.2643,-0.2613,-0.2608,0.0,-0.265,-0.2705,-0.274,-0.2739,-0.2769,-0.2774,-0.274,-0.3526,-0.3999,-0.4036,-0.4781,-0.5237,-0.5292,-0.512,-0.5022,-0.5019,-0.4788,-0.4725,-0.4842,0.0,0.0,0.0,0.0,0.0,0.0,0.0,0.0,0.0,0.0,0.0,0.0,0.0,0.0,0.0,0.0,0.0,0.0,0.0,0.0,0.0,0.0,-0.2238,-0.2252,-0.2304,-0.2372,-0.2455,-0.2532,-0.259,-0.262,-0.2638,-0.2656,-0.2679,-0.2687,-0.2692,-0.2692,-0.2692,-0.2692,-0.2692,-0.2714,-0.2725,-0.2725,-0.2747,-0.2758,-0.2758,-0.2744,-0.2733,-0.2725,-0.2733,-0.2721,-0.2694,-0.2716,-0.2713,-0.2692,-0.2692,-0.2692,-0.2691,-0.2673,-0.2668,-0.2668,-0.2676,-0.268,-0.2682,-0.269,-0.2692,-0.2692,-0.2692,-0.2692,-0.2692,-0.2692,-0.2692,-0.2692,-0.2692,-0.2692,-0.2692,-0.2692,-0.2692,-0.2698,-0.272,-0.2725,-0.2732,-0.2754,-0.2765,-0.277,-0.277,-0.2763,-0.2755,-0.2747,-0.2763,-0.2776,-0.2767,-0.2766,0.0,-0.2807,-0.2807,-0.2795,-0.2773,-0.2836,-0.2841,-0.2746,-0.3651,-0.4179,-0.4091,-0.491,-0.5368,-0.5297,-0.5161,-0.5046,-0.4962,-0.4809,-0.5188,0.0,0.0,0.0,0.0,0.0,0.0,0.0,0.0,0.0,0.0,0.0,0.0,0.0,0.0,0.0,0.0,0.0,0.0,0.0,0.0,0.0,0.0,-0.2275,-0.2345,-0.2379,-0.2414,-0.2455,-0.2508,-0.2556,-0.2596,-0.2626,-0.2639,-0.266,-0.269,-0.2692,-0.2692,-0.2692,-0.2705,-0.2712,-0.2712,-0.2729,-0.2744,-0.2757,-0.2762,-0.277,-0.2784,-0.2778,-0.2769,-0.2758,-0.277,-0.2759,0.0,-0.2748,-0.2747,-0.2731,-0.2731,-0.2731,0.0,0.0,0.0,0.0,0.0,-0.2692,-0.2692,-0.2692,-0.2692,-0.2692,-0.2692,-0.2692,-0.2692,-0.2692,-0.2701,-0.2712,-0.2712,-0.2721,-0.2731,-0.2731,-0.2731,-0.2735,-0.2752,-0.2757,-0.2762,-0.278,-0.2793,-0.2801,-0.2801,-0.2812,0.0,-0.2822,-0.2804,-0.2787,-0.2773,-0.2772,-0.2778,-0.2796,-0.2804,-0.2803,-0.2785,-0.2841,-0.2851,-0.2782,-0.3501,0.0,0.0,0.0,-0.5214,-0.5262,-0.5164,0.0,0.0,0.0,0.0,0.0,0.0,0.0,0.0,-0.5883,-0.6019,0.0,0.0,0.0,0.0,0.0,0.0,0.0,0.0,0.0,0.0,0.0,0.0,0.0,0.0,0.0,0.0,-0.23,-0.2395,-0.25,-0.2517,-0.2519,-0.2519,-0.2547,-0.2574,-0.26,-0.263,-0.2658,-0.2686,-0.269,-0.2692,-0.2692,0.0,0.0,0.0,0.0,-0.2761,-0.2788,-0.2765,-0.2767,-0.2793,-0.2818,-0.2814,-0.2789,-0.2816,-0.2814,-0.2788,-0.2792,-0.2793,-0.2793,-0.2793,-0.2793,-0.2788,-0.2727,-0.2702,-0.2702,-0.2702,-0.2702,-0.2702,-0.2702,0.0,0.0,-0.2702,-0.2702,-0.2702,-0.2702,-0.2721,-0.2743,-0.2743,-0.2762,-0.2784,-0.2784,-0.2784,-0.2784,-0.2788,-0.2788,-0.2789,-0.2792,-0.2815,-0.2834,-0.2834,-0.2856,-0.2875,-0.2878,-0.281,-0.2746,-0.2721,-0.2717,-0.2718,-0.2722,-0.277,-0.28,-0.2789,0.0,0.0,-0.2825,-0.3132,-0.3632,-0.4177,-0.4436,-0.4841,-0.5226,-0.5158,-0.5041,-0.4869,-0.4812,-0.4837,-0.4937,-0.4951,-0.5011,-0.5104,-0.5903,-0.6365,0.0,0.0,0.0,0.0,0.0,0.0,0.0,0.0,0.0,0.0,0.0,0.0,0.0,0.0,0.0,-0.2372,-0.2457,-0.2515,-0.2514,-0.2536,-0.2551,-0.2551,-0.2577,-0.2596,-0.2601,-0.263,-0.2649,-0.2656,-0.2679,-0.2692,-0.2692,-0.2721,-0.2737,-0.2737,-0.2785,-0.2814,-0.2819,-0.2838,-0.2851,-0.2856,0.0,0.0,-0.2819,-0.2826,-0.2826,-0.2821,-0.2845,-0.2856,-0.2856,-0.2856,-0.2856,-0.2851,-0.2789,-0.2766,-0.2766,-0.2766,-0.2766,-0.2766,-0.2766,-0.2766,-0.2766,-0.2766,-0.2766,-0.2766,-0.2766,-0.277,0.0,-0.2774,-0.2778,-0.2784,-0.2784,-0.2784,-0.2789,-0.2814,-0.2819,-0.2826,-0.2852,-0.2861,-0.2866,-0.2866,-0.287,-0.2882,-0.2904,-0.2874,-0.2853,-0.287,-0.2872,-0.2882,-0.2906,-0.292,-0.29,-0.2827,-0.2889,-0.2897,-0.28,-0.3204,-0.358,-0.3701,-0.4314,-0.4915,-0.5352,-0.5243,-0.5123,-0.4989,-0.4976,-0.4959,-0.4937,-0.5033,-0.509,-0.5109,-0.5341,-0.5292,0.0,0.0,0.0,0.0,0.0,0.0,0.0,0.0,0.0,0.0,0.0,-0.2268,0.0,0.0,-0.2401,-0.2401,-0.2477,-0.2532,-0.2517,-0.2541,-0.2555,-0.2538,-0.2563,-0.2586,-0.26,-0.263,-0.266,-0.269,-0.2706,-0.2721,-0.2737,-0.2767,-0.2784,-0.2784,-0.2812,-0.2836,-0.2852,-0.2852,-0.2859,-0.2874,-0.2859,-0.2852,-0.2852,-0.2852,-0.2852,-0.2852,-0.2852,-0.2852,-0.2851,-0.2834,-0.2838,-0.2848,-0.2818,-0.2806,-0.2806,-0.2806,-0.2796,-0.2784,-0.2784,-0.2784,-0.2784,-0.2784,-0.2784,-0.2784,-0.2784,-0.2793,-0.2806,-0.2806,-0.2816,-0.2829,-0.2829,-0.2829,-0.2833,-0.2848,-0.2852,-0.2856,-0.2871,-0.2874,-0.2878,-0.2891,-0.2896,-0.2904,-0.2934,-0.2927,-0.2923,-0.2936,-0.2939,-0.2945,-0.296,-0.2961,-0.2939,-0.2878,-0.2912,-0.2909,-0.2834,-0.3227,-0.3593,-0.3889,-0.4546,-0.5019,-0.5474,-0.5387,-0.5281,-0.5161,-0.5128,-0.5082,-0.5025,-0.5082,-0.5128,-0.5158,-0.5158,-0.5125,0.0,0.0,0.0,0.0,0.0,0.0,0.0,-0.2948,-0.3404,-0.2459,-0.2348,-0.236,-0.2328,-0.2397,-0.245,-0.2425,-0.2478,-0.2525,-0.253,-0.2552,-0.2562,-0.2542,-0.2556,-0.2579,-0.2608,-0.2638,-0.2679,-0.2733,-0.2743,-0.2758,-0.2782,-0.2812,-0.2829,-0.2829,-0.2834,-0.2849,-0.2874,-0.2849,-0.2849,-0.2874,-0.2874,-0.2874,-0.2874,-0.2879,-0.2879,-0.2872,-0.2848,-0.2837,-0.2836,-0.2811,-0.2815,-0.2837,-0.2837,-0.2837,-0.2837,-0.2837,-0.2818,-0.2792,-0.2792,-0.2788,-0.2784,-0.2791,-0.2792,-0.2793,-0.2799,-0.2818,-0.2837,-0.2837,-0.2855,-0.2874,-0.2874,-0.2874,-0.2874,-0.2874,-0.2874,-0.2875,-0.2881,-0.2882,-0.289,-0.2919,-0.2924,-0.2934,-0.2965,-0.2971,-0.2971,-0.2971,-0.2971,-0.2972,-0.2979,-0.2979,-0.2965,-0.2928,-0.2924,-0.2911,-0.2876,-0.3411,-0.3755,-0.4254,-0.46,-0.5103,-0.5578,-0.5512,-0.5422,-0.5313,-0.5251,-0.5191,-0.5128,-0.5142,-0.5172,-0.5221,-0.5221,-0.5188,-0.1913,-0.1945,-0.2018,-0.203,-0.2261,-0.2384,0.0,-0.2572,-0.2658,-0.2585,-0.2627,-0.2638,-0.2608,-0.259,-0.2581,-0.2577,-0.2564,-0.2563,-0.2589,-0.2594,-0.2605,-0.263,-0.2612,-0.2609,-0.2639,-0.2669,-0.2702,-0.2735,-0.2763,-0.278,-0.2782,-0.2812,-0.2829,-0.2829,-0.2855,-0.2871,-0.2874,-0.2871,-0.2871,-0.2874,-0.2874,-0.2874,-0.2875,-0.29,-0.2898,-0.2874,-0.2871,-0.2868,-0.2868,-0.2866,-0.2866,-0.2868,-0.2868,-0.2868,-0.2868,-0.2868,-0.2849,-0.2823,-0.2823,-0.2806,-0.2788,-0.2815,-0.2823,-0.2829,-0.2856,-0.2867,-0.2868,-0.2868,-0.2871,-0.2874,-0.2874,-0.2874,-0.2874,-0.2874,-0.2874,-0.2881,-0.2905,-0.2912,-0.292,-0.295,-0.2956,-0.2966,-0.2996,-0.3002,-0.3002,-0.3002,-0.3002,-0.3011,-0.3039,-0.3041,-0.302,-0.2962,-0.2956,-0.2934,-0.2879,-0.3411,-0.3768,-0.4301,-0.4617,-0.512,-0.564,-0.5534,-0.5444,-0.5376,-0.5313,-0.5254,-0.5194,-0.5245,-0.5278,-0.5283,-0.5283,-0.5251,-0.2068,-0.2069,-0.2109,-0.2267,-0.2328,-0.2378,-0.2484,-0.2537,-0.2581,-0.2635,-0.2671,-0.2677,-0.263,-0.2624,-0.2622,0.0,-0.2592,-0.2589,-0.26,-0.2632,-0.266,-0.2672,-0.2694,-0.2705,-0.2701,-0.2728,-0.2758,-0.2788,-0.2803,-0.2818,-0.2836,-0.2848,-0.2855,-0.2855,-0.2867,-0.2874,-0.2874,-0.289,-0.2898,-0.2898,-0.2916,-0.2924,-0.2926,-0.2936,-0.2927,-0.2898,-0.2898,-0.2889,-0.2874,-0.2874,-0.2883,-0.2898,-0.2898,-0.2909,-0.2921,-0.2886,-0.2866,-0.2855,-0.2855,-0.2846,-0.2838,-0.2851,-0.2855,-0.2857,-0.287,-0.2874,-0.2874,-0.2874,-0.2874,-0.2874,-0.2874,-0.2886,-0.2898,-0.2898,-0.2912,-0.2928,-0.2939,-0.2942,-0.2951,-0.2981,-0.2988,-0.2998,-0.3028,-0.3033,-0.3033,-0.3033,-0.3033,-0.3037,-0.3051,-0.3052,-0.3029,-0.2968,-0.2946,-0.2919,-0.2878,-0.3053,-0.359,-0.4307,-0.447,-0.4813,-0.5703,-0.5621,-0.5531,-0.5439,-0.5412,-0.5352,-0.5256,-0.5316,-0.5346,-0.5346,-0.5346,-0.5333,-0.2564,-0.2451,-0.2223,-0.2446,-0.2493,-0.2506,-0.2583,-0.2615,-0.2631,-0.2645,-0.2671,-0.2676,-0.2624,-0.2632,-0.2639,-0.2617,-0.2615,-0.262,-0.2637,-0.2677,-0.2712,-0.2728,-0.2769,-0.2791,-0.2777,-0.2788,-0.2808,-0.2838,-0.2833,-0.2838,-0.286,-0.2853,-0.2853,-0.2861,-0.2861,-0.287,-0.2886,-0.2905,-0.292,-0.2928,-0.2951,-0.2961,-0.2961,-0.2961,-0.2954,-0.2941,-0.2923,-0.2909,-0.2897,-0.2889,-0.2902,-0.2928,-0.2928,-0.2942,-0.2956,-0.2913,-0.2893,-0.2886,-0.2886,-0.2881,-0.2875,-0.2883,-0.2886,-0.2887,-0.2896,-0.2898,-0.2898,-0.2898,-0.2898,-0.2898,-0.2898,-0.2913,-0.2928,-0.2928,-0.2945,-0.2964,-0.2972,-0.2973,-0.2983,-0.3013,-0.302,-0.3026,-0.3048,-0.3052,-0.3052,-0.3052,-0.3052,-0.3052,-0.3052,-0.3044,-0.3022,-0.2979,-0.2946,-0.292,-0.29,-0.3071,-0.3427,-0.4326,-0.4493,-0.4845,-0.5741,-0.5698,-0.5627,-0.5526,-0.5507,-0.5455,-0.5368,-0.5395,-0.5409,-0.5409,-0.5409,-0.5401,-0.3711,-0.3215,-0.2349,-0.2446,-0.2556,-0.2634,-0.2608,-0.2647,-0.2682,-0.2653,-0.2671,-0.2683,-0.2652,-0.2646,-0.2646,-0.2646,-0.2646,-0.2667,-0.2725,-0.2735,-0.2758,-0.2818,-0.2826,-0.2838,0.0,-0.2844,-0.284,-0.287,-0.2845,-0.2829,-0.283,-0.2801,-0.28,-0.2829,-0.283,-0.2857,-0.2915,-0.2916,-0.2931,-0.296,-0.2961,-0.2961,-0.2961,-0.2961,-0.2977,-0.3001,-0.2942,-0.2932,-0.2957,-0.2927,-0.2932,-0.296,-0.296,-0.2961,-0.2961,-0.296,-0.2941,-0.2915,-0.2915,-0.2897,-0.2879,-0.2905,-0.2915,-0.292,-0.295,-0.2958,-0.2958,-0.2958,-0.2958,-0.2958,-0.2958,-0.296,-0.296,-0.296,-0.2961,-0.2969,-0.2999,-0.3005,-0.3014,-0.3044,-0.3051,-0.3051,-0.3052,-0.3052,-0.3052,-0.3052,-0.3052,-0.3052,-0.3052,-0.3026,-0.3007,-0.3006,-0.2979,-0.296,-0.2958,-0.3299,-0.3827,-0.4373,-0.469,-0.5201,-0.5741,-0.5739,-0.5709,-0.5646,-0.5586,-0.5556,-0.5551,-0.5499,-0.5472,-0.5472,-0.5472,-0.5442,-0.3465,-0.2707,-0.247,-0.254,-0.2602,-0.2645,-0.2634,-0.2647,-0.266,-0.2649,-0.2671,-0.269,-0.2679,-0.2677,-0.2684,-0.2703,-0.2707,-0.2714,-0.2735,-0.2773,-0.2806,-0.2826,-0.2846,0.0,0.0,0.0,0.0,-0.2874,-0.2845,-0.2837,-0.2857,-0.283,-0.2836,-0.2885,-0.2886,-0.2905,-0.2946,-0.2966,-0.2981,-0.2991,-0.3011,-0.3022,-0.3022,-0.3022,-0.3016,-0.3006,-0.2986,-0.2971,-0.2961,-0.295,-0.2953,-0.2961,-0.2961,-0.2973,-0.2991,-0.2991,-0.2998,-0.3001,-0.296,-0.2941,-0.2934,-0.2943,-0.2946,-0.2947,-0.2958,-0.2961,-0.2961,-0.2961,-0.2961,-0.2961,-0.2961,-0.2976,-0.2991,-0.2991,-0.3007,-0.3025,-0.3035,-0.3037,-0.304,-0.305,-0.3052,-0.3052,-0.3052,-0.3052,-0.3059,-0.308,-0.3082,-0.3082,-0.3082,-0.3073,-0.3059,-0.3039,-0.301,-0.2983,-0.2964,-0.3136,-0.3488,-0.4379,-0.4542,-0.488,-0.5744,-0.5741,-0.5711,-0.5651,-0.563,-0.56,-0.5559,-0.554,-0.5531,-0.5531,-0.5531,-0.5521,-0.3641,-0.282,-0.2547,-0.2616,-0.2649,-0.2662,-0.2662,-0.2662,-0.2662,-0.2662,-0.2679,-0.2697,-0.2706,-0.2699,-0.2706,-0.2747,-0.2744,-0.2746,-0.2767,-0.2804,-0.2833,-0.2844,-0.2861,-0.2874,0.0,0.0,0.0,-0.2889,-0.2852,-0.2846,-0.2887,-0.2851,-0.2856,-0.2915,-0.2916,-0.2936,-0.2977,-0.2996,-0.3013,-0.3024,-0.3043,-0.3047,-0.3036,-0.3036,-0.3025,-0.3006,-0.2995,-0.2992,-0.2992,-0.2981,-0.2984,-0.2994,-0.2994,-0.3006,-0.3022,-0.3022,-0.3036,-0.3047,-0.3007,-0.2994,-0.2994,-0.2994,-0.2994,-0.2994,-0.2994,-0.2994,-0.2994,-0.2994,-0.2994,-0.2994,-0.2994,-0.3009,-0.3022,-0.3022,-0.3037,-0.3052,-0.3052,-0.3052,-0.3052,-0.3052,-0.3052,-0.3052,-0.3052,-0.3061,-0.3074,-0.3095,-0.3116,-0.3126,-0.3115,-0.3114,-0.3101,-0.3071,-0.3051,-0.3026,-0.2996,-0.2984,-0.334,-0.4424,-0.4393,-0.4726,-0.5774,-0.5752,-0.5722,-0.5684,-0.5662,-0.563,-0.5591,-0.557,-0.5548,-0.5529,-0.5551,-0.5548,-0.4019,-0.3499,-0.2589,-0.2676,-0.2697,-0.2697,-0.2695,-0.2691,-0.2687,-0.2686,-0.2682,-0.2688,-0.272,-0.2705,-0.2707,-0.2766,-0.2758,-0.2762,-0.2818,-0.2829,-0.2841,0.0,-0.2875,-0.2876,0.0,0.0,0.0,-0.292,0.0,-0.2857,-0.2915,-0.2864,-0.286,-0.2919,-0.292,-0.2949,-0.3009,-0.3009,-0.3024,-0.3052,-0.3052,-0.3037,-0.3009,-0.3009,-0.3009,-0.3005,-0.2976,-0.2995,-0.3046,-0.3016,-0.3021,-0.3048,-0.3048,-0.3048,-0.305,-0.305,-0.3051,-0.3052,-0.3052,-0.3052,-0.3052,-0.3052,-0.3052,-0.3052,-0.3052,-0.3052,-0.3052,-0.3052,-0.3052,-0.3052,-0.3052,-0.3052,-0.3052,-0.3052,-0.3052,-0.3052,-0.3052,-0.3052,-0.3052,-0.3052,-0.3052,-0.3052,-0.3054,-0.3078,-0.3099,-0.3101,-0.3152,-0.3178,-0.3149,-0.3145,-0.3134,-0.3106,-0.3099,-0.3086,-0.3056,-0.3026,-0.3383,-0.432,-0.4426,-0.4744,-0.5655,-0.5774,-0.5741,-0.5747,-0.5684,-0.5651,-0.5651,-0.5589,-0.5531,-0.548,-0.5537,-0.5534,-0.3295,-0.2853,-0.2703,-0.2748,-0.2761,-0.2754,-0.2732,-0.2673,-0.2619,-0.2598,-0.254,-0.2508,-0.2562,-0.2601,-0.2637,-0.2676,-0.2751,-0.2803,-0.2796,-0.2834,-0.2866,-0.2872,-0.2893,-0.2905,-0.2905,-0.2932,0.0,0.0,-0.2928,-0.2911,-0.2947,-0.2915,-0.2921,-0.2981,-0.2984,-0.3002,-0.304,-0.304,-0.3044,-0.3052,-0.3052,-0.3048,-0.304,-0.304,-0.3028,-0.3006,-0.2999,-0.2991,-0.2984,-0.2976,-0.2977,-0.2984,-0.2984,-0.2998,-0.3018,-0.3018,-0.3032,-0.3052,-0.3052,-0.3052,-0.3052,-0.3052,-0.3052,-0.3052,-0.3052,-0.3052,-0.3052,-0.3052,-0.3052,-0.3052,-0.3052,-0.3052,-0.3052,-0.3052,-0.3052,-0.3052,-0.3052,-0.3052,-0.3052,-0.3052,-0.3052,-0.3059,-0.3082,-0.3092,-0.3112,-0.3159,-0.3179,-0.3186,-0.3178,-0.3176,-0.3174,-0.3165,-0.3125,-0.3095,-0.3086,-0.3058,-0.322,-0.3948,-0.4271,-0.461,-0.5345,-0.5615,-0.5763,-0.5807,-0.5703,-0.5651,-0.5651,-0.5589,-0.5551,-0.554,-0.56,-0.5594,-0.289,-0.2758,-0.2762,-0.278,-0.2784,-0.2765,-0.2694,-0.2638,-0.2582,-0.2514,-0.2459,-0.245,-0.2537,-0.2579,-0.263,-0.2713,-0.2784,-0.2827,-0.2823,-0.2852,-0.2874,-0.2874,-0.2898,-0.2916,-0.2916,-0.2956,-0.2988,0.0,-0.2962,-0.2956,-0.2999,-0.2972,-0.2977,-0.3025,-0.3026,-0.3035,-0.3052,-0.3066,-0.3071,-0.3073,-0.3085,-0.3085,-0.3071,-0.3071,-0.3063,-0.3047,0.0,-0.3044,-0.3041,-0.3041,-0.3033,-0.3021,-0.3021,-0.3032,-0.3044,-0.3032,-0.3046,-0.307,-0.3056,-0.3052,-0.3052,-0.3052,-0.3052,-0.3052,-0.3052,-0.3052,-0.3052,-0.3052,-0.3052,-0.3052,-0.3052,-0.3052,-0.3052,-0.3052,-0.3052,-0.3052,-0.3052,-0.3052,-0.3052,-0.3052,-0.3052,-0.3062,-0.3092,-0.3108,-0.3133,-0.3182,-0.3198,-0.3206,-0.3206,-0.3206,-0.3202,-0.319,-0.3145,-0.3112,-0.3099,-0.307,-0.3236,-0.3786,-0.4123,-0.4657,-0.5215,-0.548,-0.5796,-0.5831,-0.5739,-0.5662,-0.561,-0.5575,-0.5531,-0.5485,-0.557,-0.5591,-0.2758,-0.2789,-0.2791,-0.2795,-0.2796,-0.2762,-0.2637,-0.2598,-0.2555,-0.2431,-0.2397,-0.2424,-0.2544,-0.257,-0.2619,-0.2763,-0.2793,-0.2811,-0.2845,-0.2853,-0.2861,-0.2878,-0.2905,-0.2924,-0.2927,-0.298,-0.3013,-0.3013,-0.2988,-0.2996,-0.305,-0.3026,-0.3026,-0.3056,-0.3058,-0.3061,-0.3065,-0.3091,-0.3103,-0.3104,-0.313,-0.3129,-0.3103,-0.3103,-0.3103,-0.3103,0.0,0.0,-0.3142,-0.3142,-0.3127,-0.3103,-0.3103,-0.3103,-0.31,-0.3074,-0.3081,-0.31,-0.3073,-0.3065,-0.3063,-0.3055,-0.3055,-0.3058,-0.3058,-0.3058,-0.3059,-0.3063,-0.3061,-0.3059,-0.3063,-0.3065,-0.3065,-0.3065,-0.3065,-0.3063,-0.3059,-0.3055,-0.3052,-0.3052,-0.3055,-0.3067,-0.3099,-0.3129,-0.3159,-0.3189,-0.3215,-0.323,-0.323,-0.323,-0.3221,-0.3197,-0.3167,-0.3137,-0.3107,-0.3076,-0.3247,-0.3626,-0.4157,-0.4698,-0.5082,-0.5539,-0.566,-0.5845,-0.5785,-0.5689,-0.5559,-0.5559,-0.5504,-0.5398,-0.5507,-0.5559,-0.2801,-0.2821,-0.2827,-0.2852,-0.2859,-0.2819,-0.2672,-0.2582,-0.2488,-0.2343,-0.2253,-0.2237,-0.2357,-0.2399,-0.245,-0.2552,-0.2609,-0.266,-0.2716,-0.2746,-0.2799,-0.2897,-0.2935,-0.2964,-0.2988,-0.3024,0.0,0.0,0.0,-0.3041,-0.3051,-0.3047,-0.3058,-0.3089,-0.3089,-0.3101,-0.3127,-0.3133,-0.3134,-0.3135,-0.3141,-0.314,-0.3134,-0.3134,-0.3134,-0.3134,-0.3134,0.0,-0.3142,-0.3142,-0.314,-0.3134,-0.3134,-0.3134,-0.3134,-0.3129,-0.313,-0.3134,-0.3129,-0.3127,-0.3119,-0.3069,-0.3069,-0.3089,-0.3089,-0.3089,-0.3095,-0.312,-0.311,-0.3096,-0.312,-0.3127,-0.3127,-0.3127,-0.3127,-0.312,-0.3095,-0.307,-0.3052,-0.3052,-0.3073,-0.3099,-0.313,-0.316,-0.319,-0.3219,-0.3227,-0.323,-0.323,-0.323,-0.3228,-0.3224,-0.3197,-0.3168,-0.3138,-0.3107,-0.308,-0.3244,-0.359,-0.4149,-0.4753,-0.5036,-0.5536,-0.5907,-0.5848,-0.573,-0.5559,-0.5559,-0.5526,-0.5461,-0.5529,-0.5559,-0.2763,-0.2804,-0.2856,-0.2871,-0.2861,-0.2803,-0.2619,-0.2533,-0.2439,-0.2258,-0.2185,-0.2187,-0.2292,-0.2348,-0.2408,-0.2499,-0.2604,-0.2683,-0.2712,-0.277,-0.2836,-0.2908,-0.2943,-0.2973,-0.3003,-0.3035,-0.3052,-0.3052,0.0,-0.3052,-0.3052,-0.3067,-0.3082,-0.3097,-0.3112,-0.3129,-0.3142,-0.3159,-0.3167,-0.3167,-0.3182,-0.3189,-0.3189,-0.3189,-0.3189,-0.3189,-0.3189,0.0,-0.3189,-0.3189,-0.3179,-0.3167,-0.3167,-0.3167,-0.3164,-0.3149,-0.3153,-0.3164,-0.3148,-0.3142,-0.3138,-0.3108,-0.311,-0.3122,-0.3122,-0.3122,-0.3125,-0.3138,-0.3133,-0.3125,-0.314,-0.3142,-0.3142,-0.3142,-0.313,-0.3119,-0.312,-0.3085,-0.3056,-0.3073,-0.3088,-0.3107,-0.3138,-0.3168,-0.3198,-0.3225,-0.323,-0.323,-0.323,-0.323,-0.323,-0.323,-0.3205,-0.3176,-0.3145,-0.3115,-0.3085,-0.3054,-0.3418,-0.3986,-0.4575,-0.5075,-0.5396,-0.5924,-0.5861,-0.5758,-0.5608,-0.5575,-0.5545,-0.5521,-0.5548,-0.5575,-0.2913,-0.2977,-0.2872,-0.2866,-0.2846,-0.2772,-0.2555,-0.2487,-0.2409,-0.2198,-0.2155,-0.2183,-0.2132,-0.2323,-0.2379,-0.247,-0.2578,-0.2497,-0.2703,-0.2772,-0.2844,-0.2917,-0.2946,-0.2976,-0.3013,-0.3039,0.0,-0.3052,0.0,0.0,-0.3062,-0.3085,-0.3103,-0.3116,-0.314,-0.3156,-0.3161,-0.3185,-0.3197,-0.3197,-0.322,-0.323,-0.323,-0.323,-0.323,-0.323,-0.323,0.0,0.0,-0.323,-0.3217,-0.3197,-0.3197,-0.3197,-0.3194,-0.3171,-0.3176,-0.3194,-0.317,-0.3161,-0.3161,-0.3161,-0.3157,-0.3153,-0.3153,-0.3153,-0.3153,-0.316,-0.3157,-0.3155,-0.316,-0.3161,-0.3161,-0.3161,-0.3138,-0.3123,-0.3148,-0.311,-0.3077,-0.3095,-0.3108,-0.3123,-0.314,-0.3174,-0.3205,-0.3227,-0.323,-0.323,-0.323,-0.323,-0.323,-0.323,-0.321,-0.3182,-0.3146,-0.312,-0.3092,-0.3055,-0.3434,-0.3815,-0.4385,-0.4921,-0.5251,-0.5757,-0.5883,-0.579,-0.567,-0.5597,-0.5567,-0.5578,-0.5567,-0.56,-0.2822,-0.2866,-0.2867,-0.284,-0.283,-0.2939,-0.2843,-0.2626,-0.2409,-0.2198,-0.2155,-0.2183,-0.2132,-0.2273,-0.2288,-0.2525,-0.2379,-0.2427,-0.2592,-0.2623,-0.2712,-0.2931,-0.296,-0.2984,-0.3043,-0.3051,-0.3052,0.0,0.0,0.0,-0.3093,-0.3096,-0.3123,-0.3178,-0.3183,-0.3197,-0.3221,-0.3225,-0.3227,-0.3227,-0.3228,-0.323,-0.323,-0.323,-0.323,-0.323,-0.323,0.0,0.0,-0.323,-0.3228,-0.3227,-0.3227,-0.3227,-0.3225,-0.3223,-0.3224,-0.3225,-0.3223,-0.3223,-0.3223,-0.3223,-0.3205,-0.3185,-0.3185,-0.3185,-0.3189,-0.3215,-0.3204,-0.319,-0.3216,-0.3223,-0.3223,-0.3223,-0.3201,-0.318,-0.3183,-0.3157,-0.3127,-0.3103,-0.3142,-0.3172,-0.3146,-0.3189,-0.3227,-0.323,-0.323,-0.323,-0.323,-0.323,-0.323,-0.323,-0.3228,-0.3204,-0.3148,-0.3141,-0.3114,-0.3056,-0.3052,-0.3434,-0.3815,-0.4383,-0.4927,-0.5254,-0.5757,-0.5853,-0.5733,-0.5616,-0.5589,-0.564,-0.5586,-0.5621,-0.2827,-0.2936,-0.2867,-0.2837,-0.2829,-0.2766,-0.284,-0.2623,-0.2409,-0.2198,-0.2155,-0.2166,-0.2202,-0.2214,-0.2236,-0.2289,-0.2349,-0.229,-0.2444,-0.2677,-0.2781,-0.2966,-0.2988,-0.2991,-0.3184,0.0,-0.3086,0.0,0.0,0.0,-0.3152,-0.3152,-0.3163,-0.3187,-0.3205,-0.3219,-0.323,-0.323,-0.323,-0.323,-0.323,-0.323,-0.323,-0.323,-0.323,-0.323,-0.323,0.0,0.0,-0.323,-0.323,-0.323,-0.323,-0.323,-0.323,-0.323,-0.323,-0.323,-0.323,-0.323,-0.323,-0.323,-0.3223,-0.3213,-0.3213,-0.3213,-0.3216,-0.3227,-0.3223,-0.3216,-0.3227,-0.323,-0.323,-0.323,-0.3209,-0.3193,-0.321,-0.3176,-0.3145,-0.315,-0.3172,-0.3185,-0.3172,-0.3204,-0.323,-0.323,-0.323,-0.323,-0.323,-0.323,-0.323,-0.323,-0.323,-0.3206,-0.3148,-0.3142,-0.3116,-0.3056,-0.3052,-0.3243,-0.3817,-0.4006,-0.4365,-0.5261,-0.5426,-0.5546,-0.5796,-0.5673,-0.5646,-0.5703,-0.5605,-0.5624,-0.2892,-0.2859,-0.2822,-0.2827,-0.2801,-0.2721,-0.2831,-0.2594,-0.2367,-0.2191,-0.2155,-0.2155,-0.2155,-0.218,-0.221,-0.2241,-0.2323,-0.2293,-0.2294,-0.2702,-0.2977,-0.2961,-0.298,-0.316,-0.3147,-0.3044,0.0,0.0,0.0,0.0,0.0,-0.3201,-0.3201,-0.3201,-0.322,-0.323,-0.323,-0.323,-0.323,-0.323,-0.323,-0.323,-0.323,-0.323,-0.323,-0.323,0.0,0.0,0.0,-0.323,-0.323,-0.323,-0.323,-0.323,-0.323,-0.323,-0.323,-0.323,-0.323,-0.323,-0.323,-0.323,-0.323,-0.323,-0.323,-0.323,-0.323,-0.323,-0.323,-0.323,-0.323,-0.323,-0.323,-0.323,-0.3215,-0.3206,-0.3225,-0.3198,-0.3172,-0.3186,-0.3195,-0.3198,-0.319,-0.3212,-0.323,-0.323,-0.323,-0.323,-0.323,-0.323,-0.323,-0.323,-0.3223,-0.3197,-0.3146,-0.3134,-0.3107,-0.3055,-0.3052,-0.3243,-0.3624,-0.3815,-0.4373,-0.5096,-0.5268,-0.559,-0.5858,-0.5736,-0.5698,-0.5739,-0.5635,-0.564,-0.279,-0.2861,-0.2885,-0.2982,-0.2739,-0.2781,-0.281,-0.2526,-0.2266,-0.2174,-0.2155,-0.2155,-0.2155,-0.218,-0.221,-0.224,-0.2271,-0.2226,-0.2287,-0.2813,-0.3055,-0.3076,-0.31,-0.3111,-0.3143,-0.3234,0.0,0.0,0.0,0.0,0.0,-0.323,-0.323,-0.323,-0.323,-0.323,-0.323,-0.323,-0.323,-0.323,-0.323,-0.323,-0.323,-0.323,-0.323,0.0,0.0,0.0,0.0,-0.323,-0.323,-0.323,-0.323,-0.323,-0.323,-0.323,-0.323,-0.323,-0.323,-0.323,-0.323,-0.323,-0.323,-0.323,-0.323,-0.323,-0.323,-0.323,-0.323,-0.323,-0.323,-0.323,-0.323,-0.323,-0.323,-0.323,-0.323,-0.323,-0.3221,-0.3194,-0.321,-0.3221,-0.3193,-0.3212,-0.323,-0.323,-0.323,-0.323,-0.323,-0.323,-0.323,-0.323,-0.3205,-0.3176,-0.3145,-0.3115,-0.3085,-0.3054,-0.3052,-0.3052,-0.3052,-0.4004,-0.4575,-0.4575,-0.5475,-0.5984,-0.5921,-0.5798,-0.5741,-0.5739,-0.5679,-0.5681,-0.2425,-0.2664,-0.2894,-0.2903,-0.2891,-0.2834,-0.2528,-0.2333,-0.2145,-0.2177,-0.2155,-0.2155,-0.2155,-0.2162,-0.2185,-0.2237,-0.2253,-0.2358,-0.2308,-0.2846,-0.3115,-0.3011,-0.3021,-0.2848,0.0,0.0,0.0,0.0,0.0,0.0,0.0,-0.323,-0.323,-0.323,-0.323,-0.323,-0.323,-0.323,-0.323,-0.323,-0.323,-0.323,-0.323,-0.323,0.0,0.0,0.0,0.0,0.0,-0.323,-0.323,-0.323,-0.323,-0.323,-0.323,-0.323,-0.323,-0.323,-0.323,-0.323,-0.323,-0.323,-0.323,-0.323,-0.323,-0.323,-0.323,-0.323,-0.323,-0.323,-0.323,-0.323,-0.323,-0.323,-0.323,-0.323,-0.323,-0.323,-0.3227,-0.3219,-0.3224,-0.3227,-0.3219,-0.3224,-0.323,-0.323,-0.323,-0.323,-0.323,-0.323,-0.323,-0.323,-0.3186,-0.3153,-0.3144,-0.3115,-0.3085,-0.3054,-0.3052,-0.3052,-0.3052,-0.3434,-0.3815,-0.4006,-0.4375,-0.4723,-0.5421,-0.5312,-0.5401,-0.5679,-0.5703,-0.5722,-0.2173,-0.2388,-0.2606,-0.2635,-0.262,-0.2572,-0.2327,-0.2142,-0.2244,-0.217,-0.2155,-0.2155,-0.2155,-0.2163,-0.2203,-0.2154,-0.2293,-0.2226,-0.2321,-0.2839,-0.309,-0.3172,-0.3036,-0.2886,0.0,0.0,0.0,0.0,0.0,0.0,0.0,-0.323,-0.323,-0.323,-0.323,-0.323,-0.323,-0.323,-0.323,-0.323,-0.323,-0.323,-0.323,-0.323,0.0,0.0,0.0,0.0,0.0,-0.323,-0.323,-0.323,-0.323,-0.323,-0.323,-0.323,-0.323,-0.323,-0.323,-0.323,-0.323,-0.323,-0.323,-0.323,-0.323,-0.323,-0.323,-0.323,-0.323,-0.323,-0.323,-0.323,-0.323,-0.323,-0.323,-0.323,-0.323,-0.323,-0.323,-0.323,-0.323,-0.323,-0.323,-0.323,-0.323,-0.323,-0.323,-0.323,-0.323,-0.323,-0.3225,-0.3216,-0.3171,-0.3138,-0.3127,-0.3097,-0.3073,-0.3054,-0.3052,-0.3052,-0.3052,-0.3243,-0.3434,-0.3817,-0.4006,-0.4365,-0.4883,-0.497,-0.5238,-0.5507,-0.5544,-0.5741,0.0,-0.2174,-0.22,-0.2153,-0.2253,-0.2175,-0.2175,-0.2234,0.0,-0.2155,-0.2155,-0.2155,-0.2155,-0.2187,-0.2256,-0.2239,-0.2226,-0.2272,-0.2317,-0.2816,-0.3029,-0.3225,-0.3179,0.0,0.0,0.0,0.0,0.0,0.0,0.0,0.0,-0.323,-0.323,-0.323,-0.323,-0.323,-0.323,-0.323,-0.323,-0.323,-0.323,-0.323,-0.323,-0.323,0.0,0.0,0.0,0.0,0.0,-0.323,-0.323,-0.323,-0.323,-0.323,-0.323,-0.323,-0.323,-0.323,-0.323,-0.323,-0.323,-0.323,-0.323,-0.323,-0.323,-0.323,-0.323,-0.323,-0.323,-0.323,-0.323,-0.323,-0.323,-0.323,-0.323,-0.323,-0.323,-0.323,-0.323,-0.323,-0.323,-0.323,-0.323,-0.323,-0.323,-0.323,-0.323,-0.323,-0.323,-0.3228,-0.3217,-0.3191,-0.3159,-0.3129,-0.31,-0.307,-0.3052,-0.3052,-0.3052,-0.3052,-0.3052,-0.3434,-0.3815,-0.3815,-0.4196,-0.4551,-0.4502,-0.4786,-0.5077,-0.5022,-0.538,-0.5741,-0.2139,0.0,-0.2203,-0.2232,-0.2218,-0.2196,0.0,-0.2174,-0.2155,-0.2155,-0.2155,-0.2155,-0.2155,-0.2253,-0.218,-0.2293,-0.269,-0.2803,-0.2548,-0.257,-0.2727,-0.3188,-0.3116,-0.3191,0.0,0.0,0.0,0.0,0.0,0.0,0.0,-0.323,-0.323,-0.323,-0.323,-0.323,-0.323,-0.323,-0.323,-0.323,-0.323,-0.323,-0.323,-0.323,0.0,0.0,0.0,0.0,-0.323,-0.323,-0.323,-0.323,-0.323,-0.323,-0.323,-0.323,-0.323,-0.323,-0.323,-0.323,-0.323,-0.323,-0.323,-0.323,-0.323,-0.323,-0.323,-0.323,-0.323,-0.323,-0.323,-0.323,-0.323,-0.323,-0.323,-0.323,-0.323,-0.323,-0.323,-0.323,-0.323,-0.323,-0.323,-0.323,-0.323,-0.323,-0.323,-0.323,-0.323,-0.3212,-0.3195,-0.3189,-0.314,-0.3106,-0.3099,-0.307,-0.3052,-0.3052,-0.3052,-0.3052,-0.3052,-0.3243,-0.3243,-0.3243,-0.3815,-0.3972,-0.39,-0.4252,-0.475,-0.5022,-0.5201,-0.538,-0.2059,-0.2101,-0.2138,-0.2151,-0.2155,-0.2155,-0.2155,-0.2155,-0.2155,-0.2155,-0.2155,-0.2159,-0.2173,-0.2253,-0.2342,-0.257,-0.2645,-0.2724,-0.2481,-0.2479,-0.2798,-0.3236,-0.3157,-0.323,0.0,0.0,0.0,0.0,0.0,0.0,0.0,-0.323,-0.323,-0.323,-0.323,-0.323,-0.323,-0.323,-0.323,-0.323,-0.323,-0.323,-0.323,-0.323,-0.323,0.0,0.0,0.0,-0.3231,-0.3245,-0.3251,-0.3253,-0.3266,-0.3264,-0.3253,-0.3266,-0.3254,-0.3232,-0.3246,-0.3242,-0.323,-0.323,-0.323,-0.323,-0.323,-0.323,-0.323,-0.323,-0.323,-0.323,-0.323,-0.323,-0.323,-0.323,-0.323,-0.323,-0.323,-0.323,-0.323,-0.323,-0.323,-0.323,-0.323,-0.323,-0.323,-0.323,-0.323,-0.323,-0.323,-0.3206,-0.3183,-0.317,-0.3126,-0.3092,-0.3078,-0.3062,-0.3052,-0.3052,-0.3052,-0.3052,-0.3052,-0.3052,-0.3052,-0.3052,-0.3434,-0.34,-0.3332,-0.3888,-0.4212,-0.4305,-0.4664,-0.4845,-0.2018,-0.206,-0.2114,-0.2163,-0.2165,-0.2159,-0.2177,-0.2168,-0.2155,-0.2155,-0.2173,-0.2196,-0.2222,-0.2143,-0.2403,-0.294,-0.2613,-0.2479,-0.2461,-0.2548,-0.2804,-0.3243,-0.316,0.0,0.0,0.0,0.0,0.0,0.0,0.0,0.0,-0.323,-0.323,-0.323,-0.3235,-0.3238,-0.3238,-0.3232,-0.3232,-0.3238,-0.3238,-0.3239,-0.3245,-0.3245,-0.3245,0.0,0.0,0.0,-0.3246,-0.3272,-0.3283,-0.3285,-0.3311,-0.3305,-0.3285,-0.3104,-0.3288,-0.3247,-0.3268,-0.3255,-0.323,-0.323,-0.323,-0.323,-0.323,-0.323,-0.323,-0.323,-0.323,-0.323,-0.323,-0.323,-0.323,-0.323,-0.323,-0.323,-0.323,-0.323,-0.323,-0.323,-0.323,-0.323,-0.323,-0.323,-0.323,-0.323,-0.323,-0.3228,-0.3224,-0.32,-0.317,-0.314,-0.3108,-0.308,-0.3054,-0.3052,-0.3052,-0.3052,-0.3052,-0.3052,-0.3052,-0.3052,-0.3052,-0.3052,-0.3052,-0.3022,-0.2961,-0.3332,-0.3663,-0.3588,-0.3949,-0.4307,-0.2012,-0.2044,-0.2104,-0.2237,-0.2211,-0.2181,-0.214,-0.2228,-0.2155,-0.2155,-0.2255,-0.2198,-0.2203,-0.2243,-0.2379,-0.2491,-0.2683,-0.2919,-0.303,-0.3127,-0.3211,-0.3276,0.0,0.0,0.0,0.0,0.0,0.0,0.0,0.0,0.0,-0.323,-0.323,-0.323,-0.3255,-0.3269,-0.3269,-0.3243,-0.3243,-0.3269,-0.3269,-0.3283,-0.3101,-0.3101,-0.3101,0.0,0.0,-0.3101,-0.3101,-0.3106,-0.3314,-0.3314,-0.332,-0.3318,-0.3314,-0.332,-0.3315,-0.3305,-0.3283,-0.3255,-0.323,-0.323,-0.323,-0.323,-0.323,-0.323,-0.323,-0.323,-0.323,-0.323,-0.323,-0.323,-0.323,-0.323,-0.323,-0.323,-0.323,-0.323,-0.323,-0.323,-0.323,-0.323,-0.323,-0.323,-0.323,-0.323,-0.323,-0.3221,-0.3198,-0.3168,-0.3138,-0.3108,-0.3077,-0.3058,-0.3052,-0.3052,-0.3052,-0.3052,-0.3052,-0.3052,-0.3052,-0.3052,-0.3052,-0.3052,-0.3052,-0.3022,-0.2961,-0.3146,-0.3296,-0.3588,-0.3588,-0.3949,-0.2011,-0.2041,-0.1984,-0.2187,-0.2464,-0.2549,-0.232,-0.2194,-0.2171,-0.2203,-0.2142,-0.2239,-0.2572,-0.27,-0.2669,-0.2776,-0.2871,-0.3143,-0.3223,-0.3272,-0.312,0.0,0.0,0.0,0.0,0.0,0.0,0.0,0.0,0.0,0.0,0.0,-0.3254,-0.3254,-0.3284,-0.33,-0.33,-0.3287,-0.3287,-0.33,-0.33,-0.3307,-0.3321,-0.3321,-0.3321,-0.3321,0.0,-0.3321,-0.3322,-0.3339,-0.3345,-0.3347,-0.3363,-0.336,-0.3344,-0.3326,-0.3321,-0.3317,-0.3285,-0.3255,-0.323,-0.323,-0.323,-0.323,-0.323,-0.323,-0.323,-0.323,-0.323,-0.323,-0.323,-0.323,-0.323,-0.323,-0.323,-0.323,-0.323,-0.323,-0.323,-0.323,-0.323,-0.323,-0.323,-0.323,-0.323,-0.323,-0.3217,-0.3202,-0.319,-0.3148,-0.3112,-0.3099,-0.307,-0.3052,-0.3052,-0.3052,-0.3052,-0.3052,-0.3052,-0.3052,-0.3052,-0.3052,-0.3052,-0.3052,-0.3052,-0.3022,-0.2961,-0.2961,-0.3114,-0.3231,-0.3231,-0.3411,-0.202,-0.2067,-0.2031,-0.2226,-0.2529,-0.2787,-0.2403,-0.2318,-0.2169,-0.2318,-0.2242,-0.2341,-0.2863,-0.304,-0.314,-0.3068,-0.3192,-0.3095,-0.3176,-0.3194,0.0,0.0,0.0,0.0,0.0,0.0,0.0,0.0,0.0,0.0,0.0,0.0,-0.3276,-0.3276,-0.3311,-0.3332,-0.333,-0.3337,-0.3339,-0.3332,-0.333,-0.3335,-0.3341,-0.334,-0.334,-0.3341,-0.3341,-0.3341,-0.3344,-0.3367,-0.3377,-0.338,-0.3403,-0.3397,-0.3374,-0.3351,-0.3337,-0.3328,-0.3296,-0.3266,-0.3239,-0.3232,-0.3235,-0.3239,-0.3232,-0.3235,-0.3037,-0.202,-0.2422,-0.323,-0.323,-0.323,-0.323,-0.323,-0.323,-0.323,-0.323,-0.323,-0.323,-0.323,-0.323,-0.323,-0.323,-0.323,-0.3228,-0.3221,-0.3202,-0.3183,-0.3168,-0.3126,-0.3095,-0.3088,-0.3066,-0.3052,-0.3052,-0.3052,-0.3052,-0.3052,-0.3052,-0.3052,-0.3052,-0.3052,-0.3052,-0.3052,-0.3052,-0.3022,-0.2961,-0.2961,-0.2931,-0.2874,-0.2874,-0.2874,-0.2049,-0.2143,-0.2137,-0.2155,-0.2609,-0.2841,-0.278,-0.2446,-0.2393,-0.2696,-0.2506,-0.2273,-0.2276,-0.2826,-0.3049,-0.313,-0.315,-0.3211,-0.3168,0.0,0.0,0.0,0.0,0.0,0.0,0.0,0.0,0.0,0.0,0.0,0.0,0.0,0.0,-0.3481,-0.3333,-0.3362,-0.336,-0.3388,-0.3389,-0.3363,-0.336,-0.3375,-0.3401,-0.3397,-0.3397,-0.3401,-0.3401,-0.3403,-0.3405,-0.3408,-0.3408,-0.3408,-0.3411,-0.3411,-0.3408,-0.3407,-0.3388,-0.3359,-0.3328,-0.3298,-0.3268,-0.3239,-0.3249,-0.3268,-0.3239,-0.325,-0.2449,0.1617,-0.0202,-0.323,-0.323,-0.323,-0.323,-0.323,-0.323,-0.323,-0.323,-0.323,-0.323,-0.323,-0.323,-0.323,-0.323,-0.323,-0.3221,-0.3195,-0.319,-0.3168,-0.3111,-0.31,-0.3086,-0.3058,-0.3054,-0.3052,-0.3052,-0.3052,-0.3052,-0.3052,-0.3052,-0.3052,-0.3052,-0.3052,-0.3052,-0.3052,-0.3052,-0.3022,-0.2961,-0.2961,-0.2931,-0.2874,-0.2874,-0.2874,-0.2439,-0.2437,-0.2173,-0.2126,-0.2312,-0.2497,-0.2912,-0.2699,-0.275,-0.2967,-0.29,-0.284,-0.2876,-0.2726,-0.2781,-0.2697,-0.2864,-0.3255,0.0,0.0,0.0,0.0,0.0,0.0,0.0,0.0,0.0,0.0,0.0,0.0,0.0,0.0,0.0,-0.3329,-0.337,-0.339,-0.3386,0.2124,0.5101,0.5084,-0.0635,-0.0424,0.5109,0.5105,0.5107,0.4682,-0.0851,-0.3404,-0.3405,-0.3408,-0.341,-0.341,-0.3411,-0.3412,-0.3412,-0.3412,-0.3393,-0.3365,-0.3354,-0.3329,-0.3302,-0.329,-0.3294,-0.3302,-0.3288,-0.3292,-0.2265,0.2038,0.4067,0.3861,-0.0202,-0.222,-0.323,-0.323,-0.323,-0.323,-0.323,-0.323,-0.323,-0.323,-0.323,-0.323,-0.323,-0.3216,-0.3201,-0.319,-0.3156,-0.3123,-0.31,-0.3081,-0.3065,-0.3054,-0.3052,-0.3052,-0.3052,-0.3052,-0.3052,-0.3052,-0.3052,-0.3052,-0.3052,-0.3052,-0.3052,-0.3052,-0.3033,-0.3003,-0.2961,-0.2942,-0.2913,-0.2874,-0.2874,-0.2874,-0.2586,-0.2494,-0.2246,-0.2326,-0.2407,-0.2468,-0.2642,-0.292,-0.2995,-0.3064,-0.3168,-0.31,-0.3111,-0.2947,-0.2627,0.0,-0.2892,0.0,0.0,0.0,0.0,0.0,0.0,0.0,0.0,0.0,0.0,0.0,0.0,0.0,0.0,0.0,0.0,0.0,-0.0636,0.0851,0.085,0.7022,1.0232,1.0016,0.3825,0.4249,1.0232,1.0232,1.0232,0.9804,0.3612,0.085,0.085,0.0851,-0.0851,-0.3407,-0.3408,-0.3408,-0.3408,-0.3408,-0.3396,-0.3377,-0.3367,-0.3351,-0.3332,-0.3322,-0.3325,-0.333,-0.332,-0.1246,0.1661,0.4511,0.7365,0.8589,0.3447,0.0404,-0.121,-0.121,-0.1614,-0.222,-0.222,-0.2624,-0.323,-0.323,-0.3223,-0.3217,-0.3217,-0.3193,-0.3171,-0.3161,-0.3125,-0.3095,-0.3084,-0.3065,-0.3052,-0.3052,-0.3052,-0.3052,-0.3052,-0.3052,-0.3056,-0.3066,-0.3058,-0.3052,-0.3052,-0.3052,-0.3052,-0.3052,-0.3022,-0.2991,-0.2961,-0.2931,-0.2901,-0.2874,-0.2874,-0.2879,-0.2101,-0.2165,-0.2373,-0.2714,-0.3069,-0.2966,-0.2469,-0.2759,-0.3059,-0.3161,-0.3158,-0.307,-0.3165,-0.3147,0.0,-0.2853,0.0,0.0,0.0,0.0,0.0,0.0,0.0,0.0,0.0,0.0,0.0,0.0,0.0,0.0,0.0,0.0,0.0,0.0,0.551,1.0232,1.0228,1.0228,1.0224,1.0216,1.0216,1.022,1.0228,1.022,1.022,1.0228,1.0228,1.0232,1.0236,1.0236,0.4892,-0.3189,-0.3189,-0.3189,-0.3189,-0.3189,-0.3189,-0.3185,-0.337,-0.3359,-0.3355,-0.3325,-0.3335,-0.3354,-0.3324,0.3127,1.0073,0.9885,0.9836,0.922,0.7155,0.487,0.3224,0.3224,0.1612,0.0,0.0,-0.1614,-0.323,-0.323,-0.3208,-0.3189,-0.3187,-0.3163,-0.3131,-0.3101,-0.3097,-0.3086,-0.3056,-0.3052,-0.3052,-0.3052,-0.3052,-0.3052,-0.3052,-0.3052,-0.3065,-0.3096,-0.3069,-0.3052,-0.3052,-0.3052,-0.3052,-0.3052,-0.3022,-0.2991,-0.2961,-0.2931,-0.2901,-0.2875,-0.2875,-0.2889,-0.2184,-0.2185,-0.2323,-0.2827,-0.3064,-0.2972,-0.2849,-0.2662,-0.2639,-0.2975,-0.3142,-0.3077,-0.3194,-0.32,0.0,0.0,0.0,0.0,0.0,0.0,0.0,0.0,0.0,0.0,0.0,0.0,0.0,0.0,0.0,0.0,0.0,0.0,0.0,0.0,0.8727,1.0232,1.022,1.022,1.0216,1.0216,1.0216,1.0216,1.022,1.0216,1.0216,1.022,1.022,1.022,1.0224,1.0228,0.8518,0.6169,0.6169,0.6169,0.6169,0.6169,0.6169,0.6169,0.6155,0.6147,0.6145,0.613,0.6135,0.6145,0.6125,0.8041,1.0167,1.004,1.0004,0.9768,0.9027,0.8364,0.7122,0.4069,0.2834,0.1813,0.0403,-0.0403,-0.141,-0.3004,-0.3194,-0.3182,-0.316,-0.3131,-0.3108,-0.3099,-0.308,-0.3062,-0.3054,-0.3052,-0.3052,-0.3052,-0.3052,-0.3052,-0.3052,-0.3052,-0.3065,-0.3096,-0.3089,-0.3084,-0.3084,-0.3063,-0.3041,-0.3021,-0.299,-0.2971,-0.2961,-0.2911,-0.2904,-0.2935,-0.2913,-0.2919,-0.2387,-0.24,-0.2566,-0.2948,-0.3024,-0.3089,-0.3091,-0.271,-0.2511,-0.3036,-0.2994,-0.2914,-0.3084,-0.3103,0.0,0.0,0.0,0.0,0.0,0.0,0.0,0.0,0.0,0.0,0.0,0.0,0.0,0.0,0.0,0.0,0.0,0.0,0.0,0.0,0.8312,1.0232,1.0208,1.0212,1.0212,1.0208,1.0208,1.0208,1.0208,1.0212,1.0216,1.0216,1.0216,1.0216,1.0216,1.022,1.0224,1.0228,1.0228,1.0228,1.0228,1.0228,1.0228,1.0228,1.0228,1.0228,1.0228,1.0228,1.0228,1.0228,1.0649,1.0861,1.0839,1.0944,1.0918,1.0891,1.057,1.0509,0.964,0.6716,0.526,0.3827,0.1814,0.0603,-0.0601,-0.2791,-0.3168,-0.3146,-0.3127,-0.31,-0.308,-0.308,-0.3065,-0.3052,-0.3052,-0.3052,-0.3052,-0.3052,-0.3063,-0.307,-0.307,-0.3081,-0.3101,-0.3131,-0.3122,-0.3115,-0.3115,-0.3086,-0.3062,-0.3043,-0.3001,-0.298,-0.2979,-0.2931,-0.2927,-0.2961,-0.2942,-0.295,-0.2937,-0.2868,-0.2956,-0.2975,-0.2951,-0.3076,-0.3179,-0.2749,-0.2722,-0.2942,-0.2863,-0.2758,-0.3172,-0.3206,0.0,0.0,0.0,0.0,0.0,0.0,0.0,0.0,0.0,0.0,0.0,0.0,0.0,0.0,0.0,0.0,0.0,0.0,0.0,-0.2976,0.5747,1.0016,0.9341,0.9996,1.0424,0.0,1.0411,1.0411,1.0411,1.0208,1.0216,1.0216,1.0212,1.0216,1.0216,1.0216,1.0216,1.0216,1.0216,1.0216,1.0216,1.0216,1.0216,1.0216,1.0216,1.0216,1.0216,1.0216,1.0428,1.064,1.1708,1.192,1.1901,1.2221,1.2191,1.2186,1.1963,1.1663,1.1325,1.0134,0.827,0.6243,0.4025,0.1798,-0.0397,-0.2782,-0.3135,-0.3096,-0.3095,-0.307,-0.3052,-0.3052,-0.3052,-0.3052,-0.3052,-0.3055,-0.3056,-0.3056,-0.3084,-0.3101,-0.3101,-0.3127,-0.3156,-0.3186,-0.316,-0.3144,-0.3146,-0.3115,-0.3095,-0.3089,-0.3035,-0.3006,-0.3006,-0.2976,-0.2964,-0.2969,-0.2966,-0.2981,-0.2868,-0.2843,-0.2955,-0.3105,-0.3029,-0.3092,-0.3073,-0.3058,-0.3013,-0.3065,-0.3029,-0.3159,-0.3093,0.0,0.0,0.0,0.0,0.0,0.0,0.0,0.0,0.0,0.0,0.0,0.0,0.0,0.0,0.0,0.0,0.0,0.0,0.0,0.0,-0.0638,0.8083,0.9352,0.2328,0.9341,1.2777,0.0,1.2772,1.2772,1.2772,1.1055,1.0204,1.0208,1.0204,1.0204,1.0216,1.0208,1.0212,1.0216,1.0216,1.0216,1.0216,1.0216,1.0216,1.0216,1.0216,1.0216,1.0428,1.128,1.1497,1.1708,1.2132,1.2344,1.2339,1.2098,1.2088,1.1858,1.1773,1.1611,1.1463,1.1218,1.0735,0.9448,0.6384,0.435,0.1765,-0.234,-0.3107,-0.3089,-0.3066,-0.3056,-0.3052,-0.3052,-0.3052,-0.3052,-0.3052,-0.3073,-0.3088,-0.3088,-0.3115,-0.3133,-0.3133,-0.314,-0.3156,-0.3186,-0.316,-0.3153,-0.3178,-0.3126,-0.3076,-0.3028,-0.3013,-0.3006,-0.3006,-0.2976,-0.2986,-0.3032,-0.3009,-0.3013,-0.256,-0.2682,-0.2985,-0.302,-0.3085,-0.3106,-0.3134,-0.3141,-0.3119,-0.3229,-0.3111,-0.3182,0.0,0.0,0.0,0.0,0.0,0.0,0.0,0.0,0.0,0.0,0.0,0.0,0.0,0.0,0.0,0.0,0.0,0.0,0.0,0.0,0.1913,0.6372,1.1077,1.128,0.6565,1.1262,1.3629,1.3618,1.3618,1.3618,1.3618,1.2339,1.1911,1.1704,1.0627,1.0843,1.1708,1.0632,1.0204,1.0204,1.0204,1.0848,1.192,1.192,1.1492,1.1064,1.1276,1.128,1.128,1.1704,1.1916,1.1916,1.255,1.255,1.254,1.2691,1.2675,1.265,1.2533,1.242,1.2318,1.2272,1.1683,1.0334,0.715,0.5698,0.3497,-0.2131,-0.3085,-0.307,-0.3055,-0.3052,-0.3062,-0.3092,-0.3084,-0.308,-0.3093,-0.311,-0.3119,-0.3119,-0.3146,-0.3164,-0.3164,-0.3176,-0.3186,-0.3189,-0.3174,-0.3159,-0.3145,-0.3114,-0.3082,-0.3051,-0.3036,-0.3028,-0.3028,-0.3013,-0.3021,-0.3052,-0.3036,-0.3037,-0.2159,-0.2634,-0.3024,-0.3078,-0.3116,-0.3114,-0.3174,-0.3189,-0.3198,-0.3234,-0.3221,0.0,0.0,0.0,0.0,0.0,0.0,0.0,0.0,0.0,0.0,0.0,0.0,0.0,0.0,0.0,0.0,0.0,0.0,0.0,0.0,0.1487,0.5738,1.3418,1.3651,1.3645,1.3602,1.3618,1.3618,1.3602,1.3602,1.3602,1.3602,1.3618,1.3629,1.3418,1.169,1.1906,1.3418,1.1483,1.0835,1.0839,1.0839,1.1911,1.3629,1.3629,1.2984,1.2122,1.2339,1.2555,1.2339,1.2122,1.2122,1.2118,1.2731,1.2937,1.2916,1.3214,1.339,1.3368,1.3265,1.3211,1.3162,1.3086,1.2196,1.0401,0.7915,0.6836,0.4626,-0.1547,-0.2888,-0.3066,-0.3061,-0.3065,-0.3085,-0.3135,-0.3122,-0.3114,-0.314,-0.3148,-0.315,-0.315,-0.3178,-0.3194,-0.3189,-0.3209,-0.321,-0.3182,-0.3175,-0.315,-0.31,-0.3093,-0.3089,-0.3089,-0.3065,-0.3052,-0.3052,-0.3052,-0.3052,-0.3052,-0.3052,-0.3052,-0.2169,-0.2585,-0.3047,-0.3056,-0.31,-0.3114,-0.3174,-0.3189,-0.3204,0.0,0.0,0.0,0.0,0.0,0.0,0.0,0.0,0.0,0.0,0.0,0.0,0.0,0.0,0.0,0.0,0.0,0.0,0.0,0.0,0.0,0.0425,0.7432,1.2344,1.3629,1.3618,1.3613,1.3602,1.3607,1.3607,1.3602,1.3602,1.3602,1.3602,1.3607,1.3613,1.3618,1.3185,1.3401,1.3629,1.3195,1.3195,1.3201,1.3201,1.3418,1.3629,1.3629,1.3201,1.2344,1.2555,1.2339,1.2122,1.2545,1.2757,1.2742,1.3268,1.3236,1.3209,1.3298,1.3259,1.3259,1.3243,1.3086,1.296,1.3047,1.2599,1.2158,1.1809,0.9293,0.5351,-0.0579,-0.2531,-0.3122,-0.3096,-0.3114,-0.3134,-0.3141,-0.314,-0.3138,-0.3142,-0.3165,-0.3182,-0.3182,-0.3208,-0.3215,-0.319,-0.3191,-0.318,-0.315,-0.3125,-0.3106,-0.3097,-0.3071,-0.3058,-0.3058,-0.3054,-0.3052,-0.3052,-0.3052,-0.3052,-0.3052,-0.3052,-0.3052,-0.1152,-0.1127,-0.1419,-0.1306,-0.1344,-0.1375,-0.1409,-0.1417,-0.1422,-0.1441,0.0,0.0,0.0,0.0,0.0,0.0,0.0,0.0,0.0,0.0,0.0,0.0,0.0,0.0,0.0,0.0,0.0,0.0,0.0,1.1944,0.7849,1.1483,1.3629,1.3618,1.3607,1.3602,1.3602,1.3602,1.3602,1.3602,1.3602,1.3602,1.3602,1.3602,1.3607,1.3607,1.3607,1.3607,1.3618,1.3613,1.3613,1.3618,1.3618,1.3618,1.3618,1.3618,1.3401,1.3185,1.3185,1.2973,1.2968,1.318,1.3137,1.3074,1.3439,1.3374,1.3292,1.3178,1.3145,1.3129,1.3058,1.2966,1.2901,1.2955,1.2797,1.264,1.2667,0.9383,0.5034,0.0195,-0.0979,-0.1571,-0.2163,-0.2752,-0.3155,-0.3189,-0.3179,-0.3174,-0.319,-0.3204,-0.3212,-0.3212,-0.3209,-0.3201,-0.3189,-0.3172,-0.315,-0.3119,-0.3104,-0.3089,-0.3073,-0.3059,-0.3052,-0.3052,-0.3052,-0.3052,-0.3052,-0.3052,-0.3052,-0.3052,-0.3052,-0.3052,-0.0289,0.0,0.0,0.0,0.0,0.0,0.0,0.0,0.0,0.0,0.0,0.0,0.0,0.0,0.0,0.0,0.0,0.0,0.0,0.0,0.0,0.0,0.0,0.0,0.0,0.0,0.0,0.0,0.0,1.3645,1.3607,1.3618,1.3618,1.3602,1.3602,1.3602,1.3602,1.3602,1.3602,1.3602,1.3602,1.3602,1.3602,1.3602,1.3602,1.3602,1.3602,1.3602,1.3602,1.3602,1.3602,1.3602,1.3602,1.3602,1.3602,1.3602,1.3602,1.3602,1.3602,1.3586,1.3558,1.3558,1.3477,1.3368,1.3341,1.327,1.3172,1.3058,1.3026,1.3004,1.2912,1.289,1.289,1.289,1.2819,1.2748,1.2705,0.8482,0.3731,0.0589,0.0,-0.0198,-0.0995,-0.1786,-0.2584,-0.3025,-0.3215,-0.3208,-0.3227,-0.323,-0.3227,-0.322,-0.3201,-0.3182,-0.3167,-0.3144,-0.3118,-0.3088,-0.3086,-0.3076,-0.3054,-0.3052,-0.3052,-0.3052,-0.3052,-0.3052,-0.3052,-0.3052,-0.3052,-0.3052,-0.3052,-0.3052,-0.0,0.0,0.0,0.0,0.0,0.0,0.0,0.0,0.0,0.0,0.0,0.0,0.0,0.0,0.0,0.0,0.0,0.0,0.0,0.0,0.0,0.0,0.0,0.0,0.0,0.0,0.0,0.0,0.0,1.3624,1.3607,1.3607,1.3607,1.3602,1.3602,1.3602,1.3602,1.3602,1.3602,1.3602,1.3602,1.3602,1.3602,1.3602,1.3602,1.3602,1.3602,1.3602,1.3602,1.3602,1.3602,1.3602,1.3602,1.3602,1.3602,1.3602,1.3602,1.3602,1.3602,1.3526,1.3433,1.3433,1.3346,1.3227,1.3124,1.3086,1.3053,1.2933,1.2895,1.2895,1.289,1.289,1.289,1.289,1.2895,1.2846,1.2247,0.5922,0.0198,0.0,0.0,-0.0,-0.0,-0.0201,-0.0807,-0.2828,-0.3232,-0.3231,-0.323,-0.323,-0.322,-0.3193,-0.3189,-0.3165,-0.3107,-0.31,-0.3086,-0.3056,-0.3055,-0.3054,-0.3052,-0.3052,-0.3052,-0.3052,-0.3052,-0.3052,-0.3052,-0.3052,-0.3052,-0.3052,-0.3052,-0.3052,0.0,0.0,0.0,0.0,0.0,0.0,0.0,0.0,0.0,0.0,0.0,0.0,0.0,0.0,0.0,0.0,0.0,0.0,0.0,0.0,0.0,0.0,0.0,0.0,0.0,0.0,0.0,0.0,0.0,0.0,1.3602,1.3602,1.3602,1.3602,1.3602,1.3602,1.3602,1.3602,1.3602,1.3602,1.3602,1.3602,1.3602,1.3602,1.3602,1.3602,1.3602,1.3602,1.3602,1.3602,1.3602,1.3602,1.3602,1.3602,1.3602,1.3602,1.3602,1.3591,1.3515,1.3455,1.3406,1.333,1.3227,1.3124,1.3086,1.3015,1.2944,1.2901,1.289,1.289,1.289,1.289,1.289,1.2901,1.2912,1.2901,1.2652,1.0193,0.618,0.0999,0.0,0.0,0.0,0.0,-0.0202,-0.101,-0.2222,-0.3234,-0.3232,-0.3216,-0.32,-0.3189,-0.3153,-0.3122,-0.3099,-0.308,-0.3063,-0.3052,-0.3052,-0.3052,-0.3052,-0.3052,-0.3052,-0.3052,-0.3052,-0.3052,-0.3052,-0.3052,-0.3052,-0.3052,-0.3052,-0.3041,0.0,0.0,0.0,0.0,0.0,0.0,0.0,0.0,0.0,0.0,0.0,0.0,0.0,0.0,0.0,0.0,0.0,0.0,0.0,0.0,0.0,0.0,0.0,0.0,0.0,0.0,0.0,0.0,0.0,0.0,1.3602,1.3602,1.3602,1.3602,1.3602,1.3602,1.3602,1.3602,1.3602,1.3602,1.3602,1.3602,1.3602,1.3602,1.3602,1.3602,1.3602,1.3602,1.3602,1.3602,1.3602,1.3602,1.3602,1.3602,1.3597,1.3558,1.3542,1.3526,1.3401,1.3336,1.3292,1.3211,1.3102,1.3009,1.3009,1.2955,1.289,1.289,1.289,1.289,1.289,1.289,1.2901,1.2922,1.2933,1.295,1.2988,1.2722,1.0049,0.1614,0.0,0.0,0.0,0.0,0.0,0.0,-0.141,-0.2815,-0.3219,-0.3191,-0.317,-0.3159,-0.3122,-0.3093,-0.3084,-0.3063,-0.3052,-0.3052,-0.3052,-0.3052,-0.3052,-0.3052,-0.3052,-0.3052,-0.3052,-0.3052,-0.3052,-0.3052,-0.3052,-0.3052,-0.3041,-0.3016,0.0,0.0,0.0,0.0,0.0,0.0,0.0,0.0,0.0,0.0,0.0,0.0,0.0,0.0,0.0,0.0,0.0,0.0,0.0,0.0,0.0,0.0,0.0,0.0,0.0,0.0,0.0,0.0,0.0,1.3602,1.3602,1.3602,1.3602,1.3602,1.3602,1.3602,1.3602,1.3602,1.3602,1.3602,1.3602,1.3602,1.3602,1.3602,1.3602,1.3602,1.3602,1.3602,1.3602,1.3602,1.3602,1.3602,1.3602,1.3602,1.3586,1.3466,1.3417,1.3401,1.3276,1.3162,1.3069,1.3069,1.2988,1.289,1.289,1.289,1.289,1.289,1.289,1.289,1.289,1.2901,1.2922,1.2939,1.2966,1.2786,1.26,1.259,1.0121,0.1616,0.0,0.0,0.0,0.0,0.0,0.0,-0.0801,-0.1793,-0.2988,-0.316,-0.313,-0.31,-0.3097,-0.3084,-0.3055,-0.3052,-0.3052,-0.3052,-0.3052,-0.3052,-0.3052,-0.3052,-0.3052,-0.3052,-0.3052,-0.3052,-0.3051,-0.3051,-0.3051,-0.305,-0.3018,-0.2972,0.0,0.0,0.0,0.0,0.0,0.0,0.0,0.0,0.0,0.0,0.0,0.0,0.0,0.0,0.0,0.0,0.0,0.0,0.0,0.0,0.0,0.0,0.0,0.0,0.0,0.0,0.0,0.0,1.3602,1.3602,1.3602,1.3602,1.3602,1.3602,1.3602,1.3602,1.3602,1.3602,1.3602,1.3602,1.3602,1.3602,1.3602,1.3602,1.3602,1.3602,1.3602,1.3602,1.3602,1.3602,1.3602,1.3602,1.3602,1.3548,1.3466,1.3433,1.3363,1.327,1.3156,1.3096,1.3058,1.2966,1.2917,1.289,1.289,1.289,1.289,1.289,1.289,1.289,1.2906,1.2912,1.2922,1.2966,1.2977,1.1147,0.4851,0.3638,0.2828,0.0404,0.0,0.0,0.0,0.0,0.0,0.0,-0.02,-0.0994,-0.296,-0.3129,-0.3107,-0.3099,-0.3078,-0.3061,-0.3052,-0.3052,-0.3052,-0.3052,-0.3052,-0.3052,-0.3052,-0.3052,-0.3052,-0.3052,-0.3052,-0.3041,-0.302,-0.302,-0.302,-0.3018,-0.2965,-0.3662,0.0,0.0,0.0,0.0,0.0,0.0,0.0,0.0,0.0,0.0,0.0,0.0,0.0,0.0,0.0,0.0,0.0,0.0,0.0,0.0,0.0,0.0,0.0,0.0,0.0,0.0,0.0,1.3607,1.3602,1.3602,1.3602,1.3602,1.3602,1.3602,1.3602,1.3602,1.3602,1.3602,1.3602,1.3602,1.3602,1.3602,1.3602,1.3602,1.3602,1.3602,1.3602,1.3602,1.3602,1.3548,1.3558,1.3597,1.3548,1.3482,1.3412,1.3308,1.3232,1.3151,1.3037,1.2993,1.2982,1.2912,1.289,1.289,1.289,1.289,1.289,1.289,1.289,1.289,1.2912,1.1493,1.069,1.2563,1.0125,0.6063,0.101,0.0,0.0,0.0,0.0,0.0,0.0,0.0,0.0,0.0,0.0,-0.0393,-0.1563,-0.2517,-0.3078,-0.3078,-0.3063,-0.3052,-0.3052,-0.3052,-0.3052,-0.3052,-0.3052,-0.3052,-0.3052,-0.3052,-0.3046,-0.3033,-0.3033,-0.3011,-0.2969,-0.2995,-0.2994,-0.2968,-0.3663,-0.4721,0.0,0.0,0.0,0.0,0.0,0.0,0.0,0.0441,0.0945,0.0,0.0,0.0,0.0,0.0,0.0,0.0,0.0,0.0,0.0,0.0,0.0,0.0,0.0,0.0,0.0,1.3564,1.3569,1.3586,1.3597,1.3602,1.3602,1.3602,1.3602,1.3602,1.3602,1.3602,1.3602,1.3602,1.3602,1.3602,1.3602,1.3602,1.3602,1.3602,1.3602,1.3602,1.3602,1.3597,1.3575,1.3482,1.3499,1.3569,1.345,1.3395,1.3357,1.3145,1.3064,1.3037,1.2928,1.289,1.289,1.289,1.289,1.289,1.289,1.289,1.289,1.289,1.289,1.2895,1.2917,1.0079,0.7861,1.073,0.5659,0.0,0.0,0.0,0.0,0.0,0.0,0.0,0.0,0.0,0.0,0.0,0.0,0.0,0.0,-0.1726,-0.3052,-0.3052,-0.3052,-0.3052,-0.3052,-0.3052,-0.3052,-0.3052,-0.3052,-0.3052,-0.3052,-0.305,-0.3035,-0.3007,-0.3001,-0.2971,-0.2916,-0.2971,-0.3152,-0.3274,-0.4903,-0.5963,0.0,0.0,0.0,0.0,0.0,0.0,0.0,0.3599,0.7031,0.0,0.0,0.0,0.0,0.0,0.0,0.0,0.0,0.0,0.0,0.0,0.0,0.0,0.0,0.0,0.0,0.0,1.3565,1.3664,1.3548,1.3602,1.3602,1.3602,1.3602,1.3602,1.3602,1.3602,1.3602,1.3602,1.3602,1.3602,1.3602,1.3602,1.3602,1.3602,1.3602,1.3602,1.3602,1.3548,1.3461,1.3537,1.3526,1.3444,1.3319,1.3221,1.3134,1.3086,1.3009,1.2922,1.2895,1.289,1.289,1.289,1.289,1.289,1.289,1.289,1.289,1.2906,1.2912,1.2917,1.296,1.2357,1.0117,0.404,0.1212,0.0,0.0,0.0,0.0,0.0,0.0,0.0,0.0,0.0,0.0,0.0,0.0,0.0,0.0,-0.1145,-0.2098,-0.3052,-0.3052,-0.3052,-0.3052,-0.3052,-0.3052,-0.3052,-0.3052,-0.3052,-0.3052,-0.3029,-0.3013,-0.3006,-0.2958,-0.2928,-0.2916,-0.2928,-0.3643,-0.5214,-0.557,-0.7352,0.0798,0.0,0.0,0.0,0.0,0.0,0.0,0.2232,0.4385,0.466,0.0,0.0,0.0,0.0,0.0,0.0,0.0,0.0,0.0,0.0,0.0,0.0,0.0,0.0,0.0,0.0,1.3357,1.3631,1.3631,1.3658,1.351,1.3515,1.3542,1.3602,1.3602,1.3602,1.3602,1.3602,1.3602,1.3602,1.3602,1.3602,1.3602,1.3602,1.3602,1.3602,1.3602,1.3569,1.3515,1.3515,1.3439,1.3325,1.3259,1.3172,1.3064,1.3004,1.2939,1.289,1.289,1.289,1.289,1.289,1.289,1.289,1.2901,1.2906,1.2917,1.2928,1.1297,1.0083,1.2362,1.2982,1.0721,0.2008,0.0,0.0,0.0,0.0,0.0,0.0,0.0,0.0,0.0,0.0,0.0,0.0,0.0,0.0,0.0,-0.0381,-0.1335,-0.2862,-0.3052,-0.3052,-0.3052,-0.3052,-0.3052,-0.3052,-0.3037,-0.3029,-0.3029,-0.3001,-0.2977,-0.2961,-0.2917,-0.2896,-0.2896,-0.3796,-0.4864,-0.5733,-0.7695,-0.9655,0.2959,0.1614,0.1343,0.0269,0.0,0.0,0.0,0.0,0.0,0.0,0.0,0.0,0.0,0.0,0.0,0.0,0.0,0.0,0.0,0.0,0.0,0.0,0.0,0.0,0.0,0.0,1.3166,1.3357,1.3515,1.3515,1.3385,1.362,1.3681,1.3569,1.3591,1.3602,1.3602,1.3602,1.3602,1.3602,1.3602,1.3602,1.3602,1.3602,1.3602,1.3602,1.3602,1.3591,1.3564,1.3488,1.3357,1.3205,1.3205,1.3134,1.3026,1.2922,1.289,1.289,1.289,1.2895,1.2895,1.2895,1.2901,1.27,1.1899,1.1703,1.1919,1.2743,1.0284,0.8045,0.9886,1.0489,0.8636,0.1592,0.0,0.0,0.0,0.0,0.0,0.0,0.0,0.0,0.0,0.0,0.0,0.0,0.0,0.0,0.0,0.0,-0.0763,-0.267,-0.3052,-0.305,-0.3044,-0.3043,-0.3041,-0.3035,-0.3011,-0.2998,-0.2998,-0.2969,-0.2939,-0.2909,-0.2886,-0.3053,-0.3411,-0.5378,-0.627,-0.627,-0.9833,-1.1616,0.7805,0.7607,0.6455,0.134,0.0,0.0,0.0,0.0,0.0,0.0,0.0,0.0,0.0,0.0,0.0,0.0,0.0,0.0,0.0,0.0,0.0,0.0,0.0,0.0,0.0,0.0,0.0,1.2914,1.308,1.2937,1.3054,1.3363,1.3642,1.3653,1.3548,1.3602,1.3602,1.3602,1.3602,1.3602,1.3602,1.3602,1.3602,1.3602,1.3602,1.3602,1.3602,1.3542,1.345,1.3542,1.339,1.3091,1.3091,1.3015,1.2906,1.2895,1.289,1.289,1.2906,1.2912,1.2917,1.2933,1.2939,1.212,0.8259,0.7047,0.7861,1.1747,1.2495,1.0595,0.3391,0.1388,0.1182,0.0197,0.0,0.0,0.0,0.0,0.0,0.0,0.0,0.0,0.0,0.0,0.0,0.0,0.0,0.0,0.0,0.0,-0.0381,-0.1526,-0.2479,-0.3041,-0.3014,-0.3011,-0.3001,-0.2973,-0.2968,-0.2966,-0.2966,-0.2938,-0.2908,-0.2879,-0.2875,-0.3769,-0.5375,-0.7338,-0.823,-0.8409,-1.0367,-1.2331,0.8642,0.8539,0.806,0.5557,0.4979,0.0,0.5018,0.0,0.0,0.0,0.0,0.0,0.0,0.0,0.0,0.0,0.0,0.0,0.0,0.0,0.0,0.0,0.0,0.0,0.0,0.0,0.0,0.0,0.0,1.2935,1.2825,1.314,1.3346,1.3631,1.3542,1.3602,1.3602,1.3602,1.3602,1.3602,1.3531,1.3537,1.3602,1.3531,1.3537,1.3602,1.3602,1.358,1.3548,1.3602,1.3461,1.3416,1.3211,1.3086,1.2906,1.2917,1.2917,1.2922,1.2928,1.1297,0.9067,0.907,1.0868,1.2658,1.0631,0.6578,0.2975,0.4966,0.5351,0.4544,0.0988,0.0,0.0,0.0,0.0,0.0,0.0,0.0,0.0,0.0,0.0,0.0,0.0,0.0,0.0,0.0,0.0,0.0,0.0,0.0,-0.0381,-0.1324,-0.2458,-0.3013,-0.2983,-0.298,-0.2975,-0.2962,-0.2945,-0.2928,-0.2912,-0.2898,-0.2886,-0.2874,-0.2874,-0.3769,-0.5733,-0.7695,-0.9121,-1.0189,-1.2154,-1.3584,0.8937,0.9223,0.9575,0.0,0.0,0.0,0.0,0.0,0.0,0.0,0.0,0.0,0.0,0.0,0.0,0.0,0.0,0.7203,0.0,0.0,0.0,0.0,0.0,0.0,0.0,0.0,0.0,0.0,0.0,0.0,1.2819,1.2825,1.3134,1.3532,1.3653,1.3504,1.3504,1.3537,1.3553,1.3553,1.3499,1.352,1.3602,1.352,1.3531,1.3613,1.3618,1.3629,1.3428,1.2349,1.1801,1.1837,1.2895,1.3162,1.2732,1.1512,1.1105,1.1311,1.2542,0.9267,0.4612,0.46,0.6777,0.9344,0.9344,0.4936,0.0,0.0,0.0,0.0,0.0,0.0,0.0,0.0,0.0,0.0,0.0,0.0,0.0,0.0,0.0,0.0,0.0,0.0,0.0,0.0,0.0,0.0,0.0,0.0,-0.019,-0.0944,-0.2258,-0.2995,-0.2964,-0.2954,-0.2946,-0.2938,-0.2916,-0.2896,-0.2875,-0.2874,-0.2874,-0.2874,-0.3411,-0.4664,-0.6448,-0.8409,-1.0367,-1.2154,-1.3584,-1.4299,0.0,0.0,0.0,1.2064,0.0,0.0,0.0,0.0,0.8344,0.0,0.0,0.0,0.0,0.0,0.0,0.0,0.0133,0.0,0.0,0.0,0.0,0.0,0.0,0.0,0.0,0.0,0.0,0.0,0.0,0.0,1.275,1.2819,1.3122,1.3689,1.3609,1.3671,1.3671,1.3581,1.3636,1.3642,1.3548,1.3602,1.3602,1.3618,1.3629,1.3629,1.3662,1.3673,1.3243,0.8939,0.6943,0.7454,1.1856,1.3399,1.2367,0.8065,0.6643,0.7251,1.1536,0.7236,0.0199,0.0197,0.0393,0.0393,0.0393,0.0196,0.0,0.0,0.0,0.0,0.0,0.0,0.0,0.0,0.0,0.0,0.0,0.0,0.0,0.0,0.0,0.0,0.0,0.0,0.0,0.0,0.0,0.0,0.0,0.0,-0.0,-0.0,-0.17,-0.2994,-0.2964,-0.2934,-0.2905,-0.2879,-0.2875,-0.2875,-0.2874,-0.2874,-0.2874,-0.2874,-0.4662,-0.6627,-0.8587,-1.0372,-1.2331,-1.4122,-1.4299,-1.4299,0.0,0.0,1.1915,1.0558,0.0,0.0,0.0,0.0,0.0,0.0,0.0,0.0,0.0,0.0,0.1219,0.5045,0.5625,0.6305,0.0,0.0,0.0,0.0,0.0,0.0,0.0,0.0,0.0,0.0,0.0,0.0,0.0,1.2389,1.3015,1.3058,1.3178,1.3238,1.3238,1.3166,1.3236,1.3664,1.3504,1.3575,1.3645,1.3575,1.1868,0.9144,0.9151,1.0874,1.3476,1.1963,0.9538,0.7336,1.1782,1.3336,1.2079,0.4857,0.221,0.2396,0.3773,0.2373,0.0,0.0,0.0,0.0,0.0,0.0,0.0,0.0,0.0,0.0,0.0,0.0,0.0,0.0,0.0,0.0,0.0,0.0,0.0,0.0,0.0,0.0,0.0,0.0,0.0,0.0,0.0,0.0,0.0,0.0,-0.019,-0.0946,-0.1507,-0.2245,-0.2779,-0.2934,-0.2912,-0.2902,-0.2885,-0.2874,-0.2874,-0.4126,-0.4841,-0.4841,-0.6627,-0.8587,-1.0367,-1.1083,-1.229,-1.415,-1.415,-1.415,1.291,1.2591,0.0,1.0712,1.1259,0.0,0.9381,0.0,0.881,0.0,0.0,0.0,0.0,0.3639,0.5024,0.8178,0.8549,0.8622,0.0,0.86,0.0,0.0,0.0,0.0,0.0,0.0,0.0,0.0,0.0,0.0,0.0,0.0,1.2944,1.2922,1.285,1.2904,1.2904,1.2885,1.1493,0.8761,0.8828,0.8678,0.8724,0.8678,0.89,0.8946,0.5744,0.5964,0.8751,0.8751,0.6994,0.4614,0.7558,0.8518,0.7553,0.2026,0.0,0.0,0.0,0.0,0.0,0.0,0.0,0.0,0.0,0.0,0.0,0.0,0.0,0.0,0.0,0.0,0.0,0.0,0.0,0.0,0.0,0.0,0.0,0.0,0.0,0.0,0.0,0.0,0.0,0.0,0.0,0.0,0.0,0.0,-0.0381,-0.1324,-0.1507,-0.1871,-0.2779,-0.2943,-0.2932,-0.2932,-0.2915,-0.3262,-0.3969,-0.5046,-0.6114,-0.6806,-0.8587,-1.0175,-1.1373,-1.2085,-1.2904,-1.3994,-1.4048,-1.4041]}]]